     2              Observation         GPS                 RINEX VERSION / TYPE
ASRINEXO V2.2.0 UX USGS 05-JUL-94 13:59                     PGM / RUN BY / DATE
                                                            COMMENT
Original Marker Name: 7544 70544_1968_San_Ber._Co.          COMMENT
Campaign Name: USGS-Landers Level                           COMMENT
4-Character Station Name: 7544                              COMMENT
6-Character Antenna Code: ASHL12                            COMMENT
Vertical Measurement Point: BBE                             COMMENT
Vertical Offset to Rinex Ref. Point: 0.0595                 COMMENT
Radial Measurement Point: EGP                               COMMENT
Radial Offset to Rinex Ref. Point: 0.1424                   COMMENT
Antenna Height from Field Measurement: 1.3450 m             COMMENT
Additional Antenna Identification Info.:                    COMMENT
Original Ashtech L1/L2                                      COMMENT
Revised Rinex header created by UCSD GPS archive for        COMMENT
SCEC DC on 17-Mar-2000 (2000.077) 18:21:21 GMT              COMMENT
For assistance contact dagnew@ucsd.edu or hjohnson@ucsd.edu COMMENT
                                                            COMMENT
7544 70544_1968_SAN_BER._CO.                                MARKER NAME
                                                            MARKER NUMBER
MHM ASHM12                                                  OBSERVER / AGENCY
225 ASHTECH LM-XII3 6G                                      REC # / TYPE / VERS
733 ASHTECH GEODETIC L                                      ANT # / TYPE
 -2351837.4400 -4720166.3000  3577163.9400                  APPROX POSITION XYZ
        1.2779        0.0000        0.0000                  ANTENNA: DELTA H/E/N
     1     1     0                                          WAVELENGTH FACT L1/2
     5    C1    L1    L2    P1    P2                        # / TYPES OF OBSERV
     5                                                      INTERVAL
  1992     8     6     0    53   35.000000                  TIME OF FIRST OBS
  1992     8     6     2     2   35.000000                  TIME OF LAST OBS
                                                            END OF HEADER
 92  8  6  0 53 35.0000000  0  5 21  3 26 28 17
  32352715.191    -1399792.95816 -13754016.78718  22459584.103    22459583.114
  30823534.331     -111805.15217    -87120.85219  20930403.153    20930402.224
  32702773.521     5270934.37417   4107221.44218  22809643.692    22809641.564
  33678680.055    16775200.17316  13262666.31016  23785549.147    23785546.479
  30485891.187      -27915.16619    -21752.17919  20592761.178    20592758.690
 92  8  6  0 53 40.0000000  0  5 21  3 26 28 17
  32350641.077    -1410690.603 6 -13762508.453 8  22457510.589    22457509.120
  30825500.460     -101465.723 8    -79064.172 9  20932370.841    20932369.642
  32704668.899     5280892.072 7   4114980.692 8  22811538.740    22811536.192
  33675659.196    16759331.225 6  13250300.893 7  23782529.338    23782527.479
  30486390.461      -25289.999 9    -19706.616 9  20593260.632    20593258.264
 92  8  6  0 53 45.0000000  0  5 21  3 26 28 17
  32348569.931    -1421579.190 6 -13770993.057 8  22455438.244    22455437.074
  30827470.486      -91108.370 7    -70993.518 9  20934341.497    20934340.358
  32706569.433     5290866.022 7   4122752.599 8  22813436.277    22813433.549
  33672642.385    16743469.557 6  13237941.162 7  23779510.757    23779509.138
  30486893.543      -22655.215 9    -17653.518 9  20593762.275    20593759.637
 92  8  6  0 53 50.0000000  0  5 21  3 26 28 17
  32346499.834    -1432458.474 6 -13779470.414 8  22453367.997    22453366.738
  30829446.448      -80733.166 7    -62908.938 9  20936316.110    20936314.941
  32708468.948     5300856.362 7   4130537.274 8  22815337.620    22815334.712
  33669624.704    16727615.529 6  13225587.387 7  23776493.406    23776491.727
  30487397.644      -20011.043 9    -15593.124 9  20594265.447    20594262.629
 92  8  6  0 53 55.0000000  0  5 21  3 26 28 17
  32344432.735    -1443328.588 6 -13787940.628 8  22451299.489    22451298.230
  30831421.481      -70340.352 8    -54810.649 9  20938293.661    20938292.971
  32710369.123     5310862.814 7   4138334.515 8  22817241.362    22817239.054
  33666612.059    16711768.821 6  13213239.316 7  23773478.184    23773476.115
  30487900.875      -17358.033 9    -13525.841 9  20594770.417    20594767.539
 92  8  6  0 54  0.0000000  0  5 21  3 26 28 17
  32342361.049    -1454189.002 6 -13796403.277 8  22449232.570    22449231.610
  30833405.208      -59929.680 8    -46698.442 9  20940274.779    20940273.760
  32712276.612     5320885.800 7   4146144.623 8  22819148.972    22819146.693
  33663595.668    16695929.637 6  13200897.091 7  23770463.710    23770461.342
  30488408.934      -14695.982 9    -11451.516 9  20595277.006    20595274.098
 92  8  6  0 54  5.0000000  0  5 21  3 26 28 17
  22447130.875       54357.85716     42355.97418  22447154.408    22447153.389
  20942252.450      -51694.04117    -40280.46919  20942272.387    20942271.427
  22821050.765      -49780.22417    -38790.59718  22821071.751    22821069.262
  23767411.433       79180.73116     61699.50917  23767431.580    23767429.511
  20595767.197      -13147.23419    -10244.39019  20595788.662    20595785.874
 92  8  6  0 54 10.0000000  0  5 21  3 26 28 17
  22445071.960       43517.003 6     33908.558 8  22445091.087    22445090.038
  20944240.404      -41247.532 8    -32140.337 9  20944260.340    20944259.081
  22822963.381      -39724.132 7    -30954.680 8  22822985.776    22822982.988
  23764402.506       63356.815 6     49369.202 7  23764420.194    23764418.276
  20596274.356      -10467.386 9     -8156.198 9  20596298.609    20596295.821
 92  8  6  0 54 15.0000000  0  5 21  3 26 28 17
  22443007.499       32685.712 6     25468.594 8  22443030.104    22443029.354
  20946230.906      -30783.469 8    -23986.521 9  20946251.592    20946250.812
  22824879.025      -29651.978 7    -23106.258 8  22824902.229    22824899.711
  23761391.961       47540.122 6     37044.512 7  23761411.357    23761408.599
  20596787.811       -7779.073 9     -6061.409 9  20596809.995    20596807.267
 92  8  6  0 54 20.0000000  0  5 21  3 26 28 17
  22440952.182       21864.010 6     17036.103 8  22440970.799    22440970.020
  20948224.496      -20302.012 8    -15819.157 9  20948246.381    20948244.822
  22826801.024      -19563.942 7    -15245.453 8  22826821.920    22826819.312
  23758381.835       31730.643 6     24725.449 7  23758402.640    23758399.582
  20597300.935       -5082.318 9     -3960.044 9  20597323.270    20597320.452
 92  8  6  0 54 25.0000000  0  5 21  3 26 28 17
  22438894.467       11052.270 6      8611.370 8  22438913.324    22438912.484
  20950222.493       -9803.075 8     -7638.173 9  20950243.898    20950242.759
  22828725.782       -9460.017 7     -7372.273 8  22828744.729    22828742.331
  23755377.374       15928.636 6     12412.195 7  23755395.782    23755392.694
  20597818.617       -2376.693 9     -1851.763 9  20597838.073    20597835.405
 92  8  6  0 54 30.0000000  0  5 21  3 26 28 17
  22436835.492         251.096 7       194.881 8  22436858.036    22436857.017
  20952225.136         713.937 8       556.903 9  20952245.432    20952244.233
  22830648.381         660.202 7       513.611 8  22830670.326    22830668.197
  23752371.925         134.833 6       105.346 7  23752389.673    23752386.375
  20598334.770         338.373 9       263.873 9  20598354.646    20598351.828
 92  8  6  0 54 35.0000000  0  6 21  3 26 28 17 23
  22434785.211      -10540.537 6     -8214.181 8  22434804.698    22434803.649
  20954229.429       11247.994 8      8765.251 9  20954249.965    20954248.466
  22832579.104       10795.683 7      8411.388 8  22832599.400    22832597.122
  23749363.268      -15651.522 6    -12195.711 7  23749385.962    23749383.354
  20598853.051        3061.872 9      2386.082 9  20598872.897    20598870.259
  20539881.656     8733447.00319
 92  8  6  0 54 40.0000000  0  6 21  3 26 28 17 23
  22432729.834      -21322.742 6    -16615.887 8  22432752.708    22432751.959
  20956232.522       21799.251 8     16987.012 9  20956257.825    20956256.386
  22834511.327       20946.247 7     16320.918 8  22834530.873    22834528.325
  23746366.363      -31430.260 6    -24490.818 7  23746383.721    23746381.292
  20599372.111        5793.702 9      4514.775 9  20599392.947    20599390.129
  20539854.345     8733306.043 9
 92  8  6  0 54 45.0000000  0  6 21  3 26 28 17 23
  22430682.342      -32095.209 6    -25010.014 8  22430702.788    22430702.338
  20958246.918       32367.732 8     25222.191 9  20958268.952    20958267.543
  22836444.508       31112.118 7     24242.369 8  22836465.224    22836462.616
  23743362.442      -47201.098 6    -36779.781 7  23743382.079    23743380.130
  20599893.720        8533.975 9      6650.052 9  20599914.406    20599911.678
  20539828.023     3732770.24018   3312280.50819  20539850.837    20539849.008
 92  8  6  0 54 50.0000000  0  6 21  3 26 28 17 23
  22428631.761      -42857.329 6    -33396.072 8  22428654.815    22428653.886
  20960258.825       42953.942 8     33471.177 9  20960283.438    20960282.209
  22838379.369       41293.743 7     32176.092 8  22838403.172    22838400.594
  23740366.077      -62963.616 6    -49062.255 7  23740382.985    23740380.497
  20600416.558       11283.198 9      8792.302 9  20600437.544    20600434.756
  20539812.704     3732654.616 8   3312190.413 9  20539829.012    20539826.854
 92  8  6  0 54 55.0000000  0  6 21  3 26 28 17 23
  22426587.986      -53609.527 7    -41774.404 8  22426608.702    22426607.832
  20962279.726       53557.438 8     41733.639 9  20962301.131    20962299.932
  22840319.086       51490.950 7     40121.967 8  22840343.579    22840340.581
  23737363.415      -78718.240 6    -61338.568 7  23737384.431    23737382.212
  20600940.356       14041.240 9     10941.430 9  20600962.271    20600959.423
  20539789.500     3732551.374 8   3312109.968 9  20539809.016    20539806.828
 92  8  6  0 55  0.0000000  0  6 21  3 26 28 17 23
  22424543.312      -64351.807 6    -50145.005 8  22424564.297    22424563.698
  20964300.657       64178.414 8     50009.720 9  20964322.362    20964321.043
  22842267.497       61704.086 7     48080.251 8  22842286.564    22842284.106
  23734369.508      -94464.812 6    -73608.621 7  23734387.735    23734385.217
  20601467.721       16808.337 9     13097.609 9  20601488.976    20601486.038
  20539771.602     3732460.640 9   3312039.268 9  20539791.838    20539789.560
 92  8  6  0 55  5.0000000  0  6 21  3 26 28 17 23
  22422502.055      -75084.802 6    -58508.376 8  22422522.021    22422521.751
  20966325.155       74816.207 8     58298.906 9  20966346.500    20966345.391
  22844215.519       71932.268 7     56050.259 8  22844233.326    22844230.718
  23731373.772     -110203.928 6    -85872.865 7  23731392.959    23731390.590
  20601998.203       19583.591 9     15260.149 9  20602017.060    20602014.092
  20539757.452     3732381.780 8   3311977.820 9  20539776.848    20539774.810
 92  8  6  0 55 10.0000000  0  6 21  3 26 28 17 23
  22420461.038      -85808.291 6    -66864.332 8  22420481.544    22420481.094
  20968355.170       85470.854 8     66601.229 9  20968374.117    20968372.798
  22846166.058       82175.308 7     64031.841 8  22846182.517    22846179.909
  23728379.505     -125935.647 6    -98131.345 7  23728399.021    23728397.132
  20602527.367       22367.026 9     17429.054 9  20602546.794    20602543.796
  20539740.094     3732314.975 9   3311925.765 9  20539764.227    20539761.949
 92  8  6  0 55 15.0000000  0  6 21  3 26 28 17 23
  22418424.008      -96521.635 6    -75212.390 8  22418443.045    22418441.996
  20970383.626       96142.806 8     74917.035 9  20970405.031    20970403.442
  22848114.859       92433.337 7     72025.110 8  22848134.136    22848131.887
  23725387.366     -141659.408 6   -110383.603 7  23725406.943    23725405.414
  20603058.090       25158.840 9     19604.496 9  20603077.996    20603075.118
  20539732.749     3732260.780 8   3311883.538 9  20539753.644    20539751.546
 92  8  6  0 55 20.0000000  0  6 21  3 26 28 17 23
  22416384.670     -107224.728 6    -83552.455 8  22416405.775    22416405.355
  20972417.238      106831.974 8     83246.252 9  20972439.212    20972437.564
  22850066.988      102706.333 7     80030.041 8  22850089.202    22850086.624
  23722397.926     -157375.035 6   -122629.553 7  23722416.243    23722413.725
  20603591.570       27959.160 9     21786.564 9  20603610.757    20603607.969
  20539728.432     3732219.385 8   3311851.283 9  20539746.030    20539743.601
 92  8  6  0 55 25.0000000  0  6 21  3 26 28 17 23
  22414351.357     -117917.853 6    -91884.758 8  22414371.414    22414370.544
  20974453.218      117538.338 8     91588.868 9  20974476.452    20974474.833
  22852021.874      112994.296 7     88046.628 8  22852047.057    22852044.599
  23719410.524     -173082.803 6   -134869.370 7  23719428.062    23719424.254
  20604125.531       30767.932 9     23975.213 9  20604145.257    20604142.469
  20539720.248     3732190.629 9   3311828.875 9  20539740.394    20539738.235
 92  8  6  0 55 30.0000000  0  6 21  3 26 28 17 23
  22412319.604     -128601.305 7   -100209.517 8  22412338.221    22412336.812
  20976496.394      128261.644 8     99944.685 9  20976517.259    20976515.461
  22853987.793      123296.866 7     96074.606 8  22854007.610    22854004.972
  23716421.143     -188783.226 6   -147103.464 7  23716439.760    23716436.762
  20604661.140       33584.664 9     26170.073 9  20604681.406    20604678.498
  20539717.789     3732174.019 9   3311815.933 9  20539737.306    20539734.877
 92  8  6  0 55 35.0000000  0  6 21  3 26 28 17 23
  22410289.829     -139275.093 6   -108526.750 8  22410307.427    22410306.348
  20978536.332      139001.706 8    108313.560 9  20978560.735    20978559.386
  22855953.203      133613.867 7    104113.828 8  22855970.621    22855968.402
  23713431.823     -204476.468 6   -159331.955 7  23713453.138    23713451.579
  20605200.437       36409.093 9     28370.927 9  20605218.724    20605215.816
  20539716.230     3732169.484 9   3311812.405 9  20539736.256    20539734.308
 92  8  6  0 55 40.0000000  0  6 21  3 26 28 17 23
  22408258.555     -149939.040 6   -116836.315 8  22408278.192    22408276.573
  20980586.792      149758.780 8    116695.692 9  20980607.688    20980606.308
  22857919.691      143945.625 7    112164.542 8  22857937.199    22857934.171
  23710448.078     -220162.131 6   -171554.541 7  23710467.955    23710466.036
  20605740.123       39241.503 9     30578.001 9  20605757.631    20605754.783
  20539715.631     3732177.402 9   3311818.571 9  20539738.025    20539735.807
 92  8  6  0 55 45.0000000  0  6 21  3 26 28 17 23
  22406229.800     -160593.226 7   -125138.268 8  22406250.336    22406249.556
  20982642.469      160533.014 8    125091.192 9  20982658.328    20982656.949
  22859883.932      154292.315 7    120226.885 8  22859906.026    22859903.358
  23707469.101     -235839.996 6   -183771.049 7  23707484.870    23707482.591
  20606279.030       42081.877 9     32791.281 9  20606297.947    20606295.339
  20539718.809     3732197.898 8   3311834.548 9  20539741.953    20539739.494
 92  8  6  0 55 50.0000000  0  6 21  3 26 28 17 23
  22404203.353     -171237.709 7   -133432.671 8  22404225.298    22404223.799
  20984693.109      171324.547 8    133500.197 9  20984711.666    20984710.377
  22861857.076      164654.054 7    128300.967 8  22861877.701    22861874.823
  23704486.016     -251509.950 6   -195981.400 7  23704502.924    23704500.406
  20606819.975       44930.248 9     35010.786 9  20606839.972    20606837.393
  20539728.552     3732231.294 9   3311860.569 9  20539748.368    20539745.850
 92  8  6  0 55 55.0000000  0  6 21  3 26 28 17 23
  22402181.013     -181873.312 7   -141720.144 8  22402201.579    22402200.409
  20986748.247      182132.621 7    141922.054 9  20986768.243    20986767.283
  22863832.138      175030.051 7    136386.158 8  22863852.075    22863849.496
  23701502.841     -267172.686 6   -208186.125 6  23701522.897    23701519.539
  20607364.518       47785.863 9     37235.944 9  20607383.525    20607380.737
  20539739.374     3732277.084 8   3311896.262 9  20539756.972    20539754.454
 92  8  6  0 56  0.0000000  0  6 21  3 26 28 17 23
  22400158.163     -192499.991 7   -150000.666 8  22400179.089    22400177.770
  20988807.971      192957.165 8    150356.764 9  20988828.356    20988826.738
  22865808.850      185420.345 7    144482.485 8  22865829.056    22865827.047
  23698526.382     -282828.210 6   -220385.234 7  23698543.320    23698541.041
  20607909.241       50648.649 9     39466.686 9  20607928.278    20607925.610
  20539746.749     3732335.411 8   3311941.711 9  20539768.184    20539765.606
 92  8  6  0 56  5.0000000  0  6 21  3 26 28 17 23
  22398138.791     -203117.174 7   -158273.790 8  22398158.577    22398157.558
  20990871.412      203798.616 7    158804.639 9  20990891.078    20990890.149
  22867786.761      195825.458 7    152590.362 8  22867809.275    22867806.637
  23695548.603     -298475.701 6   -232578.070 7  23695565.691    23695563.443
  20608456.422       53519.109 9     41703.406 9  20608474.350    20608471.892
  20539759.940     3732406.853 9   3311997.382 9  20539781.795    20539779.307
 92  8  6  0 56 10.0000000  0  6 21  3 26 28 17 23
  22396119.599     -213724.446 7   -166539.191 8  22396140.045    22396139.205
  20992937.432      214657.448 8    167266.066 9  20992957.578    20992956.649
  22869770.607      206245.804 7    160710.104 7  22869792.252    22869789.644
  23692572.084     -314114.612 6   -244764.225 7  23692589.532    23692586.953
  20609005.013       56397.575 9     43946.366 9  20609022.191    20609019.583
  20539775.559     3732491.888 9   3312063.643 9  20539797.864    20539795.495
 92  8  6  0 56 15.0000000  0  6 21  3 26 28 17 23
  22394102.386     -224322.533 7   -174797.438 8  22394123.491    22394122.382
  20995005.910      225532.978 8    175740.500 9  20995027.075    20995026.236
  22871759.131      216680.571 6    168841.089 8  22871777.868    22871775.769
  23689597.543     -329745.860 6   -256944.421 7  23689615.171    23689612.173
  20609551.774       59283.764 9     46195.347 9  20609571.501    20609568.952
  20539796.005     3732589.658 9   3312139.828 9  20539816.421    20539814.053
 92  8  6  0 56 20.0000000  0  6 21  3 26 28 17 23
  22392089.459     -234911.609 7   -183048.653 8  22392108.526    22392107.447
  20997080.474      236425.335 8    184228.052 9  20997099.810    20997098.731
  22873746.185      227129.761 7    176983.311 7  22873765.881    22873763.573
  23686625.011     -345369.381 6   -269118.597 7  23686642.728    23686639.251
  20610101.923       62177.848 9     48450.480 9  20610122.249    20610119.581
  20539815.462     3732700.001 8   3312225.807 9  20539837.586    20539835.038
 92  8  6  0 56 25.0000000  0  6 21  3 26 28 17 23
  22390072.605     -245492.071 7   -191293.163 8  22390094.970    22390093.921
  20999155.817      247333.948 7    192728.261 9  20999175.843    20999174.554
  22875732.730      237592.717 7    185136.260 8  22875757.133    22875754.854
  23683654.727     -360985.700 6   -281287.141 7  23683670.196    23683668.757
  20610651.683       65079.527 9     50711.527 9  20610674.377    20610671.949
  20539843.132     3732822.564 9   3312321.311 9  20539861.000    20539858.452
 92  8  6  0 56 30.0000000  0  6 21  3 26 28 17 23
  22388060.039     -256063.853 7   -199530.907 8  22388083.572    22388082.193
  21001232.479      258258.837 8    201241.156 9  21001254.844    21001253.854
  22877730.966      248069.337 7    193299.862 8  22877750.933    22877748.384
  23680682.195     -376594.698 6   -293449.987 7  23680700.272    23680698.204
  20611205.909       67988.960 9     52978.622 9  20611228.034    20611225.515
  20539864.778     3732957.371 9   3312426.353 9  20539886.482    20539883.934
 92  8  6  0 56 35.0000000  0  6 21  3 26 28 17 23
  22386054.007     -266626.871 7   -207761.828 8  22386073.284    22386071.545
  21003316.726      269200.379 8    209767.037 9  21003336.633    21003335.643
  22879725.336      258559.796 7    201474.239 7  22879747.101    22879743.983
  23677711.671     -392196.109 6   -305606.920 7  23677731.068    23677729.119
  20611763.643       70906.519 9     55252.039 9  20611783.279    20611780.581
  20539891.219     3733104.862 9   3312541.287 9  20539914.513    20539911.965
 92  8  6  0 56 40.0000000  0  6 21  3 26 28 17 23
  22384041.650     -277181.516 7   -215986.218 8  22384065.004    22384063.655
  21005403.162      280158.108 8    218305.522 9  21005421.839    21005420.850
  22881729.388      269063.652 7    209659.049 7  22881746.027    22881743.329
  23674743.816     -407790.267 6   -317758.209 7  23674763.572    23674761.504
  20612320.447       73831.942 9     57531.590 9  20612339.664    20612337.236
  20539923.207     3733264.603 9   3312665.759 9  20539944.612    20539942.424
 92  8  6  0 56 45.0000000  0  6 21  3 26 28 17 23
  22382033.521     -287728.289 7   -224204.484 8  22382057.894    22382056.994
  21007486.750      291131.589 8    226856.275 9  21007509.953    21007508.904
  22883724.837      279580.265 7    217853.815 7  22883747.261    22883744.353
  23671779.138     -423377.585 6   -329904.150 6  23671797.306    23671795.117
  20612877.792       76764.677 9     59816.838 9  20612897.878    20612895.449
  20539955.824     3733436.079 9   3312799.376 9  20539977.559    20539975.041
 92  8  6  0 56 50.0000000  0  6 21  3 26 28 17 23
  22380032.556     -298266.813 7   -232416.312 8  22380052.552    22380051.413
  21009580.980      302121.305 8    235419.688 9  21009601.336    21009600.316
  22885731.648      290110.236 7    226058.982 7  22885751.284    22885748.046
  23668814.701     -438957.716 6   -342044.519 6  23668832.478    23668829.900
  20613436.455       79705.091 9     62108.069 9  20613457.560    20613454.832
  20539991.949     3733619.626 9   3312942.399 9  20540012.455    20540010.117
 92  8  6  0 56 55.0000000  0  6 21  3 26 28 17 23
  22378028.443     -308797.468 7   -240622.002 8  22378048.559    22378047.420
  21011674.460      313126.749 8    243995.356 9  21011695.446    21011694.636
  22887733.842      300653.058 7    234274.166 7  22887757.105    22887754.467
  23665849.184     -454531.277 6   -354179.743 7  23665869.509    23665866.931
  20613999.225       82652.760 9     64404.980 9  20614018.502    20614016.014
  20540028.014     3733814.703 9   3313094.409 9  20540049.570    20540047.291
 92  8  6  0 57  0.0000000  0  6 21  3 26 28 17 23
  22376024.660     -319320.112 7   -248821.472 8  22376045.946    22376044.627
  21013772.648      324147.905 8    252583.267 9  21013792.884    21013791.655
  22889741.372      311208.767 7    242499.396 7  22889766.045    22889762.627
  23662890.202     -470098.274 6   -366309.858 7  23662906.781    23662905.012
  20614561.036       85607.867 9     66707.633 9  20614580.673    20614578.214
  20540065.489     3734021.327 9   3313255.413 9  20540088.842    20540086.504
 92  8  6  0 57  5.0000000  0  6 21  3 26 28 17 23
  22374024.085     -329834.103 7   -257014.181 8  22374045.191    22374043.842
  21015872.334      335185.556 8    261184.025 9  21015893.200    21015892.241
  22891754.058      321777.997 7    250735.152 7  22891777.142    22891774.115
  23659926.784     -485658.211 6   -378434.478 6  23659945.461    23659944.142
  20615122.817       88571.087 9     69016.636 9  20615144.702    20615142.034
  20540108.749     3734240.039 9   3313425.828 9  20540130.484    20540127.965
 92  8  6  0 57 10.0000000  0  6 21  3 26 28 17 23
  22372027.378     -340339.888 7   -265200.509 8  22372046.085    22372045.365
  21017972.380      346239.210 8    269797.263 9  21017996.634    21017995.345
  22893766.355      332360.257 7    258981.060 7  22893791.238    22893787.551
  23656968.072     -501211.514 6   -390553.930 6  23656986.179    23656983.781
  20615687.806       91542.030 9     71331.655 9  20615710.081    20615707.443
  20540154.617     3734470.509 9   3313605.425 9  20540174.403    20540171.765
 92  8  6  0 57 15.0000000  0  6 21  3 26 28 17 23
  22370025.334     -350837.416 7   -273380.394 8  22370048.688    22370046.889
  21020081.630      357308.905 8    278422.992 9  21020102.946    21020101.926
  22895786.807      342955.510 7    267237.102 7  22895807.342    22895803.625
  23654010.229     -516757.906 6   -402668.000 7  23654028.697    23654025.879
  20616256.453       94520.662 9     73652.664 9  20616277.048    20616274.500
  20540198.746     3734712.879 9   3313794.280 9  20540220.781    20540217.933
 92  8  6  0 57 20.0000000  0  6 21  3 26 28 17 23
  22368028.596     -361327.273 7   -281554.305 8  22368052.340    22368051.140
  21022192.739      368393.942 7    287060.673 9  21022212.435    21022211.506
  22897805.549      353562.858 7    275502.572 7  22897825.935    22897822.128
  23651047.471     -532298.081 6   -414777.212 7  23651071.064    23651068.156
  20616825.669       97506.078 9     75978.959 9  20616845.035    20616842.337
  20540246.593     3734966.470 9   3313991.891 9  20540268.718    20540266.170
 92  8  6  0 57 25.0000000  0  6 21  3 26 28 17 23
  22366035.396     -371809.007 7   -289721.887 8  22366058.090    22366056.261
  21024303.068      379494.461 7    295710.423 9  21024324.833    21024323.724
  22899823.782      364182.352 7    283777.492 7  22899846.446    22899843.268
  23648091.277     -547831.811 6   -426881.410 7  23648114.391    23648112.772
  20617392.876      100498.504 9     78310.726 9  20617414.671    20617411.643
  20540296.059     3735231.566 9   3314198.457 9  20540318.873    20540316.715
 92  8  6  0 57 30.0000000  0  6 21  3 26 28 17 23
  22364044.144     -382282.382 7   -297882.952 8  22364064.890    22364063.271
  21026416.874      390610.753 7    304372.470 9  21026440.258    21026439.449
  22901845.312      374814.342 7    292062.162 7  22901869.745    22901866.957
  23645139.341     -563358.909 6   -438980.446 7  23645160.146    23645157.748
  20617964.760      103498.273 9     80648.202 9  20617985.476    20617982.658
  20540354.848     3735508.345 9   3314414.131 9  20540371.876    20540369.298
 92  8  6  0 57 35.0000000  0  6 21  3 26 28 17 23
  22362051.694     -392747.639 7   -306037.688 8  22362073.309    22362071.900
  21028535.478      401742.596 8    313046.626 9  21028558.532    21028557.573
  22903873.708      385458.891 7    300356.597 7  22903895.173    22903892.265
  23642186.025     -578879.508 6   -451074.415 6  23642206.411    23642204.253
  20618534.606      106505.265 9     82991.315 9  20618557.749    20618554.812
  20540407.102     3735796.533 9   3314638.695 9  20540426.649    20540424.250
 92  8  6  0 57 40.0000000  0  6 21  3 26 28 17 23
  22360061.492     -403205.447 7   -314186.628 8  22360083.556    22360081.668
  21030658.368      412889.617 8    321732.608 9  21030680.103    21030678.604
  22905903.483      396115.693 7    308660.601 7  22905923.629    22905920.511
  23639235.108     -594394.132 6   -463163.726 6  23639254.025    23639251.537
  20619111.136      109519.166 9     85339.811 9  20619131.073    20619128.434
  20540461.125     3736095.387 9   3314871.571 9  20540483.489    20540481.181
 92  8  6  0 57 45.0000000  0  6 21  3 26 28 17 23
  22358077.105     -413655.606 7   -322329.593 8  22358094.583    22358093.324
  21032782.218      424052.010 8    330430.573 9  21032803.833    21032802.754
  22907932.119      406784.974 7    316974.310 7  22907953.494    22907951.006
  23636284.011     -609902.459 6   -475248.133 6  23636302.928    23636300.979
  20619687.907      112540.247 9     87693.898 9  20619706.105    20619703.406
  20540521.653     3736405.051 8   3315112.859 9  20540542.338    20540540.060
 92  8  6  0 57 50.0000000  0  6 21  3 26 28 17 23
  22356090.021     -424097.831 6   -330466.377 8  22356107.649    22356106.390
  21034909.995      435229.994 8    339140.676 9  21034931.190    21034930.021
  22909967.799      417466.696 7    325297.733 7  22909986.297    22909983.269
  23633335.522     -625404.284 5   -487327.481 6  23633353.120    23633350.362
  20620261.200      115568.735 9     90053.761 9  20620282.096    20620279.817
  20540583.770     3736725.555 8   3315362.618 9  20540603.376    20540601.158
 92  8  6  0 57 55.0000000  0  6 21  3 26 28 17 23
  22354102.247     -434532.379 6   -338597.198 8  22354122.033    22354120.954
  21037038.761      446423.459 8    347862.858 9  21037061.066    21037059.687
  22912002.011      428160.812 7    333630.805 7  22912021.198    22912018.799
  23630383.826     -640899.717 5   -499401.835 6  23630404.541    23630401.693
  20620838.151      118604.571 9     92419.348 9  20620859.826    20620857.457
  20540646.936     3737056.838 8   3315620.760 9  20540666.542    20540664.174
 92  8  6  0 58  0.0000000  0  6 21  3 26 28 17 23
  22352118.041     -444959.448 6   -346722.169 8  22352137.887    22352137.077
  21039173.493      457632.075 7    356596.841 9  21039194.209    21039192.830
  22914037.332      438867.034 7    341973.314 7  22914058.407    22914055.589
  23627435.367     -656389.078 5   -511471.469 6  23627457.462    23627453.834
  20621419.658      121647.440 9     94790.406 9  20621439.115    20621436.537
  20540710.822     3737398.451 8   3315886.953 9  20540731.627    20540729.169
 92  8  6  0 58  5.0000000  0  6 21  3 26 28 17 23
  22350133.115     -455378.990 7   -354841.305 8  22350155.030    22350154.040
  21041307.866      468855.829 8    365342.621 9  21041329.810    21041328.701
  22916080.747      449585.290 6    350325.199 7  22916098.405    22916095.707
  23624489.216     -671872.250 6   -523536.265 6  23624510.772    23624508.013
  20621999.847      124697.220 9     97166.865 9  20622019.093    20622016.545
  20540776.356     3737750.419 8   3316161.208 9  20540798.421    20540796.143
 92  8  6  0 58 10.0000000  0  6 21  3 26 28 17 23
  22348154.155     -465790.724 7   -362954.340 8  22348174.001    22348172.472
  21043449.883      480094.844 8    374100.290 9  21043468.710    21043467.121
  22918120.086      460315.655 6    358686.518 7  22918139.812    22918137.623
  23621544.565     -687349.166 6   -535596.185 6  23621565.850    23621562.942
  20622579.196      127754.098 9     99548.846 9  20622600.990    20622598.382
  20540848.606     3738112.839 8   3316443.609 9  20540867.343    20540865.095
 92  8  6  0 58 15.0000000  0  6 21  3 26 28 17 23
  22346176.364     -476194.297 7   -371061.011 8  22346194.172    22346192.643
  21045592.529      491349.211 7    382869.919 9  21045610.337    21045609.108
  22920160.983      471058.333 6    367057.436 7  22920184.187    22920181.758
  23618598.804     -702819.715 6   -547651.141 6  23618621.918    23618619.040
  20623163.041      130818.190 9    101936.443 9  20623184.147    20623181.269
  20540918.518     3738485.648 8   3316734.111 9  20540938.124    20540936.086
 92  8  6  0 58 20.0000000  0  6 21  3 26 28 17 23
  22344195.575     -486589.532 7   -379161.187 8  22344216.021    22344214.132
  21047733.048      502619.007 8    391651.574 9  21047754.753    21047753.643
  22922207.756      481813.502 6    375438.087 7  22922231.050    22922228.651
  23615660.209     -718283.809 6   -559701.088 6  23615678.856    23615676.577
  20623750.095      133889.634 9    104329.772 9  20623768.622    20623765.534
  20540989.869     3738868.672 8   3317032.573 9  20541011.004    20541008.786
 92  8  6  0 58 25.0000000  0  6 21  3 26 28 17 23
  22342219.313     -496976.917 7   -387255.250 8  22342239.340    22342237.691
  21049883.579      513903.973 7    400445.042 9  21049902.526    21049900.667
  22924256.777      492580.816 6    383828.195 7  22924279.951    22924277.223
  23612722.123     -733741.780 6   -571746.248 6  23612737.772    23612734.414
  20624334.780      136968.106 9    106728.584 9  20624354.207    20624351.838
  20541064.157     3739261.325 9   3317338.534 9  20541085.622    20541083.464
 92  8  6  0 58 30.0000000  0  6 21  3 26 28 17 23
  22340243.711     -507356.497 7   -395343.240 8  22340264.097    22340263.078
  21052034.080      525203.894 8    409250.182 9  21052052.577    21052051.318
  22926310.176      503360.270 6    392227.765 7  22926331.101    22926328.523
  23609778.041     -749193.740 6   -583786.743 6  23609797.257    23609794.499
  20624919.016      140053.648 9    109132.908 9  20624941.470    20624938.802
  20541142.853     3739663.265 8   3317651.735 9  20541162.189    20541159.821
 92  8  6  0 58 35.0000000  0  6 21  3 26 28 17 23
  22338272.006     -517728.568 7   -403425.367 8  22338290.473    22338289.184
  21054182.992      536518.850 8    418067.024 9  21054205.927    21054204.577
  22928364.174      514151.703 6    400636.671 7  22928385.099    22928381.532
  23606839.055     -764639.949 6   -595822.731 6  23606857.912    23606855.514
  20625509.907      143146.238 9    111542.715 9  20625529.963    20625527.175
  20541219.690     3740074.078 8   3317971.849 9  20541240.465    20541238.127
 92  8  6  0 58 40.0000000  0  6 21  3 26 28 17 23
  22336300.001     -528093.155 7   -411501.663 8  22336318.528    22336316.910
  21056338.980      547848.517 7    426895.334 9  21056361.794    21056360.115
  22930417.992      524955.126 6    409054.922 7  22930440.686    22930438.108
  23603898.181     -780080.378 6   -607854.225 6  23603919.616    23603917.188
  20626099.748      146245.688 9    113957.866 9  20626119.774    20626116.956
  20541296.916     3740493.746 8   3318298.865 9  20541320.240    20541317.991
 92  8  6  0 58 45.0000000  0  6 21  3 26 28 17 23
  22334329.795     -538450.137 7   -419572.031 8  22334347.363    22334345.894
  21058498.865      559193.164 8    435735.315 9  21058520.480    21058519.250
  22932480.174      535770.781 6    417482.697 7  22932499.241    22932496.633
  23600961.444     -795515.080 6   -619881.257 6  23600982.700    23600979.222
  20626691.419      149351.871 9    116378.268 9  20626711.115    20626708.327
  20541378.370     3740922.293 8   3318632.794 9  20541401.933    20541399.565
 92  8  6  0 58 50.0000000  0  6 21  3 26 28 17 23
  22332359.349     -548799.457 7   -427636.432 8  22332378.056    22332376.108
  21060660.098      570552.910 8    444587.060 9  21060682.163    21060680.784
  22934541.337      546599.093 6    425920.350 7  22934559.745    22934556.477
  23598024.827     -810943.849 6   -631903.667 6  23598046.832    23598043.744
  20627282.879      152464.967 9    118804.057 9  20627303.475    20627300.747
  20541467.108     3741359.907 8   3318973.793 9  20541485.006    20541482.817
 92  8  6  0 58 55.0000000  0  6 21  3 26 28 17 23
  22330390.223     -559149.883 7   -435701.697 8  22330408.360    22330406.441
  21062825.949      581919.054 8    453443.792 9  21062845.196    21062843.757
  22936598.813      557431.469 6    434361.145 7  22936621.058    22936617.250
  23595089.679     -826375.430 6   -643928.276 6  23595109.645    23595107.427
  20627875.629      155576.241 9    121228.427 9  20627895.355    20627892.777
  20541548.832     3741797.937 8   3319315.118 9  20541568.618    20541566.130
 92  8  6  0 59  0.0000000  0  6 21  3 26 28 17 23
  22328418.637     -569495.604 7   -443763.294 8  22328439.533    22328437.944
  21064988.772      593297.459 8    462310.073 9  21065010.447    21065009.278
  22938663.634      568273.946 6    442809.838 7  22938683.630    22938680.722
  23592154.441     -841803.989 6   -655950.510 6  23592173.898    23592171.709
  20628470.537      158691.481 9    123655.886 9  20628488.045    20628485.796
  20541632.294     3742242.217 8   3319661.308 9  20541652.980    20541650.821
 92  8  6  0 59  5.0000000  0  6 21  3 26 28 17 23
  22326452.778     -579827.831 7   -451814.371 8  22326473.254    22326471.755
  21067158.969      604696.855 8    471192.720 9  21067179.865    21067178.366
  22940730.613      579135.444 6    451273.339 7  22940750.369    22940747.761
  23589219.893     -857220.763 6   -667963.583 6  23589240.339    23589237.371
  20629063.946      161819.479 9    126093.283 9  20629083.523    20629080.854
  20541720.223     3742701.484 8   3320019.177 9  20541740.639    20541738.360
 92  8  6  0 59 10.0000000  0  6 21  3 26 28 17 23
  22324488.838     -590153.993 7   -459860.727 8  22324508.384    22324506.496
  21069329.227      616109.779 8    480085.899 9  21069351.801    21069349.973
  22942797.622      590008.571 7    459745.898 7  22942819.716    22942817.108
  23586288.103     -872633.305 6   -679973.348 6  23586307.469    23586304.351
  20629657.445      164952.543 9    128534.634 9  20629679.690    20629677.172
  20541807.493     3743168.362 8   3320382.982 9  20541829.228    20541827.189
 92  8  6  0 59 15.0000000  0  6 21  3 26 28 17 23
  22322522.949     -600474.430 7   -467902.617 8  22322544.414    22322542.885
  21071504.941      627535.819 8    488989.306 9  21071525.926    21071524.697
  22944868.918      600892.775 6    468227.095 7  22944890.923    22944888.314
  23583355.533     -888041.767 6   -691979.943 6  23583375.139    23583372.261
  20630255.651      168090.207 9    130979.564 9  20630276.637    20630274.418
  20541898.570     3743642.487 8   3320752.425 9  20541919.705    20541917.157
 92  8  6  0 59 20.0000000  0  6 21  3 26 28 17 23
  22320562.966     -610784.770 7   -475936.646 8  22320582.362    22320580.863
  21073681.764      638979.507 8    497906.459 9  21073703.619    21073701.940
  22946939.884      611792.607 6    476720.472 7  22946965.277    22946962.309
  23580421.794     -903441.662 6   -703979.841 6  23580444.248    23580441.220
  20630853.887      171236.755 9    133431.422 9  20630875.382    20630872.744
  20541989.227     3744128.264 8   3321130.956 9  20542012.011    20542009.463
 92  8  6  0 59 25.0000000  0  6 21  3 26 28 17 23
  22318602.263     -621086.428 7   -483963.901 8  22318622.139    22318619.921
  21075862.424      650439.422 8    506836.264 9  21075884.249    21075882.690
  22949019.245      622706.662 6    485224.926 7  22949041.879    22949039.241
  23577496.929     -918834.429 6   -715974.205 6  23577515.396    23577512.338
  20631453.202      174390.769 9    135889.090 9  20631475.717    20631473.288
  20542085.700     3744624.553 8   3321517.675 9  20542106.626    20542104.137
 92  8  6  0 59 30.0000000  0  6 21  3 26 28 17 23
  22316642.580     -631381.915 7   -491986.358 8  22316662.666    22316661.107
  21078045.003      661913.100 8    515776.785 9  21078067.697    21078066.049
  22951100.614      633632.453 6    493738.528 7  22951120.790    22951118.661
  23574565.108     -934222.623 6   -727965.008 6  23574587.233    23574584.865
  20632052.727      177549.686 9    138350.584 9  20632076.621    20632074.132
  20542184.392     3745128.859 8   3321910.640 9  20542202.679    20542199.921
 92  8  6  0 59 35.0000000  0  6 21  3 26 28 17 23
  22314680.618     -641670.794 7   -500003.668 8  22314705.051    22314703.043
  21080231.839      673400.792 8    524728.223 9  21080253.724    21080252.615
  22953178.355      644570.652 6    502261.796 7  22953202.339    22953200.090
  23571638.984     -949605.868 6   -739951.947 6  23571659.730    23571656.702
  20632657.468      180714.006 9    140816.285 9  20632679.113    20632676.475
  20542278.526     3745641.490 8   3322310.089 9  20542300.112    20542297.473
 92  8  6  0 59 40.0000000  0  6 21  3 26 28 17 23
  22312727.200     -651954.081 7   -508016.611 8  22312748.216    22312746.507
  21082417.896      684901.704 8    533689.976 9  21082442.269    21082441.010
  22955263.292      655520.351 6    510794.029 7  22955285.866    22955282.958
  23568713.489     -964985.302 6   -751935.912 6  23568733.485    23568730.877
  20633260.621      183882.877 9    143285.533 9  20633282.266    20633279.268
  20542377.008     3746161.522 8   3322715.309 9  20542399.043    20542396.405
 92  8  6  0 59 45.0000000  0  6 21  3 26 28 17 23
  22310768.177     -662234.036 7   -516026.958 8  22310792.010    22310790.001
  21084612.916      696413.756 8    542660.394 9  21084632.912    21084631.923
  22957349.638      666479.485 6    519333.593 7  22957371.402    22957369.124
  23565788.594     -980362.681 6   -763918.284 6  23565807.481    23565804.873
  20633862.214      187054.468 9    145756.903 9  20633885.418    20633883.260
  20542479.597     3746686.876 8   3323124.680 9  20542499.054    20542496.506
 92  8  6  0 59 50.0000000  0  6 21  3 26 28 17 23
  22308816.108     -672503.772 7   -524029.338 8  22308837.393    22308835.924
  21086804.459      707943.976 8    551644.979 9  21086827.063    21086825.894
  22959438.022      677455.236 6    527886.125 7  22959459.847    22959458.378
  23562862.770     -995730.828 6   -775893.453 6  23562882.736    23562880.008
  20634468.125      190235.617 9    148235.722 9  20634490.969    20634488.481
  20542580.358     3747224.493 9   3323543.601 9  20542601.283    20542598.765
 92  8  6  0 59 55.0000000  0  6 21  3 26 28 17 23
  22306864.309     -682768.282 7   -532027.648 8  22306884.185    22306882.447
  21089002.867      719487.512 8    560639.944 9  21089023.913    21089022.504
  22961528.714      688442.389 6    536447.550 7  22961550.959    22961548.860
  23559936.675    -1011094.718 6   -787865.308 6  23559958.350    23559956.821
  20635078.323      193421.263 9    150718.043 9  20635097.329    20635094.811
  20542684.236     3747769.331 8   3323968.146 9  20542705.131    20542702.613
 92  8  6  1  0  0.0000000  0  6 21  3 26 28 17 23
  22304912.450     -693027.149 7   -540021.578 8  22304932.237    22304930.318
  21091202.085      731044.637 8    569645.486 9  21091222.950    21091221.811
  22963620.996      699441.221 6    545018.068 7  22963643.540    22963641.862
  23557014.508    -1026453.888 6   -799833.485 6  23557036.213    23557032.676
  20635683.753      196611.668 9    153204.072 9  20635704.499    20635701.561
  20542786.465     3748321.806 8   3324398.645 9  20542810.089    20542807.840
 92  8  6  1  0  5.0000000  0  6 21  3 26 28 17 23
  22302959.722     -703280.037 7   -548010.833 8  22302981.187    22302979.628
  21093400.583      742615.471 8    578661.711 9  21093424.806    21093423.787
  22965715.706      710451.951 6    553597.841 7  22965738.940    22965737.141
  23554092.131    -1041808.198 6   -811797.885 6  23554114.586    23554112.337
  20636289.844      199807.030 9    155693.964 9  20636312.418    20636309.750
  20542897.448     3748882.244 8   3324835.357 9  20542916.515    20542914.326
 92  8  6  1  0 10.0000000  0  6 21  3 26 28 17 23
  22301010.502     -713526.622 7   -555995.184 8  22301031.187    22301029.449
  21095607.475      754200.218 8    587688.785 9  21095629.270    21095628.131
  22967815.572      721474.987 6    562187.220 7  22967836.678    22967834.759
  23551171.823    -1057157.462 6   -823758.341 6  23551193.168    23551190.650
  20636899.862      203007.540 9    158187.865 9  20636921.297    20636918.748
  20543003.605     3749451.004 8   3325278.544 9  20543024.740    20543022.641
 92  8  6  1  0 15.0000000  0  6 21  3 26 28 17 23
  22299060.322     -723767.814 7   -563975.324 8  22299082.626    22299080.678
  21097813.378      765797.940 8    596725.963 9  21097836.282    21097835.293
  22969915.199      732509.580 6    570785.604 7  22969936.784    22969933.966
  23548251.215    -1072502.438 6   -835715.444 6  23548273.070    23548270.671
  20637512.218      206212.250 9    160685.042 9  20637531.284    20637528.796
  20543112.759     3750027.284 8   3325727.597 9  20543134.524    20543132.245
 92  8  6  1  0 20.0000000  0  6 21  3 26 28 17 23
  22297112.780     -734003.260 7   -571950.987 8  22297134.515    22297132.836
  21100028.454      777409.275 8    605773.754 9  21100046.052    21100045.123
  22972016.264      743556.272 6    579393.404 7  22972038.599    22972036.500
  23545332.286    -1087842.606 6   -847668.819 6  23545354.500    23545351.322
  20638118.308      209421.683 9    163185.896 9  20638141.842    20638139.144
  20543226.650     3750611.562 9   3326182.879 9  20543245.687    20543243.409
 92  8  6  1  0 25.0000000  0  6 21  3 26 28 17 23
  22295168.386     -744233.331 7   -579922.473 8  22295187.903    22295185.894
  21102235.556      789033.863 8    614831.864 9  21102258.131    21102256.991
  22974119.008      754614.711 6    588010.358 7  22974143.142    22974140.593
  23542415.035    -1103178.077 6   -859618.530 6  23542435.751    23542432.903
  20638730.484      212635.636 9    165690.283 9  20638753.538    20638750.870
  20543335.385     3751203.645 8   3326644.237 9  20543358.469    20543356.160
 92  8  6  1  0 30.0000000  0  6 21  3 26 28 17 23
  22293222.523     -754457.099 7   -587889.039 8  22293242.519    22293240.391
  21104451.682      800672.526 8    623900.946 9  21104473.087    21104471.528
  22976230.237      765685.672 6    596637.084 7  22976249.843    22976247.235
  23539498.744    -1118508.299 6   -871564.159 6  23539518.560    23539516.552
  20639344.759      215855.053 9    168198.908 9  20639366.014    20639363.796
  20543449.006     3751804.257 8   3327112.246 9  20543472.810    20543470.531
 92  8  6  1  0 35.0000000  0  6 21  3 26 28 17 23
  22291276.720     -764675.385 7   -595851.336 8  22291297.676    22291295.487
  21106669.187      812324.511 8    632980.409 9  21106690.292    21106689.063
  22978338.827      776768.490 6    605273.035 7  22978359.033    22978356.365
  23536581.554    -1133833.837 6   -883506.118 6  23536602.089    23536599.661
  20639959.453      219079.366 9    170711.362 9  20639979.599    20639977.141
  20543564.666     3752412.734 8   3327586.393 9  20543588.500    20543586.431
 92  8  6  1  0 40.0000000  0  6 21  3 26 28 17 23
  22289332.626     -774888.648 7   -603809.720 8  22289354.301    22289352.203
  21108886.992      823989.749 8    642070.196 9  21108910.136    21108908.577
  22980450.295      787862.820 6    613917.971 8  22980470.142    22980467.324
  23533663.524    -1149155.027 6   -895444.699 6  23533687.057    23533684.090
  20640572.289      222308.333 9    173227.439 9  20640594.144    20640591.926
  20543685.243     3753028.776 8   3328066.419 9  20543705.958    20543703.590
 92  8  6  1  0 45.0000000  0  6 21  3 26 28 17 23
  22287390.481     -785097.216 7   -611764.448 8  22287411.736    22287410.027
  21111108.064      835667.721 8    651169.913 9  21111132.407    21111130.878
  22982560.624      798968.327 6    622571.605 7  22982583.259    22982581.100
  23530749.871    -1164472.316 6   -907380.241 6  23530772.235    23530769.267
  20641189.412      225541.644 9    175746.903 9  20641209.678    20641207.010
  20543802.521     3753652.133 9   3328552.155 9  20543824.556    20543822.458
 92  8  6  1  0 50.0000000  0  6 21  3 26 28 17 23
  22285447.526     -795300.266 7   -619714.869 8  22285470.220    22285468.271
  21113334.563      847359.201 8    660280.151 9  21113357.107    21113355.818
  22984674.131      810085.596 7    631234.409 7  22984698.954    22984696.796
  23527835.259    -1179784.954 6   -919312.161 6  23527857.893    23527855.525
  20641805.366      228780.028 9    178270.317 9  20641825.482    20641823.173
  20543923.398     3754283.704 8   3329044.286 9  20543944.743    20543942.315
 92  8  6  1  0 55.0000000  0  6 21  3 26 28 17 23
  22283508.378     -805498.160 7   -627661.270 8  22283529.544    22283527.805
  21115561.751      859063.701 8    669400.534 9  21115584.235    21115583.006
  22986795.283      821214.078 6    639905.944 7  22986816.748    22986814.440
  23524924.694    -1195093.354 6   -931240.782 6  23524944.989    23524941.842
  20642421.319      232023.062 9    180797.352 9  20642442.724    20642440.326
  20544047.542     3754923.463 8   3329542.799 9  20544066.339    20544064.120
 92  8  6  1  1  0.0000000  0  6 21  3 26 28 17 23
  22281569.141     -815690.358 7   -635603.238 8  22281589.796    22281587.938
  21117793.016      870781.615 8    678531.373 9  21117814.032    21117813.012
  22988912.927      832353.948 6    648586.356 7  22988936.880    22988933.702
  23522010.201    -1210397.049 6   -943165.723 6  23522032.746    23522030.077
  20643039.731      235270.806 9    183328.065 9  20643060.986    20643058.348
  20544166.380     3755571.975 8   3330048.132 9  20544189.823    20544187.515
 92  8  6  1  1  5.0000000  0  6 21  3 26 28 17 23
  22279627.565     -825876.921 7   -643540.812 8  22279651.548    22279649.480
  21120022.842      882512.828 8    687672.569 9  21120046.316    21120045.477
  22991038.815      843505.143 7    657275.600 7  22991059.021    22991055.963
  23519102.514    -1225695.917 6   -955086.903 6  23519121.191    23519118.853
  20643659.852      238523.136 9    185862.347 9  20643679.578    20643677.150
  20544292.562     3756229.316 8   3330560.346 9  20544314.837    20544312.558
 92  8  6  1  1 10.0000000  0  6 21  3 26 28 17 23
  22277693.784     -836058.527 7   -651474.529 8  22277713.840    22277712.221
  21122257.855      894256.713 8    696823.645 9  21122281.389    21122279.800
  22993162.725      854666.831 7    665973.012 7  22993182.781    22993179.693
  23516190.660    -1240990.471 6   -967004.735 6  23516210.806    23516207.448
  20644276.045      241779.476 8    188399.753 9  20644299.339    20644296.941
  20544418.895     3756894.948 8   3331079.021 9  20544441.379    20544439.191
 92  8  6  1  1 15.0000000  0  6 21  3 26 28 17 23
  22275757.364     -846233.541 7   -659403.098 8  22275777.750    22275775.771
  21124495.386      906014.829 8    705985.804 9  21124518.650    21124517.511
  22995285.015      865840.418 6    674679.708 7  22995309.059    22995305.971
  23513282.853    -1256279.147 6   -978917.975 6  23513301.590    23513298.952
  20644899.344      245041.462 9    190941.565 9  20644920.089    20644917.511
  20544548.915     3757570.349 9   3331605.305 9  20544569.990    20544567.772
 92  8  6  1  1 20.0000000  0  6 21  3 26 28 17 23
  22273824.062     -856402.768 7   -667327.171 8  22273842.170    22273840.731
  21126738.253      917786.149 8    715158.257 9  21126758.519    21126757.680
  22997411.833      877024.899 6    683394.880 7  22997437.136    22997434.467
  23510375.166    -1271562.834 6   -990827.341 6  23510393.243    23510389.736
  20645519.464      248307.853 9    193486.802 9  20645541.409    20645539.131
  20544679.055     3758254.388 8   3332138.320 9  20544700.100    20544697.972
 92  8  6  1  1 25.0000000  0  6 21  3 26 28 17 23
  22271885.904     -866566.323 7   -675246.821 8  22271908.389    22271906.740
  21128979.022      929570.446 8    724340.816 9  21129001.237    21129000.188
  22999544.617      888219.896 6    692118.257 7  22999567.461    22999564.853
  23507466.879    -1286841.708 6  -1002732.943 6  23507485.646    23507482.798
  20646142.253      251578.280 9    196035.158 9  20646163.838    20646161.590
  20544810.933     3758946.842 9   3332677.898 9  20544831.679    20544829.970
 92  8  6  1  1 30.0000000  0  6 21  3 26 28 17 23
  22269956.830     -876724.818 7   -683162.524 8  22269975.057    22269973.468
  21131223.988      941367.163 8    733533.068 9  21131246.023    21131244.704
  23001678.090      899424.616 6    700849.201 7  23001699.495    23001697.456
  23504556.974    -1302116.390 6  -1014635.306 6  23504578.379    23504576.550
  20646767.350      254852.198 9    198586.287 9  20646786.747    20646784.259
  20544942.302     3759647.149 9   3333223.594 9  20544965.177    20544963.168
 92  8  6  1  1 35.0000000  0  6 21  3 26 28 17 23
  22268022.389     -886876.645 7   -691073.036 8  22268043.554    22268042.025
  21133469.613      953177.908 8    742736.238 9  21133493.777    21133492.068
  23003814.621      910640.698 6    709589.005 7  23003834.167    23003831.619
  23501649.017    -1317385.157 6  -1026533.034 6  23501672.940    23501671.022
  20647391.728      258131.359 9    201141.478 9  20647410.825    20647408.576
  20545076.759     3760356.748 8   3333776.527 9  20545100.203    20545097.895
 92  8  6  1  1 40.0000000  0  6 21  3 26 28 17 23
  22266091.246     -897021.634 7   -698978.209 8  22266112.831    22266111.362
  21135723.063      965002.736 8    751950.384 9  21135743.809    21135742.610
  23005946.954      921868.522 6    718337.955 7  23005970.338    23005968.389
  23498749.694    -1332648.015 6  -1038426.166 6  23498768.911    23498766.662
  20648010.890      261416.239 9    203701.127 9  20648036.102    20648033.494
  20545216.822     3761075.801 9   3334336.830 9  20545237.088    20545234.750
 92  8  6  1  1 45.0000000  0  6 21  3 26 28 17 23
  22264162.171     -907160.868 7   -706878.919 8  22264183.457    22264181.538
  21137973.336      976840.620 8    761174.704 9  21137996.420    21137995.460
  23008089.571      933107.008 6    727095.211 7  23008108.818    23008107.199
  23495841.587    -1347906.092 6  -1050315.573 6  23495865.271    23495863.232
  20648641.623      264705.924 9    206264.515 9  20648661.979    20648659.550
  20545354.607     3761803.179 8   3334903.615 9  20545375.443    20545373.104
 92  8  6  1  1 50.0000000  0  6 21  3 26 28 17 23
  22262234.476     -917294.172 7   -714774.989 8  22262254.982    22262253.483
  21140229.753      988691.762 8    770409.348 9  21140251.758    21140250.769
  23010229.160      944356.327 6    735860.910 7  23010249.756    23010248.047
  23492944.573    -1363159.010 6  -1062200.951 6  23492962.560    23492960.432
  20649270.438      268000.508 9    208831.723 9  20649288.875    20649286.656
  20545494.310     3762538.940 8   3335476.934 9  20545515.655    20545513.407
 92  8  6  1  1 55.0000000  0  6 21  3 26 28 17 23
  22260307.380     -927421.233 7   -722666.201 8  22260327.856    22260326.267
  21142486.201     1000556.392 7    779654.520 9  21142509.525    21142508.176
  23012370.098      955616.784 6    744635.287 7  23012392.732    23012390.244
  23490040.933    -1378406.299 6  -1074081.958 6  23490061.079    23490058.291
  20649895.295      271300.355 9    211403.029 9  20649917.000    20649914.572
  20545635.932     3763283.487 9   3336057.101 9  20545657.098    20545654.999
 92  8  6  1  2  0.0000000  0  6 21  3 26 28 17 23
  22258381.093     -937542.220 7   -730552.674 8  22258401.869    22258400.040
  21144747.026     1012434.319 8    788910.045 9  21144769.870    21144768.551
  23014517.091      966887.969 6    753418.020 8  23014537.207    23014535.139
  23487143.799    -1393648.130 6  -1085958.708 6  23487160.647    23487157.919
  20650527.018      274605.175 8    213978.217 9  20650545.875    20650543.326
  20545777.075     3764036.763 8   3336644.070 9  20545800.458    20545798.000
 92  8  6  1  2  5.0000000  0  6 21  3 26 28 17 23
  22256458.824     -947660.181 7   -738436.795 8  22256476.422    22256475.253
  21147011.179     1024322.465 8    798173.521 9  21147032.104    21147030.965
  23016664.145      978166.755 6    762206.682 7  23016683.122    23016681.623
  23484237.850    -1408887.579 6  -1097833.589 6  23484260.545    23484259.076
  20651157.451      277911.796 8    216554.803 9  20651175.019    20651172.621
  20545923.793     3764795.633 8   3337235.397 9  20545944.748    20545942.530
 92  8  6  1  2 10.0000000  0  6 21  3 26 28 17 23
  22254529.600     -957774.961 7   -746318.438 8  22254551.575    22254549.686
  21149274.432     1036220.797 8    807444.949 9  21149296.317    21149295.088
  23018810.179      989453.248 6    771001.356 7  23018831.255    23018829.396
  23481340.266    -1424124.839 6  -1109706.765 6  23481360.952    23481359.213
  20651783.568      281220.179 8    219132.764 9  20651804.763    20651802.095
  20546069.072     3765560.161 9   3337831.135 9  20546090.238    20546087.869
 92  8  6  1  2 15.0000000  0  6 21  3 26 28 17 23
  22252606.401     -967883.630 7   -754195.325 8  22252628.106    22252626.247
  21151543.051     1048132.363 7    816726.682 9  21151562.718    21151561.968
  23020961.130     1000750.353 6    779804.268 8  23020981.066    23020979.178
  23478441.963    -1439357.146 6  -1121576.099 6  23478462.469    23478460.370
  20652415.890      284533.466 8    221714.546 9  20652435.257    20652432.678
  20546217.500     3766333.383 9   3338433.645 9  20546237.586    20546235.037
 92  8  6  1  2 20.0000000  0  6 21  3 26 28 17 23
  22250684.162     -977986.139 7   -762067.400 8  22250705.357    22250704.008
  21153809.602     1060057.319 8    826018.844 9  21153832.177    21153831.127
  23023114.150     1012058.250 6    788615.616 7  23023133.426    23023130.698
  23475545.068    -1454584.459 6  -1133441.523 6  23475565.394    23475562.696
  20653048.992      287851.912 9    224300.347 9  20653066.500    20653063.981
  20546366.137     3767115.498 9   3339043.080 9  20546386.373    20546384.004
 92  8  6  1  2 25.0000000  0  6 21  3 26 28 17 23
  22248762.192     -988082.595 7   -769934.742 8  22248782.878    22248782.159
  21156082.089     1071995.519 7    835321.337 9  21156102.865    21156103.225
  23025268.398     1023377.012 6    797435.442 7  23025286.446    23025284.467
  23472647.664    -1469806.891 6  -1145303.159 6  23472667.301    23472666.491
  20653676.427      291175.593 8    226890.229 9  20653697.952    20653696.783
  20546516.423     3767906.584 8   3339659.513 9  20546535.789    20546534.620
 92  8  6  1  2 30.0000000  0  6 21  3 26 28 17 23
  22246844.990     -998172.882 7   -777797.313 8  22246863.097    22246862.198
  21158356.704     1083947.150 7    844634.291 9  21158377.030    21158377.300
  23027422.137     1034706.679 6    806263.735 7  23027442.373    23027440.665
  23469753.857    -1485024.002 6  -1157160.629 6  23469771.605    23469770.736
  20654312.527      294504.563 8    229484.232 9  20654331.414    20654330.125
  20546662.871     3768706.879 8   3340283.119 9  20546688.084    20546687.035
 92  8  6  1  2 35.0000000  0  6 21  3 26 28 17 23
  22244921.881    -1008256.906 7   -785654.989 8  22244944.126    22244942.926
  21160632.939     1095912.569 7    853957.986 9  21160654.494    21160653.954
  23029580.493     1046047.194 6    815100.502 7  23029600.250    23029598.631
  23466854.894    -1500235.576 6  -1169013.795 6  23466876.899    23466875.670
  20654945.119      297839.055 8    232082.530 9  20654966.105    20654964.755
  20546824.609     3769516.664 8   3340914.115 9  20546842.267    20546841.068
 92  8  6  1  2 40.0000000  0  6 21  3 26 28 17 23
  22243005.937    -1018334.686 7   -793507.810 8  22243026.533    22243025.394
  21162913.280     1107891.569 7    863292.276 9  21162933.576    21162933.216
  23031738.129     1057398.301 6    823945.512 7  23031760.704    23031759.804
  23463961.567    -1515441.806 6  -1180862.799 6  23463983.332    23463981.504
  20655580.259      301178.955 8    234685.049 9  20655601.635    20655600.106
  20546978.613     3770335.870 8   3341552.459 9  20546998.399    20546996.720
 92  8  6  1  2 45.0000000  0  6 21  3 26 28 17 23
  22241090.084    -1028406.047 7   -801355.613 8  22241110.290    22241109.240
  21165195.810     1119884.153 7    872637.137 9  21165215.686    21165215.326
  23033899.723     1068760.043 6    832798.809 7  23033922.747    23033921.278
  23461070.699    -1530642.676 6  -1192707.626 7  23461090.425    23461089.136
  20656220.196      304524.183 8    237291.722 9  20656238.304    20656236.805
  20547136.184     3771164.734 8   3342198.319 9  20547156.000    20547154.561
 92  8  6  1  2 50.0000000  0  6 21  3 26 28 17 23
  22239175.189    -1038470.922 7   -809198.358 8  22239194.676    22239193.747
  21167480.408     1131890.383 7    881992.632 9  21167500.734    21167500.075
  23036062.696     1080132.395 6    841660.388 7  23036086.319    23036085.000
  23458176.233    -1545838.262 6  -1204548.332 7  23458198.807    23458198.057
  20656856.056      307874.876 8    239902.649 9  20656875.872    20656874.254
  20547296.782     3772003.274 8   3342851.732 9  20547315.370    20547314.200
 92  8  6  1  2 55.0000000  0  6 21  3 26 28 17 23
  22237261.015    -1048529.541 7   -817036.250 8  22237280.381    22237279.901
  21169767.345     1143910.188 7    891358.710 9  21169787.521    21169787.671
  23038228.876     1091515.211 6    850530.108 7  23038252.680    23038251.121
  23455289.201    -1561028.617 6  -1216384.960 6  23455308.418    23455306.439
  20657494.014      311230.738 8    242517.601 9  20657514.640    20657513.081
  20547456.392     3772851.283 8   3343512.518 9  20547476.868    20547475.369
 92  8  6  1  3  0.0000000  0  6 21  3 26 28 17 23
  22235347.259    -1058581.489 7   -824868.922 8  22235367.915    22235366.926
  21172053.682     1155943.707 7    900735.473 9  21172077.666    21172077.456
  23040399.074     1102908.832 6    859408.254 7  23040420.958    23040418.530
  23452399.022    -1576213.513 6  -1228217.342 6  23452418.718    23452417.399
  20658135.780      314592.154 8    245136.891 9  20658154.247    20658152.688
  20547616.151     3773709.140 8   3344180.973 9  20547640.045    20547638.786
 92  8  6  1  3  5.0000000  0  6 21  3 26 28 17 23
  22233433.564    -1068626.924 7   -832696.537 8  22233456.169    22233455.119
  21174352.131     1167990.914 7    910122.904 9  21174370.268    21174370.418
  23042568.192     1114313.109 6    868294.698 7  23042590.706    23042589.687
  23449512.111    -1591393.126 6  -1240045.609 7  23449530.278    23449528.689
  20658773.619      317959.008 8    247760.410 9  20658794.994    20658793.405
  20547785.444     3774576.913 8   3344857.163 9  20547805.380    20547803.881
 92  8  6  1  3 10.0000000  0  6 21  3 26 28 17 23
  22231525.055    -1078665.884 7   -840519.091 8  22231545.831    22231544.842
  21176645.034     1180051.893 7    919521.061 9  21176665.390    21176665.150
  23044740.968     1125728.265 6    877189.627 7  23044763.152    23044761.653
  23446625.709    -1606567.269 6  -1251869.602 7  23446642.737    23446641.958
  20659419.521      321331.319 9    250388.184 9  20659436.700    20659435.231
  20547950.450     3775454.575 8   3345541.058 9  20547972.335    20547971.016
 92  8  6  1  3 15.0000000  0  6 21  3 26 28 17 23
  22229615.857    -1088698.707 7   -848336.873 8  22229636.783    22229636.003
  21178941.144     1192126.524 7    928929.866 9  21178963.149    21178962.969
  23046915.303     1137154.283 6    886093.018 7  23046937.247    23046935.718
  23443732.262    -1621736.052 6  -1263689.427 7  23443756.545    23443755.196
  20660061.497      324708.921 9    253020.076 9  20660079.455    20660077.986
  20548120.732     3776341.851 8   3346232.441 9  20548141.088    20548139.709
 92  8  6  1  3 20.0000000  0  6 21  3 26 28 17 23
  22227707.139    -1098725.458 7   -856149.914 8  22227728.664    22227727.914
  21181243.190     1204214.708 7    938349.221 9  21181263.606    21181263.247
  23049092.365     1148591.197 6    895004.887 7  23049113.441    23049112.511
  23440851.316    -1636899.423 6  -1275505.035 7  23440870.533    23440869.004
  20660701.674      328091.837 8    255656.119 9  20660723.169    20660721.550
  20548291.824     3777238.374 8   3346931.030 9  20548311.790    20548310.681
 92  8  6  1  3 25.0000000  0  6 21  3 26 28 17 23
  22225798.450    -1108746.717 7   -863958.679 8  22225821.414    22225820.635
  21183542.689     1216316.242 7    947778.985 9  21183566.132    21183566.312
  23051272.306     1160038.763 6    903925.073 7  23051292.153    23051290.294
  23437964.915    -1652057.921 6  -1287316.843 7  23437986.200    23437984.551
  20661349.256      331479.919 8    258296.179 9  20661368.023    20661366.374
  20548461.506     3778143.608 8   3347636.402 9  20548484.290    20548482.671
 92  8  6  1  3 30.0000000  0  6 21  3 26 28 17 23
  22223894.558    -1118762.022 7   -871762.813 8  22223915.783    22223915.244
  21185849.562     1228431.477 7    957219.419 9  21185871.896    21185871.836
  23053452.427     1171497.704 6    912854.112 7  23053472.333    23053471.344
  23435080.971    -1667211.261 6  -1299124.633 7  23435102.946    23435101.657
  20661992.220      334873.849 8    260940.801 9  20662013.805    20662012.187
  20548637.874     3779057.869 8   3348348.817 9  20548658.050    20548656.581
 92  8  6  1  3 35.0000000  0  6 21  3 26 28 17 23
  22221991.206    -1128771.711 7   -879562.567 8  22222010.632    22222010.242
  21188158.803     1240560.117 7    966670.307 9  21188179.788    21188179.818
  23055637.524     1182967.669 6    921791.748 7  23055655.182    23055653.833
  23432198.467    -1682359.832 6  -1310928.705 7  23432220.052    23432218.373
  20662638.813      338273.257 8    263589.688 9  20662660.458    20662658.899
  20548810.345     3779980.638 8   3349067.858 9  20548833.638    20548832.229
 92  8  6  1  3 40.0000000  0  6 21  3 26 28 17 23
  22220083.806    -1138775.730 7   -887357.898 8  22220107.430    22220106.860
  21190467.984     1252702.384 7    976131.806 9  21190490.439    21190490.409
  23057822.142     1194448.782 6    930738.056 7  23057840.249    23057838.780
  23429318.001    -1697503.397 6  -1322728.873 7  23429338.207    23429336.438
  20663289.602      341678.259 8    266242.939 9  20663308.489    20663307.110
  20548989.471     3780912.260 9   3349793.794 9  20549011.236    20549009.437
 92  8  6  1  3 45.0000000  0  6 21  3 26 28 17 23
  22218182.732    -1148774.492 7   -895149.137 8  22218204.527    22218203.808
  21192783.881     1264858.030 7    985603.729 9  21192803.697    21192803.517
  23060007.119     1205940.737 6    939692.828 7  23060026.906    23060025.257
  23426438.314    -1712642.198 6  -1334525.341 7  23426457.381    23426455.552
  20663938.923      345089.071 8    268900.711 9  20663957.360    20663956.221
  20549169.736     3781852.638 8   3350526.557 9  20549190.032    20549188.533
 92  8  6  1  3 50.0000000  0  6 21  3 26 28 17 23
  22216282.797    -1158768.219 7   -902936.459 8  22216302.854    22216302.254
  21195098.938     1277027.089 7    995086.109 9  21195119.204    21195118.964
  23062196.264     1217443.746 6    948656.208 7  23062215.600    23062214.881
  23423558.388    -1727776.279 6  -1346318.127 7  23423577.755    23423576.286
  20664589.083      348505.723 8    271563.034 9  20664607.760    20664606.321
  20549349.222     3782801.660 8   3351266.058 9  20549370.777    20549369.158
 92  8  6  1  3 55.0000000  0  6 21  3 26 28 17 23
  22214383.882    -1168757.390 7   -910720.223 8  22214401.900    22214401.420
  21197414.805     1289209.085 7   1004578.573 9  21197437.320    21197437.230
  23064383.999     1228957.531 6    957627.981 7  23064406.993    23064405.554
  23420678.102    -1742906.019 6  -1358107.532 7  23420698.278    23420697.049
  20665238.883      351927.847 8    274229.622 9  20665258.759    20665257.500
  20549533.174     3783758.948 8   3352011.997 9  20549552.721    20549551.522
 92  8  6  1  4  0.0000000  0  6 21  3 26 28 17 23
  22212481.429    -1178741.521 7   -918500.064 8  22212502.175    22212501.215
  21199736.188     1301404.545 7   1014081.527 8  21199758.043    21199757.773
  23066577.221     1240482.352 6    966608.358 7  23066599.915    23066598.836
  23417802.523    -1758030.981 6  -1369893.197 7  23417819.701    23417819.161
  20665892.400      355355.989 8    276900.909 9  20665911.167    20665909.579
  20549715.178     3784725.152 8   3352764.882 9  20549736.553    20549735.174
 92  8  6  1  4  5.0000000  0  6 21  3 26 28 17 23
  22210580.955    -1188720.979 7   -926276.256 8  22210603.199    22210602.450
  21202061.768     1313613.190 7   1023594.750 9  21202081.105    21202080.745
  23068774.370     1252017.700 6    975596.938 7  23068795.026    23068793.766
  23414923.136    -1773151.316 6  -1381675.272 7  23414942.533    23414941.603
  20666544.299      358789.720 8    279576.543 9  20666564.775    20666563.186
  20549899.790     3785700.081 9   3353524.570 9  20549922.065    20549920.776
 92  8  6  1  4 10.0000000  0  6 21  3 26 28 17 23
  22208684.108    -1198695.901 7   -934048.918 8  22208704.943    22208704.314
  21204385.429     1325834.828 7   1033118.099 9  21204407.134    21204406.895
  23070969.690     1263563.308 6    984593.521 7  23070992.025    23070991.095
  23412045.368    -1788267.154 6  -1393453.850 7  23412066.564    23412065.095
  20667197.787      362228.881 8    282256.405 9  20667219.042    20667217.663
  20550090.099     3786683.617 8   3354290.960 9  20550109.165    20550107.816
 92  8  6  1  4 15.0000000  0  6 21  3 26 28 17 23
  22206789.210    -1208666.143 7   -941817.939 8  22206807.617    22206806.868
  21206711.729     1338069.707 7   1042651.767 9  21206735.143    21206735.173
  23073170.227     1275119.162 6    993598.067 7  23073191.002    23073189.593
  23409172.727    -1803378.598 6  -1405228.994 7  23409190.774    23409189.875
  20667855.561      365673.695 8    284940.678 9  20667874.508    20667873.219
  20550275.550     3787675.743 8   3355064.051 9  20550297.855    20550296.596
 92  8  6  1  4 20.0000000  0  6 21  3 26 28 17 23
  22204890.054    -1218631.914 7   -949583.463 8  22204911.160    22204910.201
  21209045.194     1350317.352 7   1052195.375 9  21209065.849    21209065.759
  23075370.254     1286685.087 6   1002610.481 8  23075392.558    23075391.089
  23406295.529    -1818485.809 6  -1417000.834 7  23406316.304    23406314.895
  20668512.347      369123.879 8    287629.135 9  20668530.994    20668529.645
  20550467.897     3788676.167 9   3355843.600 9  20550488.493    20550487.054
 92  8  6  1  4 25.0000000  0  6 21  3 26 28 17 23
  22202994.886    -1228593.364 7   -957345.633 8  22203016.142    22203014.613
  21211379.707     1362577.869 7   1061749.023 8  21211398.834    21211398.804
  23077576.756     1298261.048 6   1011630.696 7  23077595.313    23077593.874
  23403421.598    -1833588.960 6  -1428769.512 7  23403442.224    23403440.515
  20669169.612      372579.367 8    290321.722 9  20669188.618    20669187.449
  20550659.824     3789684.569 8   3356629.366 9  20550680.120    20550678.831
 92  8  6  1  4 30.0000000  0  6 21  3 26 28 17 23
  22201100.798    -1238550.278 7   -965104.266 8  22201121.034    22201119.625
  21213713.412     1374851.407 7   1071312.813 9  21213734.367    21213734.337
  23079779.781     1309847.051 6   1020658.743 7  23079800.227    23079798.818
  23400547.638    -1848687.798 6  -1440534.836 7  23400568.803    23400567.274
  20669826.757      376040.301 8    293018.551 9  20669847.352    20669845.913
  20550851.721     3790701.148 8   3357421.508 9  20550873.726    20550872.287
 92  8  6  1  4 35.0000000  0  6 21  3 26 28 17 23
  22199206.679    -1248502.073 7   -972858.899 8  22199227.305    22199226.195
  21216049.934     1387138.344 7   1080887.053 9  21216072.479    21216072.209
  23081986.583     1321443.488 6   1029694.934 7  23082006.729    23082005.320
  23397675.296    -1863781.674 6  -1452296.290 7  23397696.132    23397694.543
  20670488.818      379507.179 8    295720.015 9  20670507.076    20670505.607
  20551046.946     3791726.440 8   3358220.437 9  20551069.041    20551067.482
 92  8  6  1  4 40.0000000  0  6 21  3 26 28 17 23
  22197313.490    -1258449.300 7   -980609.987 8  22197334.055    22197332.886
  21218393.322     1399438.102 7   1090471.269 9  21218413.168    21218412.958
  23084195.304     1333049.707 6   1038738.738 7  23084215.300    23084214.251
  23394801.936    -1878871.048 6  -1464054.243 7  23394824.780    23394823.341
  20671148.122      382979.209 8    298425.495 9  20671167.818    20671166.439
  20551245.019     3792759.814 8   3359025.664 9  20551265.435    20551263.936
 92  8  6  1  4 45.0000000  0  6 21  3 26 28 17 23
  22195419.941    -1268392.007 7   -988357.542 8  22195442.305    22195441.466
  21220736.170     1411750.640 7   1100065.448 9  21220756.106    21220756.286
  23086405.644     1344665.603 6   1047790.081 7  23086425.340    23086424.441
  23391933.971    -1893955.896 6  -1475808.660 7  23391953.967    23391952.918
  20671808.115      386456.258 8    301134.882 9  20671829.460    20671828.201
  20551446.809     3793801.085 8   3359837.047 9  20551463.448    20551462.099
 92  8  6  1  4 50.0000000  0  6 21  3 26 28 17 23
  22193532.027    -1278330.394 7   -996101.728 8  22193551.214    22193549.925
  21223081.926     1424075.585 7   1109669.296 9  21223101.083    21223101.263
  23088614.994     1356290.825 6   1056848.691 7  23088637.959    23088636.729
  23389063.668    -1909036.504 6  -1487559.775 7  23389084.324    23389083.365
  20672476.262      389938.024 8    303847.947 9  20672492.122    20672490.772
  20551640.026     3794849.714 8   3360654.152 9  20551662.960    20551661.701
 92  8  6  1  4 55.0000000  0  6 21  3 26 28 17 23
  22191638.149    -1288264.059 7  -1003842.244 8  22191660.783    22191659.973
  21225427.592     1436413.260 7   1119283.067 8  21225449.447    21225449.327
  23090831.780     1367925.744 6   1065914.861 7  23090851.626    23090850.697
  23386193.965    -1924112.758 6  -1499307.496 7  23386215.040    23386214.441
  20673137.785      393425.023 8    306565.087 9  20673155.832    20673154.243
  20551845.054     3795905.834 8   3361477.109 9  20551863.731    20551862.592
 92  8  6  1  5  0.0000000  0  6 21  3 26 28 17 23
  22189751.315    -1298192.710 7  -1011578.846 8  22189771.101    22189770.442
  21227777.186     1448763.748 7   1128906.814 9  21227799.460    21227799.640
  23093046.886     1379570.817 6   1074988.938 7  23093067.752    23093067.002
  23383326.180    -1939184.434 6  -1511051.653 7  23383347.345    23383345.906
  20673801.885      396917.603 8    309286.581 9  20673820.382    20673818.673
  20552045.165     3796969.687 8   3362306.086 9  20552066.361    20552065.041
 92  8  6  1  5  5.0000000  0  6 21  3 26 28 17 23
  22187863.072    -1308116.585 7  -1019311.730 8  22187882.948    22187882.289
  21230134.394     1461126.989 7   1138540.507 8  21230152.201    21230152.142
  23095263.582     1391226.011 6   1084070.911 7  23095285.766    23095284.058
  23380460.254    -1954251.638 6  -1522792.330 7  23380480.190    23380479.141
  20674466.675      400415.742 8    312012.405 9  20674486.041    20674484.482
  20552249.474     3798040.971 8   3363140.854 9  20552270.040    20552268.840
 92  8  6  1  5 10.0000000  0  6 21  3 26 28 17 23
  22185975.519    -1318035.990 7  -1027041.132 8  22185995.275    22185994.256
  21232485.456     1473502.674 7   1148183.891 8  21232507.191    21232507.251
  23097483.635     1402891.022 6   1093160.521 7  23097505.640    23097504.201
  23377595.977    -1969314.651 6  -1534529.727 7  23377613.575    23377612.526
  20675134.252      403919.265 8    314742.422 9  20675152.600    20675151.011
  20552457.350     3799119.095 8   3363980.952 9  20552475.307    20552474.018
 92  8  6  1  5 15.0000000  0  6 21  3 26 28 17 23
  22184090.604    -1327950.517 7  -1034766.726 8  22184108.381    22184107.542
  21234843.324     1485891.209 7   1157837.285 9  21234864.459    21234864.759
  23099705.337     1414566.133 6   1102258.015 7  23099727.162    23099725.573
  23374729.511    -1984373.006 6  -1546263.499 7  23374748.398    23374746.750
  20675802.520      407428.513 8    317476.903 9  20675820.327    20675818.978
  20552659.860     3800204.456 8   3364826.686 9  20552681.894    20552680.425
 92  8  6  1  5 20.0000000  0  6 21  3 26 28 17 23
  22182204.369    -1337860.586 7  -1042488.848 8  22182222.657    22182221.667
  21237202.691     1498292.016 7   1167500.246 8  21237224.216    21237224.306
  23101929.767     1426251.009 6   1111363.110 7  23101950.632    23101949.523
  23371866.254    -1999427.024 6  -1557993.912 7  23371883.762    23371881.843
  20676466.920      410943.035 9    320215.487 9  20676488.985    20676487.845
  20552870.134     3801296.642 8   3365677.743 9  20552889.531    20552888.361
 92  8  6  1  5 25.0000000  0  6 21  3 26 28 17 23
  22180315.197    -1347766.141 7  -1050207.461 8  22180337.472    22180336.872
  21239567.034     1510705.303 7   1177172.941 8  21239586.580    21239586.340
  23104153.507     1437945.802 6   1120475.927 7  23104176.202    23104174.823
  23369001.347    -2014476.613 6  -1569720.858 7  23369019.514    23369018.255
  20677140.284      414462.671 8    322958.062 9  20677159.051    20677157.492
  20553077.201     3802395.577 8   3366534.052 9  20553098.726    20553097.557
 92  8  6  1  5 30.0000000  0  6 21  3 26 28 17 23
  22178433.850    -1357666.905 7  -1057922.335 8  22178453.486    22178452.767
  21241928.769     1523131.062 7   1186855.344 9  21241950.953    21241951.223
  23106385.522     1449650.485 6   1129596.463 7  23106403.180    23106401.711
  23366137.370    -2029521.454 6  -1581444.100 7  23366156.976    23366155.357
  20677808.971      417987.387 8    325704.596 9  20677829.656    20677828.397
  20553291.193     3803501.252 8   3367395.621 9  20553309.060    20553307.861
 92  8  6  1  5 35.0000000  0  6 21  3 26 28 17 23
  22176552.262    -1367562.674 7  -1065633.316 8  22176570.400    22176569.321
  21244296.590     1535569.369 7   1196547.526 8  21244318.145    21244318.025
  23108610.942     1461364.818 6   1138724.508 7  23108632.587    23108630.788
  23363275.851    -2044561.619 6  -1593163.700 7  23363294.977    23363293.718
  20678483.594      421517.289 8    328455.167 9  20678501.551    20678499.992
  20553498.589     3804613.728 8   3368262.483 9  20553520.834    20553519.934
 92  8  6  1  5 40.0000000  0  6 21  3 26 28 17 23
  22174667.467    -1377453.844 7  -1073340.721 8  22174688.483    22174687.164
  21246666.119     1548019.705 7   1206249.085 9  21246687.434    21246686.745
  23110839.689     1473088.215 6   1147859.623 7  23110863.462    23110861.903
  23360414.422    -2059597.593 6  -1604880.034 7  23360433.518    23360431.900
  20679155.399      425051.906 8    331209.416 9  20679174.016    20679172.637
  20553714.799     3805732.552 8   3369134.297 9  20553734.016    20553732.607
 92  8  6  1  5 45.0000000  0  6 21  3 26 28 17 23
  22172786.899    -1387339.805 7  -1081044.061 8  22172807.315    22172806.206
  21249039.786     1560482.496 7   1215960.342 8  21249059.033    21249058.973
  23113075.841     1484821.157 6   1157002.175 7  23113096.137    23113094.368
  23357553.202    -2074628.736 6  -1616592.614 6  23357573.139    23357571.820
  20679824.925      428591.749 8    333967.735 9  20679847.619    20679846.090
  20553925.434     3806858.445 8   3370011.618 9  20553947.888    20553946.749
 92  8  6  1  5 50.0000000  0  6 21  3 26 28 17 23
  22170908.609    -1397220.222 7  -1088743.070 8  22170926.807    22170925.847
  21251412.823     1572957.775 7   1225681.336 8  21251432.609    21251432.879
  23115310.044     1496563.553 6   1166152.089 7  23115330.760    23115329.530
  23354693.422    -2089654.829 6  -1628301.247 7  23354714.138    23354712.789
  20680502.606      432136.812 8    336730.117 9  20680522.242    20680520.803
  20554142.153     3807991.636 8   3370894.626 9  20554163.798    20554162.509
 92  8  6  1  5 55.0000000  0  6 21  3 26 28 17 23
  22169026.272    -1407095.338 7  -1096437.970 8  22169047.828    22169046.778
  21253787.089     1585445.310 7   1235411.881 8  21253809.124    21253809.304
  23117543.228     1508314.981 6   1175309.049 7  23117567.121    23117565.712
  23351834.481    -2104676.044 6  -1640006.090 7  23351855.797    23351854.597
  20681177.259      435686.709 8    339496.273 9  20681197.855    20681196.296
  20554361.781     3809132.040 8   3371783.252 9  20554380.638    20554379.469
 92  8  6  1  6  0.0000000  0  6 21  3 26 28 17 23
  22167150.651    -1416965.235 7  -1104128.793 8  22167169.358    22167168.369
  21256166.002     1597945.120 7   1245151.983 8  21256187.767    21256187.588
  23119788.883     1520075.417 6   1184473.025 7  23119804.652    23119803.243
  23348974.761    -2119692.489 6  -1651707.210 7  23348998.085    23348996.616
  20681855.959      439241.371 8    342266.142 9  20681874.186    20681872.328
  20554576.193     3810279.671 8   3372677.510 9  20554599.037    20554597.958
 92  8  6  1  6  5.0000000  0  6 21  3 26 28 17 23
  22165272.241    -1426829.538 7  -1111815.255 8  22165291.878    22165291.728
  21258547.044     1610457.346 7   1254901.769 8  21258568.839    21258568.899
  23122022.247     1531845.164 6   1193644.251 7  23122044.612    23122043.263
  23346121.876    -2134704.006 6  -1663404.484 7  23346140.733    23346140.823
  20682530.342      442801.165 8    345040.003 9  20682551.328    20682550.009
  20554799.149     3811434.607 8   3373577.461 9  20554818.725    20554817.646
 92  8  6  1  6 10.0000000  0  6 21  3 26 28 17 23
  22163396.890    -1436688.079 7  -1119497.227 8  22163415.986    22163415.417
  21260929.615     1622982.048 7   1264661.269 8  21260952.189    21260952.129
  23124266.493     1543624.076 6   1202822.621 7  23124286.070    23124284.601
  23343263.715    -2149710.570 6  -1675097.902 7  23343285.869    23343284.610
  20683210.631      446365.883 8    347817.710 9  20683229.998    20683228.469
  20555017.967     3812596.750 8   3374483.032 9  20555039.942    20555038.593
 92  8  6  1  6 15.0000000  0  6 21  3 26 28 17 23
  22161519.979    -1446540.681 7  -1127174.573 8  22161541.024    22161540.095
  21263319.350     1635519.083 7   1274430.387 8  21263337.877    21263337.308
  23126506.723     1555412.004 6   1212008.022 7  23126529.297    23126527.798
  23340410.680    -2164712.148 6  -1686787.437 7  23340431.036    23340429.747
  20683888.312      449935.455 8    350599.192 9  20683909.268    20683907.529
  20555240.863     3813766.117 8   3375394.221 9  20555262.268    20555261.069
 92  8  6  1  6 20.0000000  0  6 21  3 26 28 17 23
  22159649.844    -1456387.657 7  -1134847.539 8  22159667.531    22159666.752
  21265703.840     1648068.015 7   1284208.774 8  21265726.144    21265725.694
  23128755.796     1567208.500 6   1221200.098 7  23128773.813    23128772.524
  23337557.015    -2179709.033 6  -1698473.312 7  23337576.442    23337575.932
  20684568.781      453509.320 8    353384.021 9  20684589.287    20684587.578
  20555464.478     3814942.327 8   3376310.753 9  20555485.913    20555484.834
 92  8  6  1  6 25.0000000  0  6 21  3 26 28 17 23
  22157772.034    -1466228.712 7  -1142515.887 8  22157794.818    22157793.709
  21268097.053     1660629.259 7   1293996.754 8  21268116.240    21268115.730
  23130998.243     1579014.201 6   1230399.332 7  23131020.847    23131019.948
  23334703.861    -2194700.709 6  -1710155.122 7  23334723.737    23334722.957
  20685252.368      457087.667 8    356172.347 9  20685270.295    20685268.706
  20555689.652     3816125.593 8   3377232.795 9  20555711.357    20555710.128
 92  8  6  1  6 30.0000000  0  6 21  3 26 28 17 23
  22155899.830    -1476063.657 7  -1150179.475 8  22155923.363    22155922.584
  21270488.827     1673202.894 7   1303794.391 8  21270508.763    21270508.523
  23133251.153     1590829.383 6   1239605.972 8  23133268.841    23133267.912
  23331850.196    -2209687.060 6  -1721832.806 7  23331872.681    23331871.332
  20685929.749      460670.591 8    358964.236 9  20685951.844    20685950.464
  20555916.805     3817315.888 8   3378160.280 9  20555938.060    20555936.561
 92  8  6  1  6 35.0000000  0  6 21  3 26 28 17 23
  22154029.694    -1485892.329 7  -1157838.168 8  22154052.898    22154052.149
  21272880.601     1685788.966 7   1313601.706 8  21272904.135    21272903.505
  23135498.128     1602654.221 6   1248820.130 8  23135519.083    23135518.394
  23329004.117    -2224667.958 6  -1733506.215 7  23329021.774    23329021.025
  20686616.963      464257.939 8    361759.569 9  20686634.321    20686633.092
  20556146.416     3818513.262 8   3379093.299 9  20556165.783    20556164.314
 92  8  6  1  6 40.0000000  0  6 21  3 26 28 17 23
  22152162.587    -1495715.177 7  -1165492.339 9  22152183.662    22152182.913
  21275282.029     1698387.067 7   1323418.400 8  21275301.305    21275301.275
  23137749.569     1614488.582 6   1258041.695 7  23137770.885    23137770.375
  23326149.433    -2239643.637 6  -1745175.566 7  23326171.677    23326170.718
  20687298.122      467849.404 8    364558.133 9  20687318.028    20687316.529
  20556374.738     3819717.588 8   3380031.729 9  20556394.914    20556393.655
 92  8  6  1  6 45.0000000  0  6 21  3 26 28 17 23
  22150296.679    -1505532.326 7  -1173142.064 8  22150315.476    22150314.606
  21277683.007     1710997.308 7   1333244.558 8  21277701.144    21277700.904
  23140005.717     1626332.588 6   1267270.799 7  23140024.874    23140023.945
  23323304.762    -2254614.113 6  -1756840.875 7  23323323.049    23323321.850
  20687981.948      471445.014 8    367359.891 9  20688002.124    20688000.865
  20556601.771     3820928.885 8   3380975.597 9  20556625.454    20556624.285
 92  8  6  1  6 50.0000000  0  6 21  3 26 28 17 23
  22148427.293    -1515343.827 7  -1180787.382 8  22148448.698    22148448.038
  21280082.455     1723619.473 7   1343080.005 8  21280102.811    21280102.751
  23142261.356     1638186.293 6   1276507.447 8  23142280.543    23142279.883
  23320455.774    -2269579.390 6  -1768502.121 7  23320475.950    23320474.541
  20688665.415      475044.574 8    370164.741 9  20688687.150    20688685.741
  20556836.568     3822147.180 8   3381924.922 9  20556857.194    20556855.905
 92  8  6  1  6 55.0000000  0  6 21  3 26 28 17 23
  22146561.684    -1525148.648 7  -1188427.491 8  22146582.310    22146582.190
  21282487.750     1736254.678 7   1352925.613 8  21282507.477    21282507.387
  23144515.885     1650050.950 6   1285752.618 8  23144538.010    23144537.650
  23317609.695    -2284538.315 6  -1780158.416 7  23317628.911    23317627.652
  20689354.548      478649.301 8    372973.617 9  20689373.165    20689371.786
  20557069.987     3823373.499 8   3382880.496 9  20557090.852    20557089.203
 92  8  6  1  7  0.0000000  0  6 21  3 26 28 17 23
  22144695.536    -1534947.383 7  -1196062.863 8  22144718.051    22144717.241
  21284891.306     1748902.292 7   1362780.901 8  21284914.390    21284913.881
  23146781.597     1661926.219 6   1295006.082 7  23146798.145    23146797.126
  23314763.315    -2299491.581 6  -1791810.290 7  23314783.281    23314781.992
  20690040.773      482258.713 8    375786.153 9  20690059.960    20690058.371
  20557307.842     3824607.072 8   3383841.719 9  20557325.590    20557323.881
 92  8  6  1  7  5.0000000  0  6 21  3 26 28 17 23
  22142833.525    -1544740.031 7  -1203693.492 9  22142854.151    22142854.031
  21287303.496     1761562.151 7   1372645.718 8  21287323.163    21287323.013
  23149038.044     1673812.076 6   1304267.784 7  23149059.959    23149058.730
  23311921.942    -2314439.310 6  -1803457.894 7  23311939.060    23311937.921
  20690729.666      485872.749 8    378602.289 9  20690747.833    20690746.334
  20557542.699     3825847.852 8   3384808.567 9  20557561.796    20557560.177
 92  8  6  1  7 10.0000000  0  6 21  3 26 28 17 23
  22140970.045    -1554527.052 7  -1211319.741 8  22140991.780    22140990.971
  21289712.059     1774233.782 7   1382519.708 8  21289734.603    21289734.184
  23151302.797     1685707.960 6   1313537.293 8  23151323.722    23151322.823
  23309077.362    -2329382.020 6  -1815101.550 7  23309095.889    23309094.030
  20691415.171      489490.776 8    381421.528 9  20691436.157    20691434.898
  20557777.677     3827095.413 8   3385780.695 9  20557799.082    20557797.553
 92  8  6  1  7 15.0000000  0  6 21  3 26 28 17 23
  22139113.191    -1564308.066 7  -1218941.304 9  22139130.579    22139129.619
  21292128.026     1786917.850 7   1392403.398 8  21292148.322    21292148.262
  23153568.328     1697614.339 6   1322814.997 7  23153589.643    23153588.594
  23306233.380    -2344319.061 6  -1826740.801 7  23306252.987    23306251.578
  20692104.154      493113.266 8    384244.246 9  20692125.620    20692124.300
  20558016.371     3828350.487 8   3386758.670 9  20558037.897    20558036.487
 92  8  6  1  7 20.0000000  0  6 21  3 26 28 17 23
  22137249.681    -1574083.270 7  -1226558.339 9  22137270.157    22137269.617
  21294542.765     1799614.117 7   1402296.583 8  21294564.410    21294564.230
  23155832.781     1709531.059 6   1332100.749 7  23155857.274    23155855.715
  23303392.127    -2359250.459 7  -1838375.654 7  23303411.554    23303410.355
  20692797.604      496739.945 8    387070.233 9  20692815.712    20692814.303
  20558256.445     3829612.937 8   3387742.399 9  20558278.240    20558276.771
 92  8  6  1  7 25.0000000  0  6 21  3 26 28 17 23
  22135390.038    -1583852.735 7  -1234170.904 8  22135411.234    22135410.694
  21296962.779     1812322.518 7   1412199.230 8  21296982.656    21296982.146
  23158101.880     1721457.793 6   1341394.306 7  23158126.942    23158125.503
  23300551.024    -2374176.254 6  -1850006.143 7  23300571.950    23300570.091
  20693483.410      500370.485 8    389899.227 9  20693506.494    20693505.144
  20558497.688     3830882.508 8   3388731.678 9  20558519.693    20558518.044
 92  8  6  1  7 30.0000000  0  6 21  3 26 28 17 23
  22133534.053    -1593616.035 7  -1241778.667 9  22133553.480    22133552.730
  21299382.135     1825043.365 7   1422111.572 8  21299403.450    21299402.700
  23160375.206     1733394.877 6   1350695.928 7  23160398.440    23160397.121
  23297709.831    -2389096.118 6  -1861631.994 7  23297732.435    23297730.727
  20694177.279      504005.124 8    392731.411 9  20694198.055    20694196.916
  20558742.379     3832159.693 8   3389726.891 9  20558762.945    20558760.966
 92  8  6  1  7 35.0000000  0  6 21  3 26 28 17 23
  22131673.361    -1603373.404 7  -1249381.802 9  22131696.595    22131696.086
  21301804.638     1837776.603 7   1432033.576 8  21301826.432    21301825.983
  23162648.082     1745342.198 6   1360005.525 7  23162671.856    23162670.387
  23294870.647    -2404010.100 6  -1873253.273 7  23294894.360    23294892.591
  20694865.663      507643.528 8    395566.529 9  20694890.396    20694889.136
  20558989.558     3833444.544 8   3390728.070 9  20559007.425    20559005.956
 92  8  6  1  7 40.0000000  0  6 21  3 26 28 17 23
  22129820.854    -1613124.890 7  -1256980.353 9  22129841.210    22129840.640
  21304228.729     1850522.248 7   1441965.242 8  21304251.903    21304251.663
  23164925.935     1757299.867 6   1369323.183 7  23164947.281    23164946.171
  23292035.929    -2418918.178 6  -1884869.954 7  23292057.454    23292055.176
  20695562.890      511285.656 8    398404.547 9  20695583.755    20695582.316
  20559230.981     3834737.138 8   3391735.292 9  20559253.465    20559251.756
 92  8  6  1  7 45.0000000  0  6 21  3 26 28 17 23
  22127970.415    -1622870.370 7  -1264574.235 9  22127986.784    22127986.064
  21306656.808     1863280.519 7   1451906.748 8  21306679.832    21306679.263
  23167202.949     1769267.876 6   1378648.910 7  23167224.774    23167223.065
  23289201.152    -2433820.174 7  -1896481.896 7  23289221.507    23289219.679
  20696257.239      514931.823 8    401245.716 9  20696277.595    20696276.216
  20559480.798     3836037.651 8   3392748.673 9  20559500.734    20559499.295
 92  8  6  1  7 50.0000000  0  6 21  3 26 28 17 23
  22126111.462    -1632610.015 7  -1272163.559 8  22126133.227    22126132.957
  21309089.025     1876051.216 7   1461857.936 8  21309110.040    21309109.171
  23169486.288     1781245.941 6   1387982.468 7  23169504.516    23169502.957
  23286365.655    -2448716.254 6  -1908089.224 7  23286386.850    23286385.801
  20696952.908      518582.041 8    404090.045 9  20696972.064    20696970.685
  20559726.537     3837345.877 8   3393768.076 9  20559749.562    20559748.242
 92  8  6  1  7 55.0000000  0  6 21  3 26 28 17 23
  22124259.794    -1642344.089 7  -1279748.546 9  22124280.899    22124280.449
  21311520.102     1888834.156 7   1471818.664 8  21311542.346    21311542.166
  23171763.482     1793234.036 6   1397323.836 7  23171785.307    23171784.617
  23283534.355    -2463606.530 7  -1919692.032 7  23283553.601    23283552.282
  20697646.597      522236.334 8    406937.548 9  20697667.583    20697666.084
  20559981.511     3838661.706 8   3394793.397 9  20560000.158    20559998.659
 92  8  6  1  8  0.0000000  0  6 21  3 26 28 17 23
  22122408.215    -1652072.657 7  -1287329.246 9  22122429.980    22122428.961
  21313952.618     1901629.282 7   1481788.903 8  21313977.530    21313976.751
  23174048.740     1805232.290 6   1406673.133 7  23174068.466    23174067.777
  23280701.406    -2478490.948 6  -1931290.273 7  23280721.372    23280719.213
  20698344.784      525894.536 8    409788.093 9  20698363.521    20698362.592
  20560226.771     3839985.273 8   3395824.748 9  20560251.924    20560250.425
 92  8  6  1  8  5.0000000  0  6 21  3 26 28 17 23
  22120557.627    -1661795.245 7  -1294905.276 9  22120579.661    22120579.392
  21316392.658     1914437.138 7   1491769.040 8  21316414.723    21316413.824
  23176333.188     1817241.141 6   1416030.674 7  23176353.664    23176352.795
  23277870.705    -2493369.096 6  -1942883.636 7  23277890.072    23277888.303
  20699039.913      529557.054 8    412642.006 9  20699060.509    20699059.070
  20560483.993     3841317.004 8   3396862.459 9  20560505.458    20560503.899
 92  8  6  1  8 10.0000000  0  6 21  3 26 28 17 23
  22118710.905    -1671512.149 7  -1302476.887 9  22118730.482    22118729.882
  21318831.680     1927257.523 7   1501758.942 8  21318854.404    21318853.775
  23178619.226     1829260.492 6   1425396.397 7  23178640.811    23178640.121
  23275037.427    -2508241.266 6  -1954472.324 7  23275059.911    23275058.382
  20699739.658      533223.591 8    415499.046 9  20699758.216    20699756.956
  20560737.078     3842656.646 8   3397906.342 9  20560760.132    20560758.933
 92  8  6  1  8 15.0000000  0  6 21  3 26 28 17 23
  22116861.515    -1681224.144 7  -1310044.670 9  22116882.291    22116881.781
  21321274.899     1940089.840 7   1511758.142 8  21321296.094    21321295.944
  23180907.302     1841289.679 6   1434769.788 7  23180929.966    23180928.737
  23272209.994    -2523108.118 6  -1966056.880 7  23272230.620    23272229.631
  20700433.228      536893.429 8    418358.655 9  20700456.792    20700455.233
  20560993.370     3844003.527 8   3398955.859 9  20561016.634    20561015.195
 92  8  6  1  8 20.0000000  0  6 21  3 26 28 17 23
  22115014.284    -1690930.708 7  -1317608.216 8  22115035.150    22115034.640
  21323718.057     1952934.577 7   1521767.034 8  21323740.242    21323739.762
  23183199.275     1853329.278 6   1444151.291 7  23183220.830    23183219.991
  23269383.131    -2537969.174 6  -1977636.914 7  23269402.948    23269401.389
  20701135.462      540567.216 8    421221.351 9  20701155.848    20701154.259
  20561251.612     3845358.183 8   3400011.436 9  20561274.366    20561273.107
 92  8  6  1  8 25.0000000  0  6 21  3 26 28 17 23
  22113166.603    -1700631.894 7  -1325167.580 9  22113189.118    22113188.698
  21326168.081     1965791.603 7   1531785.484 8  21326186.968    21326186.578
  23185492.118     1865379.145 6   1453540.805 7  23185514.063    23185513.103
  23266557.737    -2552824.487 6  -1989212.477 7  23266575.695    23266574.226
  20701831.430      544244.895 8    424087.072 9  20701855.534    20701854.065
  20561513.810     3846720.447 8   3401072.939 9  20561533.537    20561532.098
 92  8  6  1  8 30.0000000  0  6 21  3 26 28 17 23
  22111323.419    -1710327.856 7  -1332722.867 9  22111344.015    22111343.475
  21328614.238     1978660.839 7   1541813.457 8  21328636.003    21328635.673
  23187785.170     1877439.196 6   1462938.232 7  23187808.644    23187807.985
  23263731.144    -2567674.044 6  -2000783.555 7  23263750.331    23263748.442
  20702536.092      547926.248 8    426955.660 9  20702556.059    20702554.710
  20561773.011     3848090.164 8   3402140.249 9  20561794.236    20561793.007
 92  8  6  1  8 35.0000000  0  6 21  3 26 28 17 23
  22109482.334    -1720018.894 7  -1340274.323 9  22109499.692    22109499.572
  21331066.720     1991542.116 7   1551850.812 8  21331087.046    21331086.446
  23190082.630     1889509.445 6   1472343.629 7  23190105.594    23190104.365
  23260903.142    -2582517.953 6  -2012350.235 7  23260924.877    23260924.397
  20703235.059      551610.983 8    429826.881 9  20703257.093    20703255.894
  20562037.218     3849467.221 8   3403213.283 9  20562056.524    20562054.936
 92  8  6  1  8 40.0000000  0  6 21  3 26 28 17 23
  22107638.251    -1729704.585 7  -1347821.610 9  22107656.388    22107656.178
  21333519.322     2004435.917 7   1561897.933 8  21333540.727    21333540.307
  23192381.948     1901590.582 6   1481757.496 7  23192404.133    23192403.383
  23258085.093    -2597355.678 6  -2023912.093 7  23258101.581    23258100.322
  20703939.331      555299.791 8    432701.275 9  20703959.207    20703957.738
  20562299.896     3850852.158 9   3404292.453 9  20562319.982    20562318.483
 92  8  6  1  8 45.0000000  0  6 21  3 26 28 17 23
  22105793.148    -1739385.282 7  -1355364.996 9  22105814.223    22105813.804
  21335976.211     2017341.830 7   1571954.473 8  21335996.627    21335996.297
  23194683.245     1913682.076 6   1491179.440 7  23194705.729    23194703.871
  23255261.258    -2612187.833 6  -2035469.607 7  23255278.975    23255277.027
  20704637.937      558992.387 8    435578.623 9  20704661.951    20704660.632
  20562564.253     3852244.635 8   3405377.501 9  20562585.238    20562583.710
 92  8  6  1  8 50.0000000  0  6 21  3 26 28 17 23
  22103952.542    -1749060.935 7  -1362904.462 9  22103973.228    22103973.108
  21338432.830     2030259.969 7   1582020.552 8  21338454.865    21338454.236
  23196987.060     1925783.813 6   1500609.367 8  23197008.315    23197007.356
  23252434.724    -2627014.492 6  -2047022.853 7  23252457.599    23252455.980
  20705346.227      562689.019 8    438459.115 9  20705365.414    20705363.915
  20562830.559     3853644.791 8   3406468.535 9  20562851.514    20562849.895
 92  8  6  1  8 55.0000000  0  6 21  3 26 28 17 23
  22102111.577    -1758731.812 7  -1370440.200 9  22102133.252    22102133.102
  21340894.066     2043190.268 7   1592096.108 8  21340915.412    21340914.812
  23199289.496     1937895.421 6   1510046.970 7  23199313.180    23199312.370
  23249617.545    -2641835.723 6  -2058571.856 7  23249637.571    23249635.892
  20706045.103      566389.636 8    441342.715 9  20706069.656    20706068.367
  20563100.162     3855052.532 8   3407565.472 9  20563119.319    20563117.820
 92  8  6  1  9  0.0000000  0  6 21  3 26 28 17 23
  22100273.909    -1768397.758 7  -1377972.104 9  22100293.965    22100293.365
  21343357.671     2056132.949 7   1602181.312 8  21343378.117    21343377.997
  23201599.757     1950016.957 6   1519492.320 7  23201619.453    23201618.883
  23246797.217    -2656651.160 6  -2070116.355 7  23246817.843    23246816.284
  20706753.933      570094.662 8    444229.746 9  20706774.858    20706773.089
  20563365.119     3856468.183 8   3408668.581 9  20563388.682    20563387.123
 92  8  6  1  9  5.0000000  0  6 21  3 26 28 17 23
  22098434.922    -1778058.816 7  -1385500.197 9  22098455.008    22098454.678
  21345824.213     2069087.941 7   1612276.098 8  21345843.580    21345843.220
  23203910.137     1962148.196 6   1528945.240 7  23203928.275    23203927.975
  23243980.097    -2671460.891 6  -2081656.386 7  23243999.584    23243997.455
  20707457.635      573803.848 8    447120.020 9  20707480.540    20707478.771
  20563641.827     3857891.555 9   3409777.699 9  20563659.425    20563658.076
 92  8  6  1  9 10.0000000  0  6 21  3 26 28 17 23
  22096599.143    -1787714.684 7  -1393024.242 9  22096617.850    22096617.400
  21348289.737     2082055.439 7   1622380.639 8  21348311.322    21348310.392
  23206217.700     1974289.037 6   1538405.625 7  23206238.505    23206238.355
  23241162.948    -2686264.555 6  -2093191.715 7  23241182.554    23241180.815
  20708167.364      577517.608 8    450013.863 9  20708187.120    20708185.801
  20563908.882     3859322.919 8   3410893.047 9  20563931.966    20563930.437
 92  8  6  1  9 15.0000000  0  6 21  3 26 28 17 23
  22094763.484    -1797365.676 7  -1400544.492 9  22094781.291    22094780.692
  21350761.945     2095035.059 7   1632494.623 8  21350781.132    21350780.382
  23208530.059     1986438.917 6   1547873.064 7  23208550.865    23208550.505
  23238346.847    -2701062.565 6  -2104722.632 7  23238366.783    23238365.434
  20708872.356      581235.809 8    452911.155 9  20708894.990    20708893.371
  20564186.730     3860761.874 9   3412014.312 9  20564205.737    20564204.328
 92  8  6  1  9 20.0000000  0  6 21  3 26 28 17 23
  22092924.377    -1807011.789 7  -1408060.931 9  22092945.662    22092945.362
  21353234.333     2108027.044 7   1642618.246 8  21353253.250    21353252.831
  23210840.679     1998597.738 6   1557347.452 8  23210864.723    23210864.333
  23235532.396    -2715854.740 6  -2116248.991 7  23235551.822    23235551.013
  20709583.404      584958.409 8    455811.883 9  20709603.040    20709601.811
  20564457.712     3862208.633 8   3413141.656 9  20564481.186    20564479.687
 92  8  6  1  9 25.0000000  0  6 21  3 26 28 17 23
  22091089.347    -1816653.252 7  -1415573.753 9  22091111.052    22091110.422
  21355707.651     2121031.192 7   1652751.347 8  21355728.067    21355727.557
  23213157.595     2010765.117 6   1566828.531 8  23213179.960    23213178.671
  23232719.863    -2730641.154 6  -2127770.873 7  23232738.870    23232735.992
  20710290.914      588685.035 8    458715.745 9  20710312.229    20710310.730
  20564738.318     3863663.078 8   3414274.992 9  20564757.834    20564756.395
 92  8  6  1  9 30.0000000  0  6 21  3 26 28 17 23
  22089257.585    -1826290.220 7  -1423083.079 9  22089277.192    22089276.682
  21358185.016     2134047.601 7   1662894.004 8  21358204.982    21358204.593
  23215477.060     2022941.056 6   1576316.272 8  23215496.696    23215496.486
  23229907.450    -2745421.853 6  -2139288.300 7  23229925.497    23229923.609
  20711003.611      592415.924 8    461622.927 9  20711022.198    20711020.759
  20565012.238     3865125.083 8   3415414.218 9  20565036.042    20565034.663
 92  8  6  1  9 35.0000000  0  6 21  3 26 28 17 23
  22087424.084    -1835922.638 7  -1430588.849 9  22087444.231    22087444.081
  21360662.981     2147076.290 7   1673046.216 8  21360684.116    21360683.756
  23217796.554     2035125.567 6   1585810.686 8  23217815.771    23217814.751
  23227094.767    -2760196.785 6  -2150801.226 7  23227113.804    23227112.125
  20711711.960      596151.314 8    464533.631 9  20711733.066    20711731.237
  20565296.741     3866594.704 9   3416559.379 9  20565315.898    20565314.519
 92  8  6  1  9 40.0000000  0  6 21  3 26 28 17 23
  22085589.924    -1845550.692 7  -1438091.230 9  22085612.349    22085611.809
  21363145.112     2160116.867 7   1683207.708 8  21363165.708    21363165.318
  23220115.059     2047318.453 6   1595311.637 7  23220135.894    23220134.815
  23224285.742    -2774966.331 6  -2162309.962 7  23224303.609    23224301.780
  20712425.766      599890.851 8    467447.551 9  20712444.743    20712443.094
  20565577.587     3868071.482 8   3417710.118 9  20565596.834    20565595.185
 92  8  6  1  9 45.0000000  0  6 21  3 26 28 17 23
  22083757.173    -1855174.272 7  -1445590.109 9  22083780.677    22083779.987
  21365626.075     2173169.676 7   1693378.721 8  21365649.459    21365649.399
  23222436.382     2059519.953 6   1604819.298 7  23222457.547    23222457.068
  23221476.207    -2789730.405 6  -2173814.425 7  23221494.284    23221492.515
  20713134.535      603634.716 8    470364.851 9  20713157.050    20713155.671
  20565859.212     3869555.564 8   3418866.538 9  20565879.118    20565877.529
 92  8  6  1  9 50.0000000  0  6 21  3 26 28 17 23
  22081931.317    -1864793.290 7  -1453085.443 9  22081950.444    22081950.024
  21368112.883     2186234.865 7   1703559.383 8  21368135.727    21368136.237
  23224763.461     2071730.317 6   1614333.862 8  23224781.388    23224780.819
  23218665.772    -2804488.919 6  -2185314.567 7  23218685.319    23218684.359
  20713849.750      607383.260 8    473285.780 9  20713870.676    20713869.027
  20566144.195     3871047.049 9   3420028.740 9  20566163.172    20566161.433
 92  8  6  1  9 55.0000000  0  6 21  3 26 28 17 23
  22080099.255    -1874407.898 7  -1460577.333 9  22080120.780    22080120.361
  21370600.651     2199312.071 7   1713749.408 8  21370624.395    21370624.335
  23227086.583     2083949.244 6   1623855.103 8  23227106.459    23227105.529
  23215857.916    -2819242.093 6  -2196810.527 7  23215878.152    23215876.563
  20714563.976      611136.370 8    476210.295 9  20714584.631    20714583.013
  20566425.220     3872545.641 9   3421196.475 9  20566448.364    20566446.565
 92  8  6  1 10  0.0000000  0  6 21  3 26 28 17 23
  22078268.693    -1884018.211 7  -1468065.883 9  22078291.927    22078291.597
  21373089.738     2212401.142 7   1723948.674 8  21373115.010    21373115.070
  23229412.882     2096176.454 6   1633382.798 7  23229433.268    23229432.339
  23213052.818    -2833990.234 6  -2208302.589 7  23213071.675    23213069.696
  20715280.690      614893.998 8    479138.313 9  20715299.756    20715297.958
  20566714.160     3874050.927 9   3422369.426 9  20566734.696    20566733.167
 92  8  6  1 10  5.0000000  0  6 21  3 26 28 17 23
  22076442.807    -1893623.897 7  -1475550.827 9  22076464.272    22076463.732
  21375584.521     2225502.175 7   1734157.275 8  21375607.905    21375608.054
  23231735.104     2108412.038 6   1642917.013 7  23231761.306    23231760.647
  23210244.632    -2848733.399 6  -2219790.763 7  23210265.857    23210264.089
  20715995.065      618656.445 8    482070.093 9  20716015.541    20716014.162
  20567000.222     3875562.834 9   3423547.536 9  20567022.437    20567020.848
 92  8  6  1 10 10.0000000  0  6 21  3 26 28 17 23
  22074617.580    -1903225.261 7  -1483032.403 9  22074637.007    22074636.587
  21378079.873     2238614.924 7   1744374.991 8  21378103.317    21378103.317
  23234066.950     2120655.700 6   1652457.526 7  23234091.473    23234090.664
  23207439.714    -2863471.880 6  -2231275.289 7  23207461.719    23207459.800
  20716710.969      622423.270 8    485005.282 9  20716732.345    20716730.786
  20567289.792     3877080.982 9   3424730.511 9  20567311.347    20567309.608
 92  8  6  1 10 15.0000000  0  6 21  3 26 28 17 23
  22072787.797    -1912822.137 7  -1490510.477 9  22072810.491    22072810.461
  21380579.543     2251739.531 7   1754601.954 8  21380600.648    21380600.978
  23236399.006     2132907.649 6   1662004.507 8  23236422.719    23236421.790
  23204636.744    -2878205.442 6  -2242755.983 7  23204657.910    23204656.141
  20717429.902      626194.449 8    487943.860 9  20717450.198    20717448.699
  20567578.672     3878605.726 9   3425918.627 9  20567601.366    20567599.777
 92  8  6  1 10 20.0000000  0  6 21  3 26 28 17 23
  22070964.099    -1922413.783 7  -1497984.483 9  22070985.745    22070984.815
  21383078.133     2264876.607 7   1764838.632 8  21383100.737    21383100.677
  23238735.228     2145168.530 6   1671558.423 7  23238756.214    23238754.985
  23201832.725    -2892933.523 6  -2254232.405 7  23201854.850    23201853.261
  20718145.956      629970.443 8    490886.189 9  20718168.590    20718167.211
  20567872.498     3880137.618 9   3427112.306 9  20567893.064    20567891.085
 92  8  6  1 10 25.0000000  0  6 21  3 26 28 17 23
  22069142.201    -1932000.579 7  -1505454.704 9  22069161.387    22069160.908
  21385581.280     2278025.880 7   1775084.805 8  21385602.865    21385603.105
  23241070.851     2157438.114 6   1681119.130 8  23241091.297    23241089.798
  23199032.814    -2907656.314 6  -2265704.707 7  23199052.870    23199051.071
  20718868.666      633751.127 8    493832.177 9  20718887.852    20718886.264
  20568160.329     3881676.174 9   3428311.185 9  20568185.841    20568184.072
 92  8  6  1 10 30.0000000  0  6 21  3 26 28 17 23
  22067316.854    -1941582.383 7  -1512921.039 9  22067337.660    22067337.420
  21388085.087     2291187.352 7   1785340.492 8  21388107.451    21388107.571
  23243405.755     2169716.457 6   1690686.668 8  23243427.760    23243426.830
  23196231.583    -2922373.720 6  -2277172.809 7  23196252.658    23196250.920
  20719585.979      637536.777 8    496782.032 9  20719608.434    20719606.965
  20568461.291     3883221.558 9   3429515.383 9  20568479.908    20568478.139
 92  8  6  1 10 35.0000000  0  6 21  3 26 28 17 23
  22065496.095    -1951159.342 7  -1520383.596 9  22065515.252    22065514.742
  21390593.960     2304360.887 7   1795605.586 8  21390614.226    21390614.496
  23245741.738     2182003.278 6   1700260.808 7  23245765.871    23245764.222
  23193433.470    -2937085.879 6  -2288636.816 7  23193452.447    23193451.398
  20720310.547      641327.417 8    499735.775 9  20720329.644    20720328.115
  20568750.440     3884773.547 9   3430724.724 9  20568775.203    20568773.464
 92  8  6  1 10 40.0000000  0  6 21  3 26 28 17 23
  22063677.194    -1960731.694 7  -1527842.572 9  22063693.982    22063693.893
  21393102.204     2317546.375 7   1805879.985 8  21393123.609    21393123.579
  23248083.027     2194298.470 6   1709841.461 8  23248105.362    23248104.192
  23190631.940    -2951792.941 6  -2300096.859 7  23190653.794    23190652.505
  20721030.799      645122.903 8    502693.294 9  20721052.054    20721050.465
  20569048.044     3886331.758 8   3431938.925 9  20569071.758    20569069.869
 92  8  6  1 10 45.0000000  0  6 21  3 26 28 17 23
  22061853.497    -1970298.984 7  -1535297.597 9  22061873.463    22061872.683
  21395613.775     2330744.337 7   1816164.097 8  21395635.030    21395634.970
  23250425.305     2206602.434 6   1719428.978 8  23250446.771    23250445.601
  23187836.345    -2966494.444 6  -2311552.561 7  23187856.701    23187854.782
  20721757.196      648923.534 8    505654.819 9  20721775.124    20721773.775
  20569348.766     3887896.515 9   3433158.210 9  20569369.572    20569367.743
 92  8  6  1 10 50.0000000  0  6 21  3 26 28 17 23
  22060033.487    -1979862.000 7  -1542749.285 9  22060053.393    22060053.213
  21398127.145     2343953.876 7   1826457.248 8  21398148.730    21398148.580
  23252767.974     2218914.318 6   1729022.656 8  23252789.379    23252788.450
  23185034.994    -2981191.107 6  -2323004.512 7  23185059.937    23185058.618
  20722478.587      652728.380 8    508619.643 9  20722499.242    20722497.743
  20569649.638     3889467.108 8   3434382.050 9  20569668.345    20569666.756
 92  8  6  1 10 55.0000000  0  6 21  3 26 28 17 23
  22058215.185    -1989420.344 7  -1550197.344 9  22058234.882    22058234.342
  21400642.284     2357175.374 7   1836759.700 8  21400664.528    21400664.348
  23255109.593     2231234.490 6   1738622.779 8  23255133.846    23255133.336
  23182243.507    -2995882.709 6  -2334452.502 7  23182263.833    23182262.394
  20723203.695      656537.983 8    511588.157 9  20723223.961    20723222.582
  20569949.280     3891044.184 8   3435610.939 9  20569968.467    20569966.698
 92  8  6  1 11  0.0000000  0  6 21  3 26 28 17 23
  22056393.646    -1998973.984 7  -1557641.738 9  22056416.700    22056416.071
  21403159.071     2370408.633 7   1847071.331 8  21403182.965    21403182.335
  23257458.047     2243562.732 6   1748229.194 8  23257480.142    23257479.092
  23179447.253    -3010569.393 6  -2345896.661 7  23179469.227    23179467.579
  20723930.451      660352.333 8    514560.377 9  20723950.118    20723948.559
  20570247.154     3892627.527 8   3436844.717 9  20570269.609    20570268.170
 92  8  6  1 11  5.0000000  0  6 21  3 26 28 17 23
  22054576.664    -2008523.016 7  -1565082.538 9  22054599.329    22054599.179
  21405682.364     2383653.553 7   1857392.042 8  21405703.170    21405702.900
  23259802.004     2255898.817 6   1757841.721 8  23259827.546    23259826.377
  23176654.206    -3025251.382 6  -2357337.166 7  23176675.372    23176674.082
  20724653.461      664171.287 8    517536.185 9  20724676.785    20724675.256
  20570553.722     3894216.878 9   3438083.175 9  20570572.159    20570570.630
 92  8  6  1 11 10.0000000  0  6 21  3 26 28 17 23
  22052761.511    -2018067.110 7  -1572519.486 9  22052783.426    22052783.006
  21408203.439     2396910.708 7   1867722.285 8  21408226.044    21408225.774
  23262157.114     2268243.273 6   1767460.779 8  23262176.450    23262175.971
  23173854.954    -3039928.037 6  -2368773.518 7  23173882.625    23173881.186
  20725383.935      667995.326 8    520515.954 9  20725404.261    20725402.972
  20570853.365     3895812.606 9   3439326.597 9  20570875.759    20570874.110
 92  8  6  1 11 15.0000000  0  6 21  3 26 28 17 23
  22050949.206    -2027606.096 7  -1579952.457 9  22050968.302    22050967.673
  21410730.390     2410180.045 7   1878062.024 8  21410751.435    21410751.165
  23264507.696     2280596.163 6   1777086.407 8  23264527.543    23264526.254
  23171067.724    -3054599.208 6  -2380205.591 7  23171090.298    23171088.949
  20726110.512      671824.363 8    523499.617 9  20726133.117    20726131.528
  20571161.012     3897414.743 8   3440575.021 9  20571180.648    20571179.059
 92  8  6  1 11 20.0000000  0  6 21  3 26 28 17 23
  22049137.470    -2037139.646 7  -1587381.190 9  22049154.138    22049153.479
  21413255.901     2423461.658 7   1888411.326 8  21413278.596    21413278.326
  23266856.061     2292957.625 6   1786718.704 8  23266879.624    23266878.575
  23168280.853    -3069265.167 6  -2391633.598 7  23168300.220    23168298.151
  20726842.665      675658.446 8    526487.213 9  20726862.751    20726861.013
  20571463.862     3899023.314 8   3441828.452 9  20571486.646    20571485.207
 92  8  6  1 11 25.0000000  0  6 21  3 26 28 17 23
  22047321.687    -2046667.819 7  -1594805.736 9  22047340.634    22047340.214
  21415787.978     2436755.195 7   1898769.916 8  21415808.394    21415808.155
  23269213.868     2305327.541 6   1796357.596 8  23269233.745    23269232.486
  23165488.436    -3083926.421 6  -2403057.948 7  23165510.201    23165508.432
  20727571.311      679497.240 8    529478.476 9  20727593.346    20727591.697
  20571772.049     3900638.061 8   3443086.697 9  20571793.843    20571792.404
 92  8  6  1 11 30.0000000  0  6 21  3 26 28 17 23
  22045507.583    -2056190.942 7  -1602226.343 9  22045528.898    22045528.358
  21418318.587     2450060.365 7   1909137.578 8  21418340.352    21418339.902
  23271568.378     2317705.573 6   1806002.811 8  23271589.124    23271588.225
  23162700.666    -3098583.450 6  -2414479.008 7  23162720.662    23162719.703
  20728303.824      683340.542 8    532473.257 9  20728324.659    20728322.861
  20572081.135     3902258.510 8   3444349.384 9  20572102.120    20572100.771
 92  8  6  1 11 35.0000000  0  6 21  3 26 28 17 23
  22043696.447    -2065708.357 7  -1609642.500 9  22043717.342    22043717.432
  21420854.861     2463377.747 7   1919514.755 8  21420874.377    21420874.437
  23273927.325     2330092.380 6   1815654.868 8  23273945.853    23273945.073
  23159911.097    -3113235.823 6  -2425896.433 7  23159932.143    23159931.183
  20729034.778      687188.676 8    535471.805 9  20729057.052    20729055.194
  20572390.580     3903885.121 8   3445616.876 9  20572411.476    20572410.277
 92  8  6  1 11 40.0000000  0  6 21  3 26 28 17 23
  22041888.608    -2075220.133 7  -1617054.265 9  22041907.405    22041907.105
  21423389.456     2476707.301 7   1929901.414 8  21423411.041    21423410.681
  23276280.546     2342487.991 6   1825313.781 8  23276304.979    23276304.110
  23157124.466    -3127883.583 6  -2437310.268 7  23157145.212    23157143.983
  20729771.188      691041.544 8    538474.033 9  20729790.495    20729788.906
  20572699.247     3905517.917 8   3446889.183 9  20572722.331    20572720.952
 92  8  6  1 11 45.0000000  0  6 21  3 26 28 17 23
  22040079.870    -2084726.583 7  -1624461.883 9  22040098.008    22040097.738
  21425928.009     2490048.311 7   1940296.995 8  21425949.804    21425949.714
  23278648.697     2354892.000 6   1834979.235 8  23278665.515    23278664.556
  23154342.662    -3142527.317 6  -2448720.958 7  23154358.341    23154356.752
  20730501.482      694898.799 8    541479.689 9  20730524.357    20730522.678
  20573014.299     3907156.351 8   3448165.885 9  20573034.025    20573032.736
 92  8  6  1 11 50.0000000  0  6 21  3 26 28 17 23
  22038272.931    -2094227.315 7  -1631865.042 9  22038290.469    22038290.049
  21428471.988     2503401.146 7   1950701.795 8  21428490.695    21428490.545
  23281009.443     2367304.966 6   1844651.675 8  23281027.580    23281026.411
  23151549.706    -3157166.626 6  -2460128.206 7  23151572.340    23151571.381
  20731237.713      698761.008 8    544489.199 9  20731259.268    20731257.619
  20573329.470     3908800.832 8   3449447.303 9  20573347.188    20573345.629
 92  8  6  1 11 55.0000000  0  6 21  3 26 28 17 23
  22036463.204    -2103722.138 7  -1639263.602 9  22036483.350    22036483.590
  21431014.827     2516765.930 7   1961115.907 8  21431033.984    21431034.044
  23283373.456     2379726.885 6   1854331.086 8  23283391.593    23283390.484
  23148769.580    -3171801.228 6  -2471531.788 7  23148787.388    23148786.459
  20731975.772      702628.057 8    547502.489 9  20731995.258    20731993.370
  20573641.195     3910451.507 8   3450733.547 9  20573661.281    20573660.052
 92  8  6  1 12  0.0000000  0  6 21  3 26 28 17 23
  22034657.524    -2113211.345 7  -1646657.781 9  22034677.580    22034677.250
  21433560.635     2530142.280 7   1971539.033 8  21433579.791    21433579.851
  23285741.097     2392157.510 6   1864017.283 8  23285757.016    23285755.847
  23145979.832    -3186431.412 6  -2482931.925 7  23146003.755    23146002.226
  20732710.563      706499.564 8    550519.248 9  20732731.639    20732730.050
  20573957.745     3912108.059 8   3452024.365 9  20573976.602    20573975.043
 92  8  6  1 12  5.0000000  0  6 21  3 26 28 17 23
  22032855.951    -2122694.606 7  -1654047.330 9  22032873.009    22032873.009
  21436106.053     2543530.447 7   1981971.360 8  21436127.518    21436127.158
  23288103.791     2404596.925 6   1873710.339 8  23288124.057    23288122.678
  23143199.616    -3201056.967 6  -2494328.458 7  23143220.632    23143218.893
  20733450.001      710375.784 8    553539.674 9  20733469.518    20733467.659
  20574271.718     3913770.884 8   3453320.075 9  20574293.123    20574291.534
 92  8  6  1 12 10.0000000  0  6 21  3 26 28 17 23
  22031052.430    -2132171.610 7  -1661431.998 9  22031069.818    22031069.578
  21438655.967     2556930.589 7   1992413.020 8  21438677.223    21438677.103
  23290471.672     2417045.190 6   1883410.279 8  23290493.167    23290491.908
  23140417.272    -3215677.454 6  -2505721.042 7  23140438.228    23140436.819
  20734186.591      714257.074 8    556564.056 9  20734208.056    20734206.168
  20574590.188     3915440.513 8   3454621.086 9  20574610.663    20574609.134
 92  8  6  1 12 15.0000000  0  6 21  3 26 28 17 23
  22029243.932    -2141642.106 7  -1668811.610 9  22029267.525    22029267.435
  21441210.949     2570343.021 7   2002864.261 8  21441229.476    21441229.236
  23292841.022     2429502.592 6   1893117.347 7  23292863.716    23292862.037
  23137637.177    -3230292.527 6  -2517109.401 7  23137657.203    23137655.854
  20734926.989      718143.669 8    559592.571 9  20734947.584    20734945.876
  20574908.507     3917117.444 8   3455927.786 9  20574929.703    20574928.324
 92  8  6  1 12 20.0000000  0  6 21  3 26 28 17 23
  22027445.537    -2151106.826 7  -1676186.712 9  22027466.552    22027465.893
  21443766.050     2583767.130 7   2013324.601 8  21443784.187    21443783.857
  23295216.877     2441968.692 6   1902831.186 7  23295235.464    23295233.845
  23134854.054    -3244902.661 6  -2528493.917 7  23134876.628    23134876.119
  20735667.206      722034.818 8    562624.637 9  20735688.072    20735686.423
  20575227.816     3918801.078 8   3457239.711 9  20575250.211    20575248.682
 92  8  6  1 12 25.0000000  0  6 21  3 26 28 17 23
  22025646.812    -2160565.558 7  -1683557.140 9  22025666.568    22025666.089
  21446320.341     2597203.164 7   2023794.239 8  21446340.877    21446341.057
  23297591.083     2454443.974 6   1912552.182 8  23297610.150    23297607.992
  23132074.858    -3259507.334 6  -2539874.172 7  23132097.702    23132096.293
  20736408.053      725930.726 8    565660.407 9  20736429.279    20736427.660
  20575552.551     3920491.947 8   3458557.269 9  20575571.828    20575570.599
 92  8  6  1 12 30.0000000  0  6 21  3 26 28 17 23
  22023843.141    -2170018.224 7  -1690922.843 9  22023867.544    22023867.544
  21448878.740     2610651.179 7   2034273.201 8  21448899.966    21448899.696
  23299965.470     2466928.483 6   1922280.377 7  23299985.286    23299983.697
  23129301.418    -3274106.351 6  -2551250.030 7  23129319.675    23129318.356
  20737153.278      729831.404 8    568699.895 9  20737171.715    20737169.826
  20575873.419     3922190.521 8   3459880.834 9  20575895.064    20575893.835
 92  8  6  1 12 35.0000000  0  6 21  3 26 28 17 23
  22022047.534    -2179464.871 7  -1698283.861 9  22022070.018    22022069.928
  21451441.396     2624111.115 7   2044761.459 8  21451461.182    21451460.733
  23302344.323     2479422.205 6   1932015.747 7  23302362.430    23302361.111
  23126523.361    -3288699.934 6  -2562621.647 7  23126542.848    23126541.169
  20737893.645      733736.875 8    571743.116 9  20737914.720    20737913.281
  20576202.352     3923896.695 8   3461210.324 9  20576219.620    20576218.420
 92  8  6  1 12 40.0000000  0  6 21  3 26 28 17 23
  22020253.366    -2188905.516 7  -1705640.204 9  22020273.422    22020273.272
  21454004.082     2637583.003 7   2055259.022 8  21454024.618    21454025.127
  23304720.808     2491925.042 6   1941758.205 7  23304742.213    23304740.684
  23123747.133    -3303287.928 6  -2573988.908 7  23123766.500    23123764.701
  20738638.180      737647.434 8    574790.307 9  20738659.015    20738657.396
  20576523.879     3925610.405 8   3462545.682 9  20576545.824    20576544.535
 92  8  6  1 12 45.0000000  0  6 21  3 26 28 17 23
  22018456.560    -2198340.686 7  -1712992.279 9  22018478.085    22018477.545
  21456571.535     2651066.359 7   2065765.526 8  21456590.691    21456590.571
  23307102.059     2504436.456 6   1951507.360 7  23307122.895    23307121.006
  23120969.826    -3317870.785 6  -2585352.162 7  23120992.010    23120990.032
  20739382.564      741562.896 8    577841.315 9  20739404.149    20739402.500
  20576852.332     3927331.461 8   3463886.768 9  20576873.377    20576872.118
 92  8  6  1 12 50.0000000  0  6 21  3 26 28 17 23
  22016664.670    -2207770.075 7  -1720339.856 9  22016683.497    22016683.197
  21459137.878     2664561.522 7   2076281.238 8  21459158.594    21459158.114
  23309483.910     2516956.262 6   1961263.058 7  23309505.375    23309504.056
  23118195.037    -3332448.260 6  -2596711.238 7  23118217.971    23118215.962
  20740130.157      745483.314 8    580896.188 9  20740150.093    20740148.534
  20577182.103     3929060.125 8   3465233.780 9  20577202.489    20577200.900
 92  8  6  1 12 55.0000000  0  6 21  3 26 28 17 23
  22014868.614    -2217193.515 7  -1727682.786 9  22014890.678    22014889.779
  21461707.519     2678068.457 7   2086806.114 8  21461728.834    21461728.924
  23311869.479     2529484.658 6   1971025.444 7  23311889.625    23311887.946
  23115424.355    -3347020.286 6  -2608066.053 7  23115444.501    23115443.092
  20740877.869      749408.646 8    583954.887 9  20740897.146    20740895.497
  20577512.055     3930796.451 8   3466586.764 9  20577532.890    20577531.331
 92  8  6  1 13  0.0000000  0  6 21  3 26 28 17 23
  22013079.512    -2226610.597 7  -1735020.769 9  22013098.549    22013097.680
  21464279.738     2691587.513 7   2097340.438 8  21464301.593    21464301.563
  23314252.589     2542022.249 6   1980794.994 7  23314275.163    23314273.125
  23112652.024    -3361586.483 6  -2619416.334 7  23112673.009    23112671.660
  20741624.712      753339.208 8    587017.659 9  20741644.918    20741643.509
  20577844.465     3932540.797 8   3467945.995 9  20577864.581    20577863.262
 92  8  6  1 13  5.0000000  0  6 21  3 26 28 17 23
  22011285.134    -2236021.347 7  -1742353.819 9  22011307.229    22011307.349
  21466855.735     2705118.606 7   2107884.138 8  21466876.511    21466876.151
  23316643.404     2554569.107 6   1990571.755 7  23316662.411    23316660.971
  23109883.021    -3376146.864 6  -2630762.073 7  23109902.118    23109900.469
  20742373.504      757275.024 8    590084.532 9  20742393.949    20742392.301
  20578174.236     3934293.337 8   3469311.613 9  20578198.070    20578196.661
 92  8  6  1 13 10.0000000  0  6 21  3 26 28 17 23
  22009497.742    -2245426.161 7  -1749682.237 9  22009517.768    22009517.108
  21469435.239     2718661.488 7   2118437.019 8  21469453.557    21469453.137
  23319027.473     2567124.989 6   2000355.559 7  23319052.236    23319050.797
  23107112.249    -3390701.675 6  -2642103.485 7  23107132.755    23107131.076
  20743121.096      761215.868 8    593155.316 9  20743144.060    20743142.471
  20578514.951     3936053.804 8   3470683.403 9  20578533.028    20578531.679
 92  8  6  1 13 15.0000000  0  6 21  3 26 28 17 23
  22007707.561    -2254824.940 7  -1757005.953 9  22007729.236    22007728.756
  21472010.996     2732216.181 7   2128999.115 8  21472033.001    21472032.851
  23321419.967     2579690.056 6   2010146.529 7  23321442.781    23321441.432
  23104346.484    -3405250.782 6  -2653440.448 7  23104363.632    23104362.403
  20743874.654      765161.846 8    596230.106 9  20743894.830    20743893.242
  20578849.219     3937822.144 8   3472061.336 9  20578869.605    20578868.166
 92  8  6  1 13 20.0000000  0  6 21  3 26 28 17 23
  22005922.027    -2264217.800 7  -1764325.065 9  22005942.023    22005941.304
  21474592.119     2745782.706 7   2139570.433 8  21474614.514    21474614.574
  23323811.501     2592264.118 6   2019944.488 7  23323835.545    23323834.615
  23101571.515    -3419794.114 6  -2664772.912 7  23101596.548    23101595.079
  20744628.453      769112.709 9    599308.703 9  20744646.500    20744645.091
  20579187.355     3939598.034 8   3473445.147 9  20579207.591    20579206.002
 92  8  6  1 13 25.0000000  0  6 21  3 26 28 17 23
  22004136.553    -2273604.866 7  -1771639.662 9  22004155.500    22004155.290
  21477180.287     2759360.979 7   2150150.897 8  21477198.755    21477198.395
  23326208.252     2604847.065 6   2029749.380 7  23326230.407    23326228.638
  23098810.246    -3434331.555 6  -2676100.774 7  23098830.093    23098828.144
  20745378.353      773068.439 8    602391.088 9  20745399.489    20745397.780
  20579527.530     3941381.568 8   3474834.916 9  20579546.776    20579545.397
 92  8  6  1 13 30.0000000  0  6 21  3 26 28 17 23
  22002349.970    -2282986.362 7  -1778949.906 9  22002370.206    22002369.457
  21479764.528     2772950.760 7   2160740.331 8  21479784.884    21479784.165
  23328609.200     2617438.712 6   2039561.058 7  23328625.928    23328625.509
  23096044.241    -3448863.247 6  -2687424.165 7  23096064.837    23096063.308
  20746132.751      777028.652 8    605476.966 9  20746153.107    20746151.368
  20579865.486     3943172.681 8   3476230.593 9  20579887.520    20579886.411
 92  8  6  1 13 35.0000000  0  6 21  3 26 28 17 23
  22000564.256    -2292361.908 7  -1786255.518 9  22000586.141    22000585.811
  21482351.348     2786552.257 7   2171338.903 8  21482372.963    21482372.273
  23331004.961     2630039.221 6   2049379.620 7  23331023.818    23331023.219
  23093278.836    -3463388.951 6  -2698742.896 7  23093300.001    23093298.982
  20746887.239      780993.380 8    608566.369 9  20746907.385    20746905.916
  20580212.256     3944971.695 8   3477632.417 9  20580230.123    20580228.714
 92  8  6  1 13 40.0000000  0  6 21  3 26 28 17 23
  21998781.421    -2301731.319 7  -1793556.360 9  21998803.006    21998802.826
  21484942.574     2800165.820 7   2181946.862 8  21484963.709    21484962.930
  23333402.012     2642649.028 6   2059205.448 7  23333423.537    23333422.608
  23090519.366    -3477908.124 6  -2710056.525 7  23090537.563    23090536.035
  20747642.956      784963.159 8    611659.700 9  20747663.252    20747661.333
  20580551.051     3946779.003 8   3479040.712 9  20580574.015    20580572.546
 92  8  6  1 13 45.0000000  0  6 21  3 26 28 17 23
  21997002.002    -2311095.066 7  -1800852.784 9  21997021.579    21997021.039
  21487536.048     2813791.154 7   2192564.000 8  21487556.374    21487556.134
  23335803.439     2655267.776 6   2069038.227 7  23335824.815    23335824.335
  23087755.340    -3492420.752 6  -2721365.070 7  23087775.935    23087774.736
  20748397.713      788937.679 8    614756.726 9  20748419.298    20748417.679
  20580900.009     3948594.183 8   3480455.138 9  20580919.436    20580917.937
 92  8  6  1 13 50.0000000  0  6 21  3 26 28 17 23
  21995223.334    -2320453.300 7  -1808144.908 9  21995240.242    21995240.392
  21490130.932     2827428.296 7   2203190.347 8  21490151.228    21490151.138
  23338205.437     2667895.396 6   2078877.933 7  23338228.011    23338226.662
  23084993.921    -3506926.666 6  -2732668.374 7  23085015.296    23085013.887
  20749155.798      792916.819 8    617857.355 9  20749176.364    20749174.925
  20581244.381     3950417.280 8   3481875.734 9  20581266.296    20581264.887
 92  8  6  1 13 55.0000000  0  6 21  3 26 28 17 23
  21993439.599    -2329805.914 7  -1815432.653 9  21993460.824    21993460.584
  21492727.644     2841077.299 7   2213825.925 8  21492748.720    21492748.090
  23340614.089     2680531.990 6   2088724.617 7  23340632.736    23340631.477
  23082236.340    -3521425.592 6  -2743966.235 7  23082256.546    23082254.808
  20749914.933      796900.550 8    620961.564 9  20749934.419    20749933.100
  20581592.590     3952248.466 8   3483302.632 9  20581614.775    20581613.396
 92  8  6  1 14  0.0000000  0  6 21  3 26 28 17 23
  21991660.720    -2339153.075 7  -1822716.152 9  21991681.885    21991681.676
  21495326.785     2854738.101 7   2224470.688 8  21495348.040    21495348.160
  23343022.382     2693177.620 6   2098578.362 7  23343038.990    23343038.091
  23079481.038    -3535917.450 6  -2755258.586 7  23079498.396    23079496.927
  20750671.129      800888.826 8    624069.311 9  20750693.374    20750691.845
  20581946.165     3954087.741 8   3484735.834 9  20581964.812    20581963.313
 92  8  6  1 14  5.0000000  0  6 21  3 26 28 17 23
  21989884.210    -2348494.672 7  -1829995.306 9  21989904.596    21989904.116
  21497928.774     2868410.879 7   2235124.802 8  21497950.119    21497949.669
  23345429.116     2705832.513 6   2108439.309 7  23345447.283    23345446.624
  23076719.649    -3550402.053 6  -2766545.283 7  23076742.494    23076740.425
  20751432.092      804881.713 8    627180.652 9  20751453.228    20751451.759
  20582293.145     3955935.163 8   3486175.385 9  20582316.409    20582315.240
 92  8  6  1 14 10.0000000  0  6 21  3 26 28 17 23
  21988110.068    -2357831.089 7  -1837270.436 8  21988127.696    21988127.366
  21500534.360     2882095.335 7   2245788.010 8  21500554.026    21500553.517
  23347839.477     2718496.285 6   2118307.169 7  23347856.805    23347856.445
  23073967.585    -3564879.539 6  -2777826.442 7  23073987.101    23073985.722
  20752191.227      808878.963 8    630295.390 9  20752213.591    20752212.602
  20582649.538     3957790.446 8   3487621.061 9  20582669.594    20582667.975
 92  8  6  1 14 15.0000000  0  6 21  3 26 28 17 23
  21986330.320    -2367162.482 7  -1844541.650 9  21986351.815    21986351.995
  21503139.436     2895791.498 7   2256460.342 8  21503160.482    21503160.062
  23350246.331     2731168.653 6   2128181.749 7  23350268.426    23350267.646
  23071211.623    -3579349.992 6  -2789102.117 7  23071233.358    23071232.188
  20752954.289      812880.392 8    633413.391 9  20752975.244    20752973.835
  20583002.934     3959653.366 8   3489072.691 9  20583024.129    20583022.360
 92  8  6  1 14 20.0000000  0  6 21  3 26 28 17 23
  21984559.506    -2376488.704 7  -1851808.833 9  21984577.284    21984577.194
  21505747.811     2909499.543 7   2267141.924 8  21505768.826    21505768.406
  23352663.168     2743849.851 6   2138063.195 7  23352681.785    23352680.885
  23068462.436    -3593813.445 6  -2800372.329 7  23068481.053    23068480.064
  20753717.980      816886.343 8    636534.911 9  20753737.586    20753736.207
  20583358.607     3961524.103 8   3490530.403 9  20583380.043    20583378.214
 92  8  6  1 14 25.0000000  0  6 21  3 26 28 17 23
  21982783.326    -2385809.993 7  -1859072.166 9  21982803.562    21982802.872
  21508360.592     2923219.569 7   2277832.846 8  21508379.659    21508379.569
  23355076.977     2756539.693 6   2147951.379 7  23355096.283    23355095.564
  23065713.009    -3608269.897 6  -2811637.087 7  23065730.277    23065728.389
  20754479.663      820896.793 8    639659.939 9  20754500.858    20754499.119
  20583718.178     3963402.419 8   3491994.035 9  20583737.395    20583736.106
 92  8  6  1 14 30.0000000  0  6 21  3 26 28 17 23
  21981008.315    -2395126.515 7  -1866331.787 9  21981030.739    21981030.379
  21510971.814     2936951.197 7   2288532.821 8  21510992.860    21510992.020
  23357490.756     2769238.351 6   2157846.433 7  23357512.880    23357511.921
  23062959.325    -3622719.334 6  -2822896.389 7  23062980.671    23062978.992
  20755245.962      824911.841 8    642788.546 9  20755264.729    20755263.350
  20584073.133     3965288.095 8   3493463.387 9  20584096.037    20584094.688
 92  8  6  1 14 35.0000000  0  6 21  3 26 28 17 23
  21979238.100    -2404438.208 7  -1873587.647 9  21979259.116    21979258.246
  21513588.762     2950694.750 7   2299242.066 8  21513608.009    21513607.859
  23359916.556     2781946.104 6   2167748.570 7  23359931.276    23359929.597
  23060211.518    -3637161.589 6  -2834150.104 7  23060232.503    23060230.674
  20756010.253      828931.630 8    645920.854 9  20756029.919    20756028.211
  20584435.252     3967181.096 8   3494938.450 9  20584456.237    20584455.008
 92  8  6  1 14 40.0000000  0  6 21  3 26 28 17 23
  21977466.866    -2413744.967 7  -1880839.659 8  21977487.762    21977487.282
  21516207.210     2964450.189 7   2309960.586 8  21516225.587    21516225.467
  23362331.804     2794663.001 6   2177657.828 7  23362351.291    23362350.062
  23057464.759    -3651596.680 6  -2845398.216 7  23057485.715    23057483.856
  20756774.094      832956.190 8    649056.865 9  20756795.739    20756794.180
  20584799.410     3969081.388 8   3496419.202 9  20584818.087    20584816.858
 92  8  6  1 14 45.0000000  0  6 21  3 26 28 17 23
  21975695.632    -2423046.845 7  -1888087.871 9  21975718.027    21975716.918
  21518824.518     2978217.502 7   2320688.354 8  21518845.653    21518845.173
  23364749.001     2807388.559 6   2187573.845 7  23364772.954    23364771.545
  23054718.331    -3666024.920 6  -2856640.998 7  23054740.156    23054738.237
  20757543.392      836985.440 8    652196.546 9  20757562.369    20757561.139
  20585159.191     3970988.757 8   3497905.460 9  20585180.986    20585179.397
 92  8  6  1 14 50.0000000  0  6 21  3 26 28 17 23
  21973927.157    -2432344.028 7  -1895332.420 8  21973948.592    21973947.872
  21521446.742     2991996.457 7   2331425.200 8  21521467.578    21521467.278
  23367178.279     2820122.329 6   2197496.266 7  23367195.877    23367194.408
  23051974.330    -3680446.451 6  -2867878.544 7  23051995.526    23051994.416
  20758307.713      841019.189 8    655339.726 9  20758329.927    20758328.698
  20585527.306     3972902.719 8   3499396.862 9  20585545.234    20585543.944
 92  8  6  1 14 55.0000000  0  6 21  3 26 28 17 23
  21972158.201    -2441636.508 7  -1902573.312 9  21972180.236    21972179.457
  21524071.335     3005787.242 7   2342171.263 8  21524091.871    21524091.512
  23369598.983     2832864.558 6   2207425.268 7  23369620.688    23369619.669
  23049230.929    -3694860.967 6  -2879110.635 7  23049252.784    23049251.076
  20759076.410      845057.597 8    658486.535 9  20759098.355    20759097.156
  20585886.997     3974823.205 8   3500893.351 9  20585910.771    20585909.062
 92  8  6  1 15  0.0000000  0  6 21  3 26 28 17 23
  21970392.814    -2450924.285 7  -1909810.532 9  21970413.199    21970412.660
  21526696.108     3019589.904 7   2352926.581 8  21526718.623    21526717.813
  23372025.773     2845615.300 6   2217360.911 7  23372047.029    23372045.560
  23046490.107    -3709268.423 6  -2890337.218 7  23046510.823    23046509.713
  20759849.875      849100.659 8    661636.975 9  20759867.833    20759866.454
  20586257.181     3976750.363 8   3502395.027 9  20586277.267    20586275.888
 92  8  6  1 15  5.0000000  0  6 21  3 26 28 17 23
  21968626.856    -2460207.044 7  -1917043.849 8  21968646.672    21968645.743
  21529324.449     3033404.621 7   2363691.280 8  21529347.623    21529347.083
  23374457.330     2858374.934 6   2227303.479 7  23374475.377    23374473.429
  23043749.884    -3723668.652 6  -2901558.169 7  23043770.630    23043769.340
  20760616.714      853148.620 8    664791.238 9  20760638.089    20760636.680
  20586626.015     3978684.459 8   3503902.116 9  20586645.502    20586644.273
 92  8  6  1 15 10.0000000  0  6 21  3 26 28 17 23
  21966860.809    -2469485.312 7  -1924273.656 9  21966881.075    21966880.115
  21531958.126     3047230.819 7   2374464.940 8  21531978.481    21531978.242
  23376884.450     2871143.032 6   2237252.643 7  23376904.686    23376903.307
  23041011.400    -3738062.179 6  -2912773.888 7  23041031.846    23041030.077
  20761390.209      857200.875 8    667948.832 9  20761409.036    20761407.926
  20586995.629     3980624.755 8   3505414.035 9  20587014.726    20587013.197
 92  8  6  1 15 15.0000000  0  6 21  3 26 28 17 23
  21965096.830    -2478759.026 7  -1931499.928 9  21965116.436    21965115.477
  21534591.113     3061068.691 7   2385247.688 8  21534611.619    21534611.289
  23379313.608     2883920.029 6   2247208.734 7  23379336.512    23379334.833
  23038271.357    -3752448.874 6  -2923984.303 7  23038293.541    23038291.922
  20762160.975      861257.603 8    671109.921 9  20762181.211    20762179.892
  20587363.085     3982571.371 8   3506930.881 9  20587385.060    20587383.651
 92  8  6  1 15 20.0000000  0  6 21  3 26 28 17 23
  21963335.519    -2488028.221 7  -1938722.671 9  21963352.757    21963351.588
  21537226.678     3074918.345 7   2396039.620 8  21537247.004    21537246.764
  23381752.570     2896705.886 6   2257171.746 7  23381768.818    23381768.309
  23035539.108    -3766828.606 6  -2935189.287 7  23035557.186    23035555.926
  20762933.091      865319.028 8    674274.669 9  20762954.106    20762952.547
  20587736.507     3984524.393 8   3508452.714 9  20587756.863    20587755.394
 92  8  6  1 15 25.0000000  0  6 21  3 26 28 17 23
  21961568.542    -2497293.018 7  -1945941.982 9  21961589.318    21961588.479
  21539862.214     3088779.732 7   2406840.686 8  21539885.058    21539884.308
  23384183.047     2909500.105 6   2267141.269 7  23384203.193    23384202.623
  23032804.311    -3781201.430 6  -2946388.886 7  23032821.999    23032820.980
  20763708.234      869384.998 8    677442.954 9  20763727.840    20763726.251
  20588104.742     3986483.681 8   3509979.433 9  20588129.714    20588128.275
 92  8  6  1 15 30.0000000  0  6 21  3 26 28 17 23
  21959805.373    -2506552.990 7  -1953157.539 9  21959827.528    21959826.269
  21542505.364     3102653.050 7   2417651.053 8  21542524.850    21542524.281
  23386620.390     2922302.656 6   2277117.265 7  23386639.756    23386638.767
  23030069.425    -3795567.045 6  -2957582.870 7  23030088.252    23030086.723
  20764481.189      873455.657 8    680614.899 9  20764502.504    20764500.765
  20588484.459     3988449.411 8   3511511.174 9  20588503.616    20588502.536
 92  8  6  1 15 35.0000000  0  6 21  3 26 28 17 23
  21958047.540    -2515808.358 7  -1960369.506 9  21958066.277    21958065.078
  21545148.694     3116537.899 7   2428470.424 8  21545167.131    21545166.951
  23389058.362     2935113.150 6   2287099.473 7  23389077.728    23389076.529
  23027336.427    -3809925.643 6  -2968771.373 7  23027356.243    23027353.995
  20765255.793      877530.750 8    683790.291 9  20765277.977    20765276.148
  20588856.681     3990421.251 8   3513047.675 9  20588878.986    20588877.757
 92  8  6  1 15 40.0000000  0  6 21  3 26 28 17 23
  21956282.092    -2525058.826 7  -1967577.651 9  21956306.076    21956304.786
  21547789.746     3130434.612 7   2439299.015 8  21547811.451    21547810.941
  23391499.482     2947932.028 6   2297088.200 7  23391517.110    23391516.120
  23024604.088    -3824276.859 6  -2979954.141 7  23024625.284    23024623.755
  20766036.272      881610.696 8    686969.475 9  20766054.470    20766052.641
  20589232.801     3992399.622 8   3514589.262 9  20589255.585    20589254.116
 92  8  6  1 15 45.0000000  0  6 21  3 26 28 17 23
  21954524.919    -2534304.647 7  -1974782.185 9  21954546.684    21954545.424
  21550437.093     3144342.974 7   2450136.701 8  21550458.048    21550457.809
  23393939.103     2960759.095 6   2307083.308 7  23393958.290    23393956.671
  23021878.105    -3838621.117 6  -2991131.482 7  23021895.853    23021894.414
  20766810.936      885695.147 8    690152.161 9  20766831.652    20766829.943
  20589612.938     3994384.213 8   3516135.699 9  20589633.144    20589631.795
 92  8  6  1 15 50.0000000  0  6 21  3 26 28 17 23
  21952768.525    -2543545.535 7  -1981982.873 9  21952787.921    21952786.872
  21553085.729     3158263.090 7   2460983.529 8  21553106.775    21553106.925
  23396380.403     2973594.596 6   2317085.001 7  23396400.969    23396399.320
  23019148.045    -3852958.048 6  -3002303.121 7  23019167.652    23019166.033
  20767588.957      889784.275 8    693338.496 9  20767609.733    20767607.994
  20589988.578     3996375.188 8   3517687.101 9  20590012.111    20590010.462
 92  8  6  1 15 55.0000000  0  6 21  3 26 28 17 23
  21951007.873    -2552781.631 7  -1989179.821 9  21951030.358    21951029.459
  21555733.796     3172194.934 7   2471839.508 8  21555758.049    21555757.839
  23398824.041     2986438.436 6   2327093.187 7  23398844.997    23398843.168
  23016419.065    -3867287.789 6  -3013469.146 7  23016440.680    23016438.701
  20768369.857      893878.152 9    696528.534 9  20768388.834    20768386.945
  20590369.674     3998372.361 8   3519243.342 9  20590392.068    20590390.389
 92  8  6  1 16  0.0000000  0  6 21  3 26 28 17 23
  21949252.259    -2562012.905 7  -1996373.012 9  21949273.874    21949273.004
  21558389.058     3186138.462 7   2482704.587 8  21558411.452    21558411.242
  23401266.840     2999290.564 6   2337107.831 7  23401290.883    23401288.815
  23013694.461    -3881610.449 6  -3024629.655 7  23013715.177    23013713.648
  20769149.077      897976.867 9    699722.341 9  20769168.924    20769167.095
  20590755.477     4000375.606 8   3520804.310 9  20590773.344    20590771.845
 92  8  6  1 16  5.0000000  0  6 21  3 26 28 17 23
  21947500.691    -2571239.348 7  -2003562.438 9  21947518.259    21947517.270
  21561045.309     3200093.597 7   2493578.718 8  21561067.134    21561066.864
  23403716.504     3012150.868 6   2347128.839 7  23403738.059    23403736.980
  23010970.037    -3895926.178 6  -3035784.762 7  23010990.813    23010989.763
  20769928.718      902080.187 8    702919.730 9  20769949.463    20769947.784
  20591133.755     4002384.807 8   3522369.928 9  20591155.520    20591154.141
 92  8  6  1 16 10.0000000  0  6 21  3 26 28 17 23
  21945743.758    -2580461.016 7  -2010748.154 9  21945763.304    21945762.075
  21563703.119     3214060.297 7   2504461.854 8  21563724.794    21563724.614
  23406162.721     3025019.323 6   2357156.207 7  23406186.824    23406185.445
  23008248.161    -3910235.066 6  -3046934.547 7  23008268.247    23008266.718
  20770710.816      906188.231 8    706120.806 9  20770731.412    20770729.583
  20591516.050     4004399.976 8   3523940.189 9  20591539.134    20591537.515
 92  8  6  1 16 15.0000000  0  6 21  3 26 28 17 23
  21943987.603    -2589677.667 7  -2017929.958 9  21944009.608    21944008.199
  21566362.398     3228038.786 7   2515354.166 8  21566384.912    21566384.912
  23408614.064     3037896.087 6   2367190.040 7  23408637.328    23408635.589
  23005526.256    -3924537.049 6  -3058078.939 7  23005546.671    23005545.352
  20771493.035      910301.451 8    709325.908 9  20771514.020    20771512.521
  20591901.313     4006421.276 8   3525515.226 9  20591923.648    20591922.089
 92  8  6  1 16 20.0000000  0  6 21  3 26 28 17 23
  21942236.036    -2598889.774 7  -2025108.218 9  21942256.902    21942255.373
  21569026.174     3242028.590 7   2526255.312 8  21569047.159    21569046.860
  23411068.165     3050780.851 6   2377230.109 7  23411089.000    23411087.621
  23002806.598    -3938832.512 6  -3069218.260 7  23002826.205    23002824.736
  20772277.981      914419.682 9    712534.919 9  20772297.648    20772296.059
  20592286.037     4008448.269 8   3527094.697 9  20592309.541    20592307.892
 92  8  6  1 16 25.0000000  0  6 21  3 26 28 17 23
  21940485.308    -2608096.961 7  -2032282.640 9  21940504.195    21940503.236
  21571690.160     3256030.244 7   2537165.686 8  21571711.505    21571711.235
  23413520.227     3063673.821 6   2387276.597 7  23413542.352    23413541.213
  23000090.299    -3953121.226 6  -3080352.321 7  23000107.087    23000105.978
  20773061.219      918543.314 8    715748.130 9  20773082.324    20773080.795
  20592672.829     4010481.164 8   3528678.774 9  20592696.003    20592694.744
 92  8  6  1 16 30.0000000  0  6 21  3 26 28 17 23
  21938732.631    -2617299.093 7  -2039453.133 9  21938753.197    21938751.908
  21574356.963     3270043.899 7   2548085.411 8  21574378.309    21574377.829
  23415975.707     3076575.302 6   2397329.678 7  23415997.262    23415995.793
  22997367.884    -3967403.024 6  -3091480.984 7  22997389.798    22997387.400
  20773848.984      922672.526 8    718965.701 9  20773867.960    20773866.551
  20593064.778     4012520.237 8   3530267.661 9  20593084.204    20593082.945
 92  8  6  1 16 35.0000000  0  6 21  3 26 28 17 23
  21936986.101    -2626496.350 7  -2046619.815 9  21937003.279    21937002.229
  21577027.934     3284069.082 7   2559014.118 8  21577047.091    21577047.001
  23418431.457     3089485.135 6   2407389.289 7  23418454.241    23418452.143
  22994653.683    -3981678.347 6  -3102604.611 7  22994672.899    22994671.070
  20774636.688      926806.923 8    722187.310 9  20774654.766    20774653.327
  20593450.611     4014565.087 8   3531861.050 9  20593473.035    20593471.866
 92  8  6  1 16 40.0000000  0  6 21  3 26 28 17 23
  21935234.353    -2635688.289 7  -2053782.360 9  21935254.289    21935253.150
  21579700.015     3298106.138 7   2569952.078 8  21579718.452    21579717.912
  23420891.674     3102403.896 6   2417455.844 7  23420912.210    23420911.071
  22991935.045    -3995946.912 6  -3113722.967 7  22991957.139    22991955.760
  20775421.185      930946.831 8    725413.213 9  20775442.440    20775441.061
  20593844.478     4016616.112 8   3533459.251 9  20593863.605    20593862.256
 92  8  6  1 16 45.0000000  0  6 21  3 26 28 17 23
  21933487.283    -2644875.280 7  -2060941.053 9  21933505.810    21933504.491
  21582370.806     3312154.570 7   2580898.899 8  21582391.371    21582391.551
  23423354.859     3115331.087 6   2427528.985 7  23423372.577    23423370.628
  22989223.002    -4010209.079 6  -3124836.339 7  22989243.508    22989241.979
  20776210.149      935091.779 8    728643.039 9  20776231.374    20776229.995
  20594235.078     4018672.996 8   3535062.022 9  20594254.954    20594253.635
 92  8  6  1 16 50.0000000  0  6 21  3 26 28 17 23
  21931740.092    -2654057.098 7  -2068095.714 9  21931758.559    21931757.270
  21585047.083     3326214.430 7   2591854.630 8  21585067.079    21585067.259
  23425809.979     3128266.811 6   2437608.765 7  23425834.053    23425832.164
  22986513.688    -4024464.864 6  -3135944.738 7  22986530.926    22986529.547
  20777003.610      939241.845 8    731876.855 9  20777021.118    20777019.559
  20594628.136     4020736.071 8   3536669.612 9  20594647.502    20594646.303
 92  8  6  1 16 55.0000000  0  6 21  3 26 28 17 23
  21929993.981    -2663233.497 7  -2075246.148 9  21930011.819    21930011.249
  21587724.499     3340285.983 7   2602819.471 8  21587744.915    21587744.765
  23428275.622     3141210.947 6   2447695.105 7  23428297.387    23428295.858
  22983799.127    -4038714.300 6  -3147048.198 7  22983819.513    22983817.714
  20777791.554      943396.975 8    735114.615 9  20777811.730    20777810.231
  20595019.874     4022805.428 8   3538282.102 9  20595041.250    20595039.990
 92  8  6  1 17  0.0000000  0  6 21  3 26 28 17 23
  21928250.298    -2672404.284 7  -2082392.213 9  21928267.177    21928266.367
  21590405.453     3354369.297 7   2613793.478 8  21590424.700    21590424.250
  23430743.784     3154163.573 6   2457788.053 7  23430762.371    23430760.782
  22981091.132    -4052957.367 6  -3158146.680 7  22981109.089    22981107.830
  20778582.916      947557.125 8    738356.289 9  20778603.452    20778601.773
  20595415.061     4024881.208 8   3539899.593 9  20595436.226    20595434.997
 92  8  6  1 17  5.0000000  0  6 21  3 26 28 17 23
  21926503.408    -2681569.297 7  -2089533.772 9  21926522.684    21926522.085
  21593084.848     3368464.400 7   2624776.669 8  21593107.033    21593106.583
  23433209.427     3167124.979 6   2467887.838 7  23433228.553    23433226.815
  22978381.068    -4067193.899 6  -3169240.081 7  22978399.625    22978398.426
  20779379.225      951722.462 8    741602.009 9  20779395.954    20779394.365
  20595811.237     4026963.451 8   3541522.120 9  20595832.582    20595831.233
 92  8  6  1 17 10.0000000  0  6 21  3 26 28 17 23
  21924761.374    -2690728.856 7  -2096671.087 9  21924780.111    21924779.061
  21595770.209     3382571.015 7   2635768.828 8  21595791.375    21595791.345
  23435673.331     3180095.041 6   2477994.382 7  23435696.655    23435695.276
  22975672.653    -4081424.004 6  -3180328.460 7  22975692.199    22975690.760
  20780170.108      955892.654 8    744851.510 9  20780189.714    20780187.975
  20596208.462     4029052.191 8   3543149.709 9  20596230.077    20596228.788
 92  8  6  1 17 15.0000000  0  6 21  3 26 28 17 23
  21923017.960    -2699882.803 7  -2103804.029 9  21923038.166    21923037.327
  21598457.309     3396689.249 7   2646770.053 8  21598478.145    21598478.055
  23438145.240     3193073.908 6   2488107.786 7  23438166.585    23438164.546
  22972965.197    -4095647.669 6  -3191411.833 7  22972985.403    22972984.054
  20780966.206      960067.819 8    748104.882 9  20780984.194    20780982.455
  20596605.926     4031147.610 8   3544782.504 9  20596629.100    20596627.482
 92  8  6  1 17 20.0000000  0  6 21  3 26 28 17 23
  21921277.096    -2709030.868 7  -2110932.385 9  21921297.302    21921296.192
  21601145.848     3410819.125 7   2657780.339 8  21601166.654    21601166.384
  23440617.628     3206061.607 6   2498228.053 7  23440637.684    23440636.965
  22970260.020    -4109865.004 6  -3202490.274 7  22970280.106    22970278.817
  20781763.115      964248.153 8    751362.280 9  20781779.753    20781778.014
  20597007.828     4033249.791 8   3546420.570 9  20597028.844    20597027.405
 92  8  6  1 17 25.0000000  0  6 21  3 26 28 17 23
  21919536.710    -2718173.066 7  -2118056.171 9  21919557.516    21919556.197
  21603835.466     3424960.574 7   2668799.638 8  21603857.920    21603857.950
  23443089.327     3219057.967 6   2508355.087 7  23443111.422    23443109.563
  22967557.301    -4124075.990 6  -3213563.764 7  22967575.948    22967574.509
  20782556.336      968433.507 8    754623.599 9  20782575.972    20782574.323
  20597409.970     4035358.411 8   3548063.648 9  20597430.086    20597428.647
 92  8  6  1 17 30.0000000  0  6 21  3 26 28 17 23
  21917800.013    -2727309.096 7  -2125175.149 9  21917819.229    21917818.060
  21606528.831     3439113.839 7   2679828.155 8  21606551.046    21606551.196
  23445564.174     3232063.075 6   2518488.935 7  23445585.999    23445584.110
  22964852.304    -4138280.379 6  -3224632.098 7  22964872.450    22964871.400
  20783353.784      972623.906 8    757888.840 9  20783373.690    20783371.831
  20597810.612     4037473.696 8   3549711.924 9  20597832.527    20597831.478
 92  8  6  1 17 35.0000000  0  6 21  3 26 28 17 23
  21916059.508    -2736439.297 7  -2132289.581 9  21916081.572    21916081.003
  21609224.385     3453278.539 7   2690865.569 8  21609246.600    21609245.970
  23448037.701     3245076.447 6   2528629.220 7  23448062.224    23448060.905
  22962150.424    -4152478.671 6  -3235695.706 7  22962171.050    22962169.461
  20784152.401      976818.669 8    761157.490 9  20784171.827    20784169.969
  20598214.673     4039595.182 8   3551365.026 9  20598236.498    20598234.969
 92  8  6  1 17 40.0000000  0  6 21  3 26 28 17 23
  21914323.320    -2745563.189 7  -2139399.112 9  21914345.085    21914344.305
  21611922.367     3467455.145 7   2701912.272 8  21611944.192    21611944.432
  23450517.105     3258098.405 6   2538776.189 7  23450540.579    23450539.050
  22959449.594    -4166670.421 6  -3246754.211 7  22959470.220    22959468.481
  20784950.029      981018.333 8    764429.951 9  20784971.014    20784969.335
  20598622.211     4041723.336 8   3553023.326 9  20598641.427    20598639.868
 92  8  6  1 17 45.0000000  0  6 21  3 26 28 17 23
  21912589.710    -2754680.858 7  -2146503.785 9  21912610.186    21912609.736
  21614621.789     3481643.339 7   2712968.001 8  21614644.063    21614644.303
  23452998.127     3271128.859 6   2548929.794 7  23453020.042    23453018.633
  22956751.672    -4180855.874 6  -3257807.819 7  22956770.858    22956769.389
  20785750.534      985222.476 8    767705.909 9  20785771.010    20785769.331
  20599025.881     4043858.018 8   3554686.719 9  20599047.586    20599046.267
 92  8  6  1 17 50.0000000  0  6 21  3 26 28 17 23
  21910858.049    -2763792.222 7  -2153603.538 9  21910876.096    21910875.586
  21617319.141     3495843.267 7   2724032.867 8  21617346.183    21617346.782
  23455478.250     3284168.248 6   2559090.347 7  23455501.184    23455499.625
  22954049.612    -4195035.129 6  -3268856.572 7  22954072.396    22954070.628
  20786554.877      989431.282 8    770985.493 9  20786571.876    20786570.287
  20599431.980     4045999.379 8   3556355.309 9  20599455.094    20599453.865
 92  8  6  1 17 55.0000000  0  6 21  3 26 28 17 23
  21909125.158    -2772897.175 7  -2160698.303 9  21909143.685    21909142.996
  21620027.586     3510055.155 7   2735107.056 8  21620050.880    21620050.760
  23457963.979     3297217.050 6   2569258.242 7  23457984.215    23457982.986
  22951352.979    -4209207.971 6  -3279900.336 7  22951375.284    22951374.054
  20787352.895      993645.006 8    774268.912 9  20787373.731    20787372.202
  20599844.764     4048147.646 8   3558029.280 9  20599863.831    20599862.392
 92  8  6  1 18  0.0000000  0  6 21  3 26 28 17 23
  21907392.808    -2781996.169 7  -2167788.422 9  21907412.114    21907411.605
  21622738.430     3524278.621 7   2746190.280 8  21622757.526    21622757.407
  23460445.422     3310274.735 6   2579433.055 7  23460469.225    23460467.396
  22948660.543    -4223374.968 6  -3290939.556 7  22948679.610    22948678.351
  20788156.219      997863.187 8    777555.807 9  20788176.365    20788175.076
  20600251.193     4050302.533 8   3559708.418 9  20600273.797    20600272.508
 92  8  6  1 18  5.0000000  0  6 21  3 26 28 17 23
  21905662.825    -2791089.269 7  -2174873.949 9  21905681.652    21905681.053
  21625445.046     3538513.437 7   2757282.331 8  21625466.391    21625466.721
  23462935.678     3323341.032 6   2589614.575 7  23462955.944    23462954.265
  22945964.629    -4237536.332 6  -3301974.365 7  22945984.985    22945983.486
  20788959.123     1002085.755 8    780846.123 9  20788980.109    20788978.340
  20600664.397     4052463.837 8   3561392.549 9  20600685.262    20600683.823
 92  8  6  1 18 10.0000000  0  6 21  3 26 28 17 23
  21903929.995    -2800176.809 7  -2181955.144 9  21903952.269    21903951.940
  21628156.189     3552759.516 7   2768383.169 8  21628177.384    21628176.725
  23465424.764     3336415.660 6   2599802.598 7  23465443.591    23465442.062
  22943270.574    -4251692.321 6  -3313005.012 7  22943291.260    22943289.791
  20789763.436     1006312.778 8    784139.904 9  20789784.302    20789783.103
  20601077.721     4054631.487 8   3563081.631 9  20601097.717    20601096.158
 92  8  6  1 18 15.0000000  0  6 21  3 26 28 17 23
  21902202.830    -2809258.449 7  -2189031.746 9  21902224.236    21902223.426
  21630869.011     3567017.205 7   2779493.052 8  21630890.236    21630890.566
  23467910.164     3349498.963 6   2609997.370 7  23467933.368    23467931.659
  22940576.879    -4265842.871 6  -3324031.403 7  22940598.314    22940596.695
  20790572.216     1010544.744 8    787437.552 9  20790589.754    20790588.165
  20601490.025     4056805.712 8   3564775.834 9  20601511.520    20601509.842
 92  8  6  1 18 20.0000000  0  6 21  3 26 28 17 23
  21900476.596    -2818333.974 7  -2196103.578 9  21900497.401    21900496.292
  21633586.420     3581286.691 7   2790612.121 8  21633605.756    21633605.876
  23470402.938     3362591.101 6   2620199.031 7  23470424.763    23470423.774
  22937888.640    -4279987.888 6  -3335053.493 7  22937906.478    22937905.159
  20791375.900     1014781.755 8    790739.107 9  20791396.046    20791394.367
  20601905.448     4058986.531 8   3566475.169 9  20601926.463    20601924.814
 92  8  6  1 18 25.0000000  0  6 21  3 26 28 17 23
  21898750.391    -2827403.803 7  -2203170.970 9  21898771.286    21898770.687
  21636303.739     3595567.531 7   2801740.046 8  21636323.495    21636323.285
  23472896.882     3375691.788 6   2630407.347 7  23472917.477    23472916.398
  22935196.144    -4294127.548 6  -3346071.401 8  22935215.601    22935214.521
  20792181.832     1019023.508 8    794044.363 9  20792203.117    20792201.678
  20602323.388     4061173.822 8   3568179.555 9  20602342.695    20602341.106
 92  8  6  1 18 30.0000000  0  6 21  3 26 28 17 23
  21897024.965    -2836467.809 7  -2210233.828 9  21897046.430    21897045.621
  21639021.537     3609860.054 7   2812877.072 8  21639043.362    21639042.972
  23475388.846     3388801.391 6   2640622.620 7  23475412.260    23475411.211
  22932506.406    -4308261.569 6  -3357084.916 7  22932526.222    22932524.933
  20792992.171     1023270.271 8    797353.533 9  20793011.238    20793009.739
  20602737.372     4063367.913 8   3569889.237 9  20602759.946    20602758.687
 92  8  6  1 18 35.0000000  0  6 21  3 26 28 17 23
  21895298.580    -2845525.900 7  -2217292.082 9  21895322.564    21895322.084
  21641741.044     3624164.336 7   2824023.258 8  21641765.358    21641765.028
  23477886.597     3401920.053 6   2650844.941 7  23477908.602    23477907.703
  22929819.216    -4322389.884 6  -3368093.993 7  22929837.654    22929836.395
  20793800.981     1027522.015 8    800666.578 9  20793820.498    20793818.669
  20603157.321     4065568.879 8   3571604.275 9  20603179.026    20603177.557
 92  8  6  1 18 40.0000000  0  6 21  3 26 28 17 23
  21893581.009    -2854578.004 7  -2224345.660 9  21893600.106    21893599.446
  21644465.229     3638480.324 7   2835178.563 8  21644489.242    21644489.182
  23480387.406     3415047.725 6   2661074.295 7  23480406.623    23480405.424
  22927131.937    -4336512.327 6  -3379098.484 7  22927150.374    22927148.755
  20794611.140     1031778.569 8    803983.375 9  20794630.447    20794628.528
  20603579.549     4067776.813 8   3573324.742 9  20603598.915    20603597.746
 92  8  6  1 18 45.0000000  0  6 21  3 26 28 17 23
  21891859.991    -2863623.828 7  -2231394.349 9  21891878.698    21891878.008
  21647192.950     3652808.236 7   2846343.164 8  21647215.734    21647215.644
  23482884.078     3428184.501 6   2671310.735 7  23482906.532    23482905.213
  22924444.807    -4350628.708 6  -3390098.261 7  22924464.144    22924462.105
  20795421.749     1036039.944 8    807303.926 9  20795441.146    20795439.377
  20603997.909     4069991.893 8   3575050.777 9  20604020.483    20604019.194
 92  8  6  1 18 50.0000000  0  6 21  3 26 28 17 23
  21890139.602    -2872663.804 7  -2238438.484 9  21890158.249    21890157.289
  21649924.119     3667147.474 7   2857516.598 8  21649944.685    21649944.415
  23485388.064     3441329.847 6   2681553.851 7  23485407.641    23485407.101
  22921760.435    -4364739.495 6  -3401093.675 7  22921778.873    22921777.494
  20796233.437     1040305.623 8    810627.831 9  20796252.924    20796251.185
  20604422.475     4072213.827 8   3576782.157 9  20604443.281    20604442.082
 92  8  6  1 18 55.0000000  0  6 21  3 26 28 17 23
  21888420.652    -2881697.525 7  -2245477.741 9  21888439.029    21888438.459
  21652653.040     3681498.299 7   2868699.044 8  21652675.405    21652675.315
  23487890.012     3454483.845 6   2691803.711 7  23487910.968    23487909.858
  22919074.955    -4378844.287 6  -3412084.414 8  22919094.561    22919092.852
  20797043.986     1044575.925 8    813955.336 9  20797065.481    20797064.012
  20604846.202     4074442.845 8   3578519.056 9  20604867.517    20604866.108
 92  8  6  1 19  0.0000000  0  6 21  3 26 28 17 23
  21886699.153    -2890725.027 7  -2252512.152 9  21886721.278    21886720.619
  21655387.867     3695860.936 7   2879890.695 8  21655408.463    21655408.583
  23490394.179     3467646.334 6   2702060.189 7  23490416.063    23490414.534
  22916390.043    -4392942.808 6  -3423070.274 7  22916411.389    22916410.219
  20797860.950     1048851.040 8    817286.602 9  20797879.088    20797877.559
  20605271.847     4076679.223 8   3580261.681 9  20605293.282    20605291.633
 92  8  6  1 19  5.0000000  0  6 21  3 26 28 17 23
  21884982.752    -2899746.878 7  -2259542.163 9  21885004.577    21885004.097
  21658123.833     3710234.777 7   2891091.078 8  21658144.099    21658144.039
  23492901.553     3480816.592 6   2712322.718 7  23492922.478    23492921.189
  22913713.346    -4407035.498 6  -3434051.589 7  22913729.835    22913728.816
  20798674.317     1053130.411 8    820621.172 9  20798693.234    20798691.585
  20605699.471     4078922.382 8   3582009.603 9  20605720.157    20605718.538
 92  8  6  1 19 10.0000000  0  6 21  3 26 28 17 23
  21883269.288    -2908762.191 7  -2266567.078 9  21883288.834    21883288.535
  21660860.578     3724620.831 7   2902301.004 8  21660881.564    21660881.414
  23495410.606     3493995.617 6   2722592.074 7  23495429.912    23495428.623
  22911026.516    -4421121.328 6  -3445027.552 7  22911049.540    22911047.982
  20799489.183     1057414.840 8    823959.684 9  20799508.640    20799506.901
  20606128.504     4081173.142 8   3583763.443 9  20606148.440    20606147.001
 92  8  6  1 19 15.0000000  0  6 21  3 26 28 17 23
  21881552.946    -2917771.561 7  -2273587.363 9  21881574.261    21881573.872
  21663599.302     3739018.384 7   2913519.862 8  21663621.337    21663621.067
  23497919.689     3507182.842 6   2732867.833 7  23497939.385    23497938.156
  22908350.359    -4435200.743 6  -3455998.513 7  22908370.175    22908368.976
  20800309.865     1061703.518 8    827301.516 9  20800324.585    20800323.086
  20606556.608     4083430.783 8   3585522.640 9  20606578.043    20606576.694
 92  8  6  1 19 20.0000000  0  6 21  3 26 28 17 23
  21879840.921    -2926775.069 7  -2280603.075 9  21879861.127    21879860.348
  21666340.155     3753427.350 7   2924747.618 8  21666362.939    21666363.119
  23500427.962     3520378.330 6   2743150.019 7  23500450.657    23500448.918
  22905672.313    -4449273.442 6  -3466964.250 8  22905692.489    22905691.470
  20801123.652     1065996.515 8    830646.708 9  20801141.609    20801140.080
  20606987.469     4085695.325 8   3587287.221 9  20607009.204    20607007.556
 92  8  6  1 19 25.0000000  0  6 21  3 26 28 17 23
  21878131.355    -2935772.330 7  -2287613.929 9  21878148.983    21878148.383
  21669086.404     3767848.067 7   2935984.532 8  21669107.149    21669107.179
  23502940.913     3533582.425 6   2753438.919 7  23502963.217    23502961.748
  22902995.256    -4463338.842 6  -3477924.300 8  22903015.732    22903014.713
  20801941.246     1070294.574 8    833995.821 9  20801959.563    20801957.944
  20607422.318     4087967.198 8   3589057.507 9  20607441.475    20607439.946
 92  8  6  1 19 30.0000000  0  6 21  3 26 28 17 23
  21876417.351    -2944764.183 7  -2294620.564 9  21876437.887    21876437.438
  21671834.301     3782279.821 7   2947230.041 8  21671853.578    21671853.608
  23505457.071     3546794.122 6   2763733.737 7  23505477.547    23505476.167
  22900322.846    -4477397.735 6  -3488879.268 7  22900340.174    22900339.455
  20802758.990     1074596.808 8    837348.233 9  20802777.996    20802776.647
  20607855.608     4090245.471 8   3590832.792 9  20607874.855    20607873.326
 92  8  6  1 19 35.0000000  0  6 21  3 26 28 17 23
  21874708.025    -2953749.701 7  -2301622.257 9  21874728.111    21874727.062
  21674582.289     3796723.445 7   2958484.817 8  21674602.465    21674602.435
  23507970.621     3560014.225 6   2774035.111 7  23507992.895    23507991.216
  22897643.691    -4491449.429 6  -3499828.646 8  22897666.595    22897665.066
  20803581.081     1078904.245 8    840704.676 9  20803598.019    20803596.070
  20608291.177     4092530.629 8   3592613.431 9  20608309.674    20608308.505
 92  8  6  1 19 40.0000000  0  6 21  3 26 28 17 23
  21872998.878    -2962729.405 7  -2308619.428 9  21873019.084    21873018.634
  21677332.465     3811178.596 7   2969748.559 8  21677353.091    21677352.941
  23510487.768     3573242.371 6   2784342.749 7  23510510.133    23510508.723
  22894974.579    -4505494.359 6  -3510772.732 7  22894993.766    22894992.536
  20804398.944     1083216.379 8    844064.779 9  20804418.251    20804416.782
  20608725.186     4094822.409 8   3594399.237 9  20608746.082    20608744.703
 92  8  6  1 19 45.0000000  0  6 21  3 26 28 17 23
  21871290.241    -2971703.138 7  -2315611.949 9  21871311.436    21871310.777
  21680086.628     3825645.495 7   2981021.458 8  21680105.995    21680106.085
  23513003.177     3586478.777 6   2794656.828 7  23513028.749    23513027.190
  22892303.428    -4519531.998 6  -3521711.144 7  22892322.525    22892321.386
  20805220.765     1087533.333 8    847428.635 9  20805240.072    20805238.363
  20609160.995     4097121.169 8   3596190.473 9  20609183.059    20609181.830
 92  8  6  1 19 50.0000000  0  6 21  3 26 28 17 23
  21869584.032    -2980670.371 7  -2322599.399 9  21869604.868    21869604.538
  21682842.920     3840124.631 7   2992303.897 8  21682861.148    21682861.267
  23515527.909     3599723.981 6   2804977.757 7  23515549.134    23515548.235
  22889634.016    -4533561.745 6  -3532643.414 7  22889652.783    22889651.584
  20806046.634     1091855.793 8    850796.787 9  20806062.523    20806060.784
  20609600.640     4099427.669 8   3597987.736 9  20609622.165    20609620.936
 92  8  6  1 19 55.0000000  0  6 21  3 26 28 17 23
  21867881.810    -2989631.442 7  -2329582.042 9  21867899.558    21867898.989
  21685597.623     3854615.802 7   3003595.706 8  21685618.759    21685618.878
  23518049.463     3612977.917 6   2815305.493 7  23518071.078    23518070.389
  22886964.005    -4547583.605 6  -3543569.522 7  22886984.211    22886983.161
  20806866.626     1096183.893 8    854169.332 9  20806885.903    20806884.374
  20610043.104     4101741.768 8   3599790.943 9  20610062.681    20610061.331
 92  8  6  1 20  0.0000000  0  6 21  3 26 28 17 23
  21866173.683    -2998586.845 7  -2336560.271 9  21866195.838    21866194.938
  21688359.101     3869118.758 7   3014896.705 8  21688378.648    21688378.498
  23520574.915     3626240.251 6   2825639.781 7  23520594.761    23520593.772
  22884298.550    -4561597.810 6  -3554489.683 8  22884317.766    22884316.387
  20807690.456     1100517.492 8    857546.161 9  20807710.901    20807708.953
  20610483.559     4104063.175 8   3601599.830 9  20610504.215    20610502.806
 92  8  6  1 20  5.0000000  0  6 21  3 26 28 17 23
  21864472.001    -3007536.629 7  -2343534.132 9  21864492.717    21864491.997
  21691117.852     3883633.264 7   3026206.707 8  21691140.786    21691140.996
  23523100.786     3639510.993 6   2835980.601 7  23523119.973    23523119.133
  22881632.555    -4575604.303 6  -3565403.818 7  22881651.742    22881650.873
  20808519.202     1104856.569 8    860927.257 9  20808536.380    20808534.731
  20610925.363     4106391.777 8   3603414.328 9  20610947.248    20610945.989
 92  8  6  1 20 10.0000000  0  6 21  3 26 28 17 23
  21862769.600    -3016481.232 7  -2350503.947 9  21862790.855    21862789.776
  21693883.617     3898158.928 7   3037525.396 8  21693904.962    21693905.142
  23525622.401     3652789.639 6   2846327.589 7  23525647.013    23525645.904
  22878966.081    -4589603.401 6  -3576312.207 8  22878988.476    22878986.827
  20809343.511     1109200.917 8    864312.463 9  20809363.028    20809361.649
  20611370.495     4108727.055 8   3605234.028 9  20611391.720    20611390.431
 92  8  6  1 20 15.0000000  0  6 21  3 26 28 17 23
  21861068.337    -3025420.181 7  -2357469.362 9  21861089.623    21861088.903
  21696648.543     3912696.356 7   3048853.252 8  21696671.147    21696671.417
  23528154.058     3666076.521 6   2856681.002 7  23528176.003    23528174.354
  22876308.751    -4603594.581 6  -3587214.408 8  22876325.929    22876324.370
  20810171.418     1113550.995 8    867702.135 9  20810191.055    20810189.256
  20611816.646     4111069.644 8   3607059.420 9  20611837.542    20611836.163
 92  8  6  1 20 20.0000000  0  6 21  3 26 28 17 23
  21859369.833    -3034353.632 7  -2364430.487 9  21859389.560    21859388.780
  21699417.636     3927245.484 7   3060190.238 8  21699439.970    21699440.270
  23530683.407     3679371.416 6   2867040.661 7  23530705.681    23530704.752
  22873644.106    -4617577.904 6  -3598110.504 8  22873664.492    22873663.472
  20811001.064     1117906.764 8    871096.240 9  20811019.861    20811018.212
  20612264.236     4113419.536 8   3608890.503 9  20612284.622    20612283.393
 92  8  6  1 20 25.0000000  0  6 21  3 26 28 17 23
  21857670.370    -3043281.680 7  -2371387.396 9  21857690.546    21857689.826
  21702187.208     3941806.257 7   3071536.287 8  21702210.532    21702210.652
  23533213.625     3692674.445 6   2877406.623 7  23533236.949    23533235.720
  22870980.390    -4631553.316 6  -3609000.424 8  22871005.332    22871004.553
  20811830.739     1122268.157 8    874494.725 9  20811849.656    20811848.307
  20612713.805     4115776.609 8   3610727.186 9  20612733.232    20612732.033
 92  8  6  1 20 30.0000000  0  6 21  3 26 28 17 23
  21855970.367    -3052204.637 7  -2378340.342 9  21855992.851    21855991.952
  21704961.098     3956378.329 7   3082891.140 8  21704983.493    21704983.942
  23535750.679     3705985.294 6   2887778.694 7  23535770.285    23535769.146
  22868323.959    -4645520.840 6  -3619884.207 8  22868347.762    22868346.983
  20812660.685     1126634.678 8    877897.210 9  20812680.741    20812679.062
  20613164.153     4118140.617 8   3612569.271 9  20613183.100    20613181.901
 92  8  6  1 20 35.0000000  0  6 21  3 26 28 17 23
  21854272.492    -3061122.098 7  -2385289.018 9  21854295.666    21854295.156
  21707736.517     3970961.967 7   3094255.010 8  21707758.851    21707758.911
  23538284.495     3719304.210 6   2898157.061 7  23538304.491    23538303.831
  22865673.494    -4659479.792 6  -3630761.307 8  22865691.271    22865689.892
  20813492.729     1131006.484 8    881303.811 9  20813512.365    20813510.776
  20613614.741     4120511.796 8   3614416.942 9  20613634.408    20613633.119
 92  8  6  1 20 40.0000000  0  6 21  3 26 28 17 23
  21852578.485    -3070034.212 7  -2392233.516 9  21852599.980    21852598.991
  21710516.582     3985557.130 7   3105627.848 8  21710536.219    21710536.488
  23540818.071     3732631.188 6   2908541.708 7  23540841.005    23540839.776
  22863014.215    -4673430.230 7  -3641631.758 8  22863036.399    22863035.140
  20814326.482     1135383.363 8    884714.368 9  20814345.728    20814344.139
  20614062.931     4122890.200 8   3616270.246 9  20614086.945    20614085.835
 92  8  6  1 20 45.0000000  0  6 21  3 26 28 17 23
  21850882.559    -3078941.192 7  -2399174.016 9  21850904.833    21850904.144
  21713295.958     4000163.607 7   3117009.519 8  21713315.624    21713315.654
  23543356.264     3745965.993 6   2918932.442 7  23543378.688    23543377.189
  22860363.869    -4687372.197 7  -3652495.633 8  22860383.896    22860382.846
  20815157.326     1139765.163 8    888128.757 9  20815179.541    20815177.982
  20614520.684     4125275.829 8   3618129.173 9  20614541.010    20614539.451
 92  8  6  1 20 50.0000000  0  6 21  3 26 28 17 23
  21849190.380    -3087842.931 7  -2406110.428 9  21849210.856    21849210.256
  21716076.593     4014781.374 7   3128399.978 8  21716097.309    21716097.728
  23545893.377     3759308.479 6   2929329.177 7  23545917.241    23545916.131
  22857713.884    -4701305.755 7  -3663352.943 8  22857732.531    22857730.612
  20815991.979     1144152.047 8    891547.104 9  20816013.923    20816012.544
  20614974.750     4127668.548 8   3619993.633 9  20614996.245    20614994.776
 92  8  6  1 20 55.0000000  0  6 21  3 26 28 17 23
  21847497.302    -3096738.953 7  -2413042.388 9  21847517.838    21847517.298
  21718862.924     4029410.760 7   3139799.487 8  21718881.241    21718881.271
  23548441.073     3772658.808 6   2939732.018 7  23548457.472    23548457.352
  22855064.708    -4715230.720 6  -3674203.558 8  22855082.546    22855081.137
  20816831.368     1148544.277 8    894969.625 9  20816849.775    20816848.486
  20615428.546     4130068.626 8   3621863.825 9  20615453.039    20615451.450
 92  8  6  1 21  0.0000000  0  6 21  3 26 28 17 23
  21845808.362    -3105629.774 7  -2419970.302 9  21845826.199    21845825.060
  21721646.557     4044051.143 7   3151207.573 8  21721667.213    21721667.333
  23550976.988     3786016.296 6   2950140.441 7  23550999.562    23550998.603
  22852413.104    -4729147.861 7  -3685048.076 8  22852434.209    22852433.010
  20817666.979     1152941.312 8    898395.884 9  20817686.555    20817685.116
  20615891.875     4132475.468 8   3623739.283 9  20615911.122    20615909.353
 92  8  6  1 21  5.0000000  0  6 21  3 26 28 17 23
  21844116.273    -3114514.788 7  -2426893.681 9  21844135.220    21844134.440
  21724438.434     4058703.203 7   3162624.753 8  21724455.313    21724455.163
  23553520.187     3799381.668 6   2960555.011 7  23553542.822    23553541.862
  22849768.874    -4743056.532 6  -3695885.997 8  22849787.611    22849786.022
  20818503.850     1157343.985 8    901826.539 9  20818524.355    20818522.797
  20616352.086     4134889.793 8   3625620.573 9  20616370.434    20616369.115
 92  8  6  1 21 10.0000000  0  6 21  3 26 28 17 23
  21842425.593    -3123394.258 7  -2433812.746 9  21842445.440    21842445.290
  21727225.005     4073366.779 7   3174050.909 8  21727245.931    21727245.451
  23556064.976     3812754.712 6   2970975.552 7  23556087.760    23556087.280
  22847122.366    -4756956.854 6  -3706717.408 8  22847142.003    22847140.864
  20819344.498     1161752.222 8    905261.528 9  20819363.385    20819361.916
  20616807.501     4137311.364 8   3627507.511 9  20616830.915    20616829.836
 92  8  6  1 21 15.0000000  0  6 21  3 26 28 17 23
  21840738.152    -3132267.853 7  -2440727.232 9  21840757.188    21840756.379
  21730016.283     4088042.101 7   3185486.214 8  21730038.497    21730038.407
  23558614.111     3826135.806 6   2981402.379 7  23558634.077    23558633.387
  22844479.876    -4770848.438 7  -3717542.016 8  22844498.883    22844497.503
  20820185.416     1166166.449 8    908701.186 9  20820203.223    20820202.054
  20617272.629     4139740.450 8   3629400.307 9  20617293.405    20617292.026
 92  8  6  1 21 20.0000000  0  6 21  3 26 28 17 23
  21839050.350    -3141135.700 7  -2447637.243 9  21839069.777    21839068.907
  21732814.935     4102728.992 7   3196930.542 8  21732833.492    21732833.163
  23561160.968     3839525.014 6   2991835.518 7  23561182.193    23561181.234
  22841837.115    -4784731.376 6  -3728359.873 8  22841857.411    22841855.882
  20821022.946     1170586.562 8    912145.426 9  20821044.591    20821043.062
  20617739.226     4142176.995 8   3631298.913 9  20617756.734    20617755.715
 92  8  6  1 21 25.0000000  0  6 21  3 26 28 17 23
  21837364.377    -3149998.305 7  -2454543.157 9  21837382.904    21837382.245
  21735612.808     4117427.090 7   3208383.598 8  21735630.406    21735630.046
  23563713.191     3852921.966 6   3002274.686 7  23563731.808    23563730.339
  22839197.143    -4798606.247 6  -3739171.458 8  22839216.599    22839215.400
  20821867.131     1175012.022 8    915593.836 9  20821886.768    20821885.149
  20618202.675     4144620.290 8   3633202.779 9  20618222.012    20618220.723
 92  8  6  1 21 30.0000000  0  6 21  3 26 28 17 23
  21835674.837    -3158855.410 7  -2461444.797 9  21835697.801    21835697.111
  21738409.302     4132136.703 7   3219845.626 8  21738429.538    21738429.089
  23566260.767     3866327.012 6   3012720.175 7  23566282.652    23566281.962
  22836558.999    -4812472.742 7  -3749976.512 8  22836577.706    22836577.137
  20822714.225     1179443.272 8    919046.758 9  20822729.784    20822728.465
  20618666.904     4147070.723 8   3635112.210 9  20618688.129    20618687.050
 92  8  6  1 21 35.0000000  0  6 21  3 26 28 17 23
  21833994.230    -3167707.178 7  -2468342.278 9  21834013.417    21834012.518
  21741210.023     4146857.692 7   3231316.524 8  21741230.859    21741230.769
  23568815.598     3879739.954 6   3023171.810 7  23568834.995    23568834.036
  22833918.307    -4826331.122 6  -3760775.236 8  22833940.672    22833939.982
  20823554.573     1183880.379 8    922504.240 9  20823574.329    20823572.860
  20619133.621     4149528.216 8   3637027.136 9  20619155.955    20619154.786
 92  8  6  1 21 40.0000000  0  6 21  3 26 28 17 23
  21832310.356    -3176553.742 7  -2475235.701 9  21832329.543    21832329.183
  21744012.933     4161590.180 7   3242796.374 8  21744034.518    21744033.739
  23571369.081     3893160.530 6   3033629.400 7  23571388.687    23571387.968
  22831285.740    -4840181.490 6  -3771567.726 8  22831304.777    22831304.117
  20824398.489     1188323.527 8    925966.433 9  20824419.804    20824418.455
  20619604.475     4151992.658 8   3638947.482 9  20619624.921    20619623.692
 92  8  6  1 21 45.0000000  0  6 21  3 26 28 17 23
  21830627.051    -3185395.081 7  -2482125.051 9  21830647.197    21830646.538
  21746817.611     4176334.121 7   3254285.159 8  21746839.946    21746839.766
  23573923.912     3906588.713 6   3044092.902 7  23573944.028    23573943.309
  22828652.153    -4854024.151 7  -3782354.200 8  22828670.830    22828669.271
  20825249.600     1192772.809 8    929433.407 9  20825266.508    20825264.979
  20620075.869     4154464.084 8   3640873.271 9  20620095.205    20620093.766
 92  8  6  1 21 50.0000000  0  6 21  3 26 28 17 23
  21828947.374    -3194231.010 7  -2489010.191 9  21828965.811    21828965.422
  21749625.588     4191089.898 7   3265783.154 8  21749647.952    21749647.592
  23576481.771     3920024.900 6   3054562.650 7  23576500.388    23576499.669
  22826018.686    -4867859.060 6  -3793134.642 8  22826038.083    22826036.494
  20826094.385     1197228.360 8    932905.260 9  20826114.531    20826112.912
  20620545.523     4156942.782 8   3642804.721 9  20620566.899    20620565.370
 92  8  6  1 21 55.0000000  0  6 21  3 26 28 17 23
  21827265.958    -3203061.742 7  -2495891.279 9  21827285.715    21827284.875
  21752438.630     4205857.133 7   3277290.092 8  21752457.967    21752458.087
  23579039.930     3933468.964 6   3065038.545 7  23579059.027    23579058.158
  22823385.819    -4881686.305 7  -3803909.118 8  22823406.654    22823405.605
  20826940.699     1201690.025 8    936381.885 9  20826963.573    20826961.894
  20621018.656     4159428.737 8   3644741.831 9  20621039.731    20621038.682
 92  8  6  1 22  0.0000000  0  6 21  3 26 28 17 23
  21825586.611    -3211887.294 7  -2502768.336 9  21825606.397    21825605.498
  21755248.705     4220635.922 7   3288806.018 8  21755270.470    21755270.470
  23581596.770     3946920.924 6   3075520.584 7  23581618.865    23581617.846
  22820755.620    -4895505.759 7  -3814677.513 8  22820777.115    22820775.736
  20827791.870     1206157.742 8    939863.225 9  20827813.485    20827811.896
  20621494.786     4161922.129 8   3646684.741 9  20621514.603    20621513.074
 92  8  6  1 22  5.0000000  0  6 21  3 26 28 17 23
  21823910.411    -3220707.648 7  -2509641.334 9  21823928.099    21823927.589
  21758064.086     4235426.178 7   3300330.889 8  21758084.861    21758084.921
  23584156.068     3960380.693 6   3086008.711 7  23584180.202    23584179.153
  22818122.453    -4909317.474 7  -3825439.883 8  22818148.954    22818147.515
  20828645.169     1210631.479 8    943349.253 9  20828664.895    20828663.187
  20621968.998     4164422.698 8   3648633.230 9  20621990.133    20621988.724
 92  8  6  1 22 10.0000000  0  6 21  3 26 28 17 23
  21822230.194    -3229522.618 7  -2516510.141 9  21822250.460    21822249.801
  21760878.118     4250227.974 7   3311864.747 8  21760901.861    21760901.681
  23586720.463     3973848.615 6   3096503.189 7  23586743.427    23586742.138
  22815503.885    -4923121.524 6  -3836196.277 8  22815522.053    22815520.674
  20829496.759     1215111.566 8    946840.228 9  20829517.505    20829515.976
  20622449.415     4166930.590 8   3650587.435 9  20622467.433    20622465.964
 92  8  6  1 22 15.0000000  0  6 21  3 26 28 17 23
  21820549.858    -3238332.070 7  -2523374.654 9  21820573.901    21820573.301
  21763699.464     4265041.527 7   3323407.764 8  21763720.660    21763720.840
  23589282.430     3987324.859 6   3107004.152 7  23589307.252    23589306.773
  22812877.104    -4936917.889 6  -3846946.683 8  22812896.680    22812895.781
  20830347.331     1219598.016 8    950336.167 9  20830371.104    20830369.575
  20622927.045     4169445.783 8   3652547.323 9  20622946.022    20622944.732
 92  8  6  1 22 20.0000000  0  6 21  3 26 28 17 23
  21818878.755    -3247136.249 7  -2530235.044 9  21818898.511    21818897.552
  21766518.143     4279866.684 7   3334959.833 8  21766541.587    21766541.887
  23591855.368     4000809.057 6   3117511.325 7  23591873.266    23591872.966
  22810251.851    -4950707.039 6  -3857691.467 7  22810272.537    22810271.308
  20831205.966     1224090.396 8    953836.719 9  20831226.082    20831224.433
  20623401.706     4171968.021 8   3654512.703 9  20623426.109    20623424.610
 92  8  6  1 22 25.0000000  0  6 21  3 26 28 17 23
  21817201.596    -3255935.135 7  -2537091.325 9  21817224.350    21817223.600
  21769342.158     4294703.215 7   3346520.753 8  21769364.792    21769365.212
  23594418.144     4014301.087 6   3128024.589 7  23594440.539    23594439.999
  22807630.496    -4964489.149 6  -3868430.758 8  22807650.132    22807648.843
  20832061.874     1228588.407 8    957341.666 9  20832082.170    20832080.401
  20623885.661     4174497.100 8   3656483.414 9  20623907.546    20623905.987
 92  8  6  1 22 30.0000000  0  6 21  3 26 28 17 23
  21815530.343    -3264728.458 7  -2543943.265 9  21815551.148    21815550.459
  21772168.481     4309551.690 7   3358090.987 8  21772190.456    21772190.726
  23596987.426     4027801.325 6   3138544.251 7  23597009.820    23597008.711
  22805007.162    -4978263.808 6  -3879164.257 8  22805028.657    22805027.548
  20832917.691     1233092.383 8    960851.260 9  20832938.946    20832937.178
  20624369.916     4177033.482 8   3658459.817 9  20624390.182    20624388.413
 92  8  6  1 22 35.0000000  0  6 21  3 26 28 17 23
  21813856.781    -3273517.016 7  -2550791.496 9  21813878.486    21813878.186
  21774995.884     4324411.218 7   3369669.831 8  21775018.279    21775018.009
  23599556.827     4041308.922 6   3149069.642 7  23599580.450    23599579.431
  22802387.965    -4992031.760 6  -3889892.530 8  22802408.651    22802407.422
  20833775.337     1237601.469 8    964364.832 9  20833796.893    20833795.484
  20624851.682     4179576.348 8   3660441.274 9  20624874.047    20624872.518
 92  8  6  1 22 40.0000000  0  6 21  3 26 28 17 23
  21812185.978    -3282300.226 7  -2557635.552 9  21812207.293    21812206.634
  21777824.696     4339282.101 7   3381257.530 8  21777848.139    21777847.810
  23602130.665     4054824.383 6   3159601.175 7  23602152.280    23602151.321
  22799771.497    -5005792.345 6  -3900615.058 8  22799789.934    22799788.525
  20834636.731     1242116.086 8    967882.713 9  20834656.098    20834654.839
  20625335.937     4182125.740 8   3662427.809 9  20625359.111    20625357.522
 92  8  6  1 22 45.0000000  0  6 21  3 26 28 17 23
  21810513.346    -3291077.741 7  -2564475.173 9  21810536.760    21810536.160
  21780657.884     4354164.573 7   3392854.251 8  21780680.219    21780679.949
  23604702.105     4068348.134 6   3170139.144 7  23604725.758    23604725.009
  22797152.929    -5019545.255 6  -3911331.607 8  22797173.435    22797171.726
  20835495.067     1246636.366 8    971405.010 9  20835516.382    20835514.763
  20625821.661     4184681.634 8   3664419.416 9  20625845.554    20625843.935
 92  8  6  1 22 50.0000000  0  6 21  3 26 28 17 23
  21808845.870    -3299849.611 7  -2571310.389 9  21808867.695    21808867.275
  21783492.662     4369058.421 7   3404459.848 8  21783514.367    21783513.947
  23607277.682     4081879.960 6   3180683.433 7  23607301.155    23607299.986
  22794534.452    -5033290.873 7  -3922042.465 8  22794557.296    22794555.857
  20836353.523     1251162.272 8    974931.691 9  20836377.506    20836376.127
  20626312.271     4187243.862 8   3666415.962 9  20626333.107    20626331.338
 92  8  6  1 22 55.0000000  0  6 21  3 26 28 17 23
  21807177.105    -3308615.737 7  -2578141.146 9  21807199.440    21807198.870
  21786327.259     4383963.729 7   3416074.357 8  21786350.613    21786350.553
  23609859.285     4095419.904 6   3191234.036 7  23609877.602    23609876.463
  22791920.682    -5047029.298 7  -3932747.736 8  22791942.806    22791941.397
  20837221.362     1255694.054 8    978462.951 9  20837239.769    20837238.540
  20626800.633     4189812.406 8   3668417.423 9  20626821.768    20626820.239
 92  8  6  1 23  0.0000000  0  6 21  3 26 28 17 23
  21805510.529    -3317376.130 7  -2584967.416 9  21805532.234    21805531.754
  21789166.144     4398880.587 7   3427697.876 8  21789189.138    21789188.928
  23612431.983     4108968.094 6   3201791.055 7  23612455.667    23612455.187
  22789309.759    -5060760.591 6  -3943447.437 7  22789330.235    22789328.376
  20838085.094     1260231.636 8    981998.723 9  20838103.321    20838101.702
  20627289.744     4192387.380 8   3670423.899 9  20627311.839    20627310.070
 92  8  6  1 23  5.0000000  0  6 21  3 26 28 17 23
  21803846.591    -3326130.933 7  -2591789.342 9  21803866.527    21803866.257
  21792009.106     4413808.775 7   3439330.228 8  21792029.642    21792029.942
  23615011.008     4122524.475 6   3212354.464 7  23615035.381    23615034.662
  22786697.757    -5074484.956 6  -3954141.746 7  22786718.893    22786717.004
  20838946.667     1264774.944 8    985538.966 9  20838968.073    20838966.454
  20627780.805     4194968.548 8   3672435.201 9  20627802.989    20627801.280
 92  8  6  1 23 10.0000000  0  6 21  3 26 28 17 23
  21802180.075    -3334880.325 7  -2598607.050 9  21802201.480    21802201.150
  21794851.169     4428748.191 7   3450971.321 8  21794872.664    21794872.843
  23617592.071     4136088.945 6   3222924.176 7  23617616.534    23617615.455
  22784086.475    -5088202.526 6  -3964830.746 7  22784108.300    22784105.962
  20839811.179     1269323.785 8    989083.518 9  20839833.513    20839832.104
  20628277.800     4197555.760 8   3674451.208 9  20628295.158    20628293.779
 92  8  6  1 23 15.0000000  0  6 21  3 26 28 17 23
  21800517.456    -3343624.005 7  -2605420.312 9  21800537.542    21800537.092
  21797695.929     4443699.100 7   3462621.375 8  21797717.754    21797717.934
  23620175.593     4149661.935 6   3233500.527 7  23620199.426    23620198.437
  22781477.951    -5101912.898 6  -3975514.155 8  22781499.236    22781497.108
  20840681.117     1273878.377 8    992632.548 9  20840700.453    20840699.044
  20628767.871     4200149.471 8   3676472.282 9  20628788.767    20628787.298
 92  8  6  1 23 20.0000000  0  6 21  3 26 28 17 23
  21798852.438    -3352362.842 7  -2612229.788 9  21798874.713    21798874.024
  21800541.799     4458660.877 7   3474279.900 8  21800565.063    21800565.183
  23622761.333     4163242.678 6   3244082.911 7  23622783.817    23622783.158
  22778870.356    -5115616.606 6  -3986192.362 7  22778891.552    22778889.933
  20841546.887     1278438.141 8    996185.603 9  20841567.903    20841566.404
  20629261.330     4202749.010 8   3678497.899 9  20629283.454    20629281.985
 92  8  6  1 23 25.0000000  0  6 21  3 26 28 17 23
  21797190.269    -3361096.570 7  -2619035.288 9  21797212.784    21797212.634
  21803392.495     4473634.014 7   3485947.271 8  21803414.051    21803414.081
  23625347.073     4176831.576 6   3254671.658 7  23625369.797    23625369.167
  22776265.729    -5129313.078 6  -3996864.930 8  22776285.156    22776283.597
  20842414.786     1283003.523 8    999743.051 9  20842436.791    20842435.472
  20629762.013     4205354.664 8   3680528.275 9  20629779.311    20629777.962
 92  8  6  1 23 30.0000000  0  6 21  3 26 28 17 23
  21795530.888    -3369825.060 7  -2625836.708 9  21795551.783    21795551.244
  21806243.162     4488618.553 7   3497623.527 8  21806265.527    21806265.616
  23627937.279     4190428.740 6   3265266.845 7  23627957.306    23627955.837
  22773657.745    -5143002.195 6  -4007531.772 8  22773680.349    22773678.850
  20843284.934     1287574.593 8   1003304.922 9  20843306.699    20843305.230
  20630254.242     4207966.388 8   3682563.382 9  20630276.367    20630274.928
 92  8  6  1 23 35.0000000  0  6 21  3 26 28 17 23
  21793871.267    -3378548.658 7  -2632634.311 9  21793891.713    21793891.083
  21809095.088     4503614.049 7   3509308.315 8  21809119.491    21809119.311
  23630525.298     4204033.872 6   3275868.237 7  23630546.223    23630545.564
  22771054.767    -5156684.239 6  -4018193.108 8  22771076.592    22771074.673
  20844157.870     1292150.900 8   1006870.873 9  20844177.416    20844175.947
  20630750.039     4210583.770 8   3684602.902 9  20630774.232    20630773.033
 92  8  6  1 23 40.0000000  0  6 21  3 26 28 17 23
  21792212.095    -3387267.463 7  -2639428.184 9  21792232.212    21792231.612
  21811953.849     4518620.542 7   3521001.686 8  21811974.504    21811974.954
  23633115.744     4217646.532 6   3286475.501 7  23633136.100    23633135.321
  22768456.406    -5170359.275 7  -4028848.973 8  22768474.063    22768472.714
  20845028.647     1296732.248 8   1010440.757 9  20845049.153    20845047.714
  20631251.862     4213206.513 8   3686646.590 9  20631273.567    20631271.918
 92  8  6  1 23 45.0000000  0  6 21  3 26 28 17 23
  21790553.644    -3395980.675 7  -2646217.698 9  21790574.539    21790573.790
  21814810.961     4533638.776 7   3532704.197 8  21814833.145    21814832.126
  23635708.290     4231267.601 6   3297089.312 7  23635728.316    23635727.716
  22765853.338    -5184026.371 7  -4039498.652 8  22765873.514    22765872.285
  20845898.944     1301319.445 8   1014015.193 9  20845922.238    20845920.739
  20631752.515     4215835.670 8   3688695.286 9  20631773.620    20631772.331
 92  8  6  1 23 50.0000000  0  6 21  3 26 28 17 23
  21788895.282    -3404688.661 7  -2653003.139 9  21788917.316    21788916.447
  21817670.981     4548668.404 7   3544415.587 8  21817692.896    21817692.896
  23638299.636     4244896.587 6   3307709.292 7  23638321.850    23638321.521
  22763252.878    -5197686.064 7  -4050142.566 8  22763274.223    22763272.604
  20846776.317     1305912.012 8   1017593.816 9  20846796.103    20846794.544
  20632253.498     4218470.912 8   3690748.725 9  20632275.113    20632273.734
 92  8  6  1 23 55.0000000  0  6 21  3 26 28 17 23
  21787243.305    -3413390.865 7  -2659784.065 9  21787261.563    21787260.723
  21820533.069     4563709.662 7   3556136.041 8  21820554.864    21820554.984
  23640892.870     4258533.906 6   3318335.778 7  23640916.914    23640916.854
  22760654.577    -5211337.767 6  -4060780.240 8  22760676.611    22760674.843
  20847652.580     1310510.178 8   1021176.810 9  20847671.048    20847669.609
  20632754.691     4221112.410 8   3692807.036 9  20632777.745    20632776.606
 92  8  6  1 24  0.0000000  0  6 21  3 26 28 17 23
  21785585.453    -3422087.716 7  -2666560.843 9  21785606.468    21785606.019
  21823394.708     4578762.056 7   3567865.172 8  21823419.471    21823419.621
  23643490.842     4272179.204 6   3328968.467 7  23643513.686    23643512.877
  22758058.974    -5224981.668 6  -4071411.853 8  22758079.959    22758078.610
  20848526.595     1315113.420 8   1024763.750 9  20848546.801    20848545.572
  20633261.370     4223759.832 8   3694869.962 9  20633281.906    20633280.287
 92  8  6  1 24  5.0000000  0  6 21  3 26 28 17 23
  21783932.098    -3430779.042 7  -2673333.311 9  21783952.394    21783951.854
  21826267.499     4593825.840 7   3579603.180 8  21826285.937    21826285.877
  23646089.803     4285832.999 6   3339607.781 7  23646111.987    23646110.758
  22755463.341    -5238617.588 7  -4082037.237 8  22755484.746    22755483.966
  20849400.311     1319721.680 8   1028354.600 9  20849423.934    20849422.705
  20633766.131     4226413.454 8   3696937.721 9  20633786.397    20633785.318
 92  8  6  1 24 10.0000000  0  6 21  3 26 28 17 23
  21782279.582    -3439465.242 7  -2680101.773 9  21782299.578    21782298.648
  21829134.565     4608900.555 7   3591349.710 8  21829154.441    21829154.531
  23648688.823     4299494.916 6   3350253.434 7  23648711.518    23648710.948
  22752873.194    -5252245.609 7  -4092656.467 8  22752891.511    22752890.282
  20850281.341     1324334.613 8   1031949.090 9  20850301.637    20850300.377
  20634269.393     4229072.964 8   3699010.064 9  20634292.537    20634291.307
 92  8  6  1 24 15.0000000  0  6 21  3 26 28 17 23
  21780626.466    -3448145.908 7  -2686865.924 9  21780647.601    21780646.882
  21832005.437     4623986.578 7   3603105.041 8  21832025.463    21832024.984
  23651291.412     4313165.143 6   3360905.560 7  23651313.207    23651312.097
  22750279.539    -5265865.196 7  -4103269.126 8  22750300.345    22750298.666
  20851160.362     1328952.589 8   1035547.520 9  20851180.478    20851179.399
  20634777.181     4231738.680 8   3701087.246 9  20634799.935    20634798.496
 92  8  6  1 24 20.0000000  0  6 21  3 26 28 17 23
  21778975.929    -3456821.032 7  -2693625.760 9  21778996.974    21778996.225
  21834877.419     4639083.988 7   3614869.249 8  21834898.434    21834898.105
  23653893.880     4326843.618 6   3371564.106 7  23653915.915    23653915.315
  22747690.801    -5279476.303 6  -4113875.182 8  22747709.748    22747708.159
  20852039.054     1333575.573 8   1039149.842 9  20852060.129    20852058.960
  20635291.865     4234410.541 8   3703169.220 9  20635308.024    20635306.884
 92  8  6  1 24 25.0000000  0  6 21  3 26 28 17 23
  21777329.139    -3465490.303 7  -2700381.039 9  21777347.216    21777346.737
  21837752.309     4654192.901 7   3626642.421 8  21837773.564    21837773.474
  23656497.308     4340530.582 6   3382229.264 7  23656520.991    23656519.672
  22745104.102    -5293078.730 6  -4124474.470 8  22745121.490    22745119.811
  20852921.853     1338203.827 8   1042756.277 9  20852941.039    20852939.720
  20635798.064     4237088.749 8   3705256.129 9  20635818.030    20635816.831
 92  8  6  1 24 30.0000000  0  6 21  3 26 28 17 23
  21775677.762    -3474153.987 7  -2707131.950 9  21775698.478    21775697.788
  21840630.436     4669313.245 7   3638424.496 8  21840650.732    21840650.642
  23659104.992     4354225.747 6   3392900.834 7  23659126.877    23659125.378
  22742513.116    -5306672.611 7  -4135067.094 8  22742534.401    22742532.872
  20853805.791     1342837.085 8   1046366.606 9  20853822.519    20853821.020
  20636306.782     4239773.206 8   3707347.912 9  20636328.967    20636327.708
 92  8  6  1 24 35.0000000  0  6 21  3 26 28 17 23
  21774029.983    -3482812.297 7  -2713878.688 9  21774050.908    21774050.608
  21843509.703     4684444.599 7   3650215.153 8  21843530.029    21843530.119
  23661715.135     4367928.683 6   3403578.444 7  23661733.992    23661732.883
  22739929.235    -5320257.974 7  -4145653.090 8  22739949.441    22739948.181
  20854685.412     1347474.917 8   1049980.502 9  20854704.988    20854703.819
  20636819.187     4242463.503 8   3709444.248 9  20636840.742    20636839.633
 92  8  6  1 24 40.0000000  0  6 21  3 26 28 17 23
  21772385.831    -3491464.776 7  -2720620.879 9  21772404.238    21772403.729
  21846392.567     4699587.505 7   3662014.808 8  21846411.754    21846412.084
  23664323.180     4381639.687 6   3414262.331 7  23664342.876    23664342.607
  22737346.343    -5333834.153 7  -4156231.925 8  22737366.159    22737364.510
  20855566.502     1352117.819 8   1053598.342 9  20855588.716    20855587.247
  20637333.361     4245160.147 8   3711545.531 9  20637353.987    20637352.548
 92  8  6  1 24 45.0000000  0  6 21  3 26 28 17 23
  21770738.292    -3500111.448 7  -2727358.543 9  21770759.097    21770758.468
  21849274.322     4714741.789 7   3673823.337 8  21849295.308    21849295.877
  23666934.642     4395358.973 6   3424952.699 7  23666954.009    23666952.839
  22734764.080    -5347401.110 6  -4166803.581 8  22734784.376    22734782.787
  20856452.658     1356765.755 8   1057220.115 9  20856473.014    20856471.905
  20637849.004     4247863.092 8   3713651.720 9  20637868.311    20637867.172
 92  8  6  1 24 50.0000000  0  6 21  3 26 28 17 23
  21769095.938    -3508752.490 7  -2734091.821 9  21769114.855    21769114.046
  21852158.086     4729907.148 7   3685640.493 8  21852181.320    21852181.739
  23669547.453     4409086.306 6   3435649.310 7  23669566.250    23669564.481
  22732184.666    -5360959.070 7  -4177368.217 8  22732204.482    22732202.803
  20857341.123     1361418.594 8   1060845.701 9  20857358.421    20857357.222
  20638363.598     4250572.355 8   3715762.831 9  20638383.894    20638382.515
 92  8  6  1 24 55.0000000  0  6 21  3 26 28 17 23
  21767449.868    -3517387.646 7  -2740820.512 9  21767471.153    21767471.033
  21855048.295     4745083.788 7   3697466.428 8  21855069.520    21855069.520
  23672154.538     4422821.771 6   3446352.273 7  23672179.841    23672178.282
  22729604.502    -5374507.867 7  -4187925.716 8  22729626.357    22729625.128
  20858225.031     1366076.532 8   1064475.266 9  20858244.788    20858243.618
  20638880.800     4253288.079 8   3717878.982 9  20638900.706    20638899.567
 92  8  6  1 25  0.0000000  0  6 21  3 26 28 17 23
  21765810.873    -3526016.919 7  -2747544.612 9  21765829.280    21765828.860
  21857938.384     4760271.684 7   3709301.149 8  21857959.579    21857959.669
  23674772.746     4436565.277 6   3457061.504 7  23674795.140    23674794.271
  22727030.064    -5388047.663 7  -4198476.201 8  22727049.761    22727048.502
  20859111.098     1370739.540 8   1068108.781 9  20859131.993    20859130.584
  20639401.749     4256010.426 8   3720000.291 9  20639418.838    20639417.549
 92  8  6  1 25  5.0000000  0  6 21  3 26 28 17 23
  21764167.201    -3534640.098 7  -2754263.973 9  21764188.306    21764187.676
  21860829.283     4775471.084 7   3721144.823 8  21860852.067    21860851.947
  23677393.472     4450316.772 6   3467776.953 7  23677411.789    23677410.800
  22724455.747    -5401578.194 7  -4209019.467 8  22724475.113    22724474.124
  20860000.492     1375407.927 8   1071746.485 9  20860020.428    20860019.139
  20639916.763     4258740.054 8   3722127.274 9  20639938.078    20639936.789
 92  8  6  1 25 10.0000000  0  6 21  3 26 28 17 23
  21762527.606    -3543258.180 7  -2760979.366 9  21762548.501    21762547.902
  21863724.289     4790681.156 7   3732996.825 8  21863746.623    21863746.413
  23680010.360     4464075.106 6   3478497.720 7  23680030.326    23680029.157
  22721880.889    -5415100.188 7  -4219556.078 8  22721901.875    22721900.286
  20860889.886     1380080.843 8   1075387.722 9  20860909.823    20860908.114
  20640437.263     4261476.277 8   3724259.397 9  20640458.968    20640457.529
 92  8  6  1 25 15.0000000  0  6 21  3 26 28 17 23
  21760888.430    -3551870.580 7  -2767690.323 9  21760909.326    21760909.116
  21866621.783     4805902.649 7   3744857.718 8  21866642.978    21866642.678
  23682627.248     4477840.990 6   3489224.387 7  23682650.362    23682648.444
  22719309.239    -5428612.757 7  -4230085.348 8  22719330.495    22719328.996
  20861779.311     1384758.836 8   1079032.904 9  20861800.026    20861798.647
  20640959.321     4264219.868 8   3726397.255 9  20640981.026    20640979.557
 92  8  6  1 25 20.0000000  0  6 21  3 26 28 17 23
  21759250.005    -3560477.428 7  -2774396.947 9  21759271.680    21759270.990
  21869518.947     4821135.381 7   3756727.380 8  21869541.851    21869541.491
  23685250.013     4491614.366 6   3499956.882 7  23685270.758    23685269.919
  22716740.738    -5442115.987 7  -4240607.345 8  22716760.974    22716759.115
  20862668.105     1389441.566 8   1082681.789 9  20862691.219    20862689.690
  20641485.247     4266970.622 8   3728540.707 9  20641504.464    20641502.965
 92  8  6  1 25 25.0000000  0  6 21  3 26 28 17 23
  21757612.448    -3569078.816 7  -2781099.325 9  21757634.933    21757634.513
  21872418.300     4836379.045 7   3768605.552 8  21872442.523    21872442.523
  23687871.428     4505394.918 6   3510694.973 7  23687893.283    23687892.533
  22714173.045    -5455609.937 7  -4251122.102 8  22714192.861    22714191.303
  20863563.765     1394128.967 8   1086334.305 9  20863583.252    20863581.933
  20642010.184     4269728.188 8   3730689.456 9  20642029.370    20642027.632
 92  8  6  1 25 30.0000000  0  6 21  3 26 28 17 23
  21755976.691    -3577674.328 7  -2787797.126 9  21755999.175    21755998.606
  21875319.392     4851634.065 7   3780492.571 8  21875345.234    21875345.204
  23690495.751     4519182.775 6   3521438.742 7  23690517.186    23690515.597
  22711605.443    -5469094.188 7  -4261629.310 8  22711627.058    22711625.709
  20864456.907     1398821.367 8   1089990.721 9  20864476.004    20864474.775
  20642536.829     4272492.668 8   3732843.598 9  20642555.176    20642553.857
 92  8  6  1 25 35.0000000  0  6 21  3 26 28 17 23
  21754343.421    -3586263.191 7  -2794489.743 9  21754364.677    21754364.287
  21878230.826     4866900.893 7   3792388.797 8  21878250.402    21878250.582
  23693119.535     4532978.461 6   3532188.626 7  23693142.079    23693141.150
  22709040.988    -5482567.998 7  -4272128.385 8  22709062.993    22709061.614
  20865347.860     1403519.269 8   1093651.428 9  20865369.985    20865368.396
  20643062.485     4275264.663 8   3735003.597 9  20643082.811    20643081.252
 92  8  6  1 25 40.0000000  0  6 21  3 26 28 17 23
  21752707.514    -3594846.164 8  -2801177.771 9  21752731.527    21752730.718
  21881134.676     4882178.876 7   3804293.715 8  21881158.149    21881157.700
  23695748.055     4546781.339 6   3542944.109 7  23695768.681    23695767.751
  22706480.131    -5496032.091 7  -4282619.874 8  22706500.877    22706500.037
  20866243.820     1408222.062 8   1097315.945 9  20866264.835    20866263.606
  20643590.510     4278043.309 8   3737168.774 9  20643611.675    20643610.146
 92  8  6  1 25 45.0000000  0  6 21  3 26 28 17 23
  21751077.093    -3603422.959 7  -2807860.993 9  21751099.157    21751098.798
  21884045.211     4897468.088 7   3816207.379 8  21884067.395    21884067.635
  23698377.325     4560591.634 6   3553705.379 7  23698396.242    23698396.002
  22703922.661    -5509486.359 7  -4293103.722 8  22703940.499    22703939.600
  20867139.420     1412929.854 8   1100984.346 9  20867160.705    20867159.476
  20644118.714     4280828.628 8   3739339.154 9  20644141.678    20644139.999
 92  8  6  1 25 50.0000000  0  6 21  3 26 28 17 23
  21749444.723    -3611993.337 7  -2814539.206 9  21749468.256    21749467.387
  21886957.275     4912768.563 7   3828129.818 8  21886978.860    21886978.920
  23701004.256     4574409.295 6   3564472.377 7  23701025.811    23701025.002
  22701361.624    -5522930.680 7  -4303579.797 8  22701382.010    22701380.781
  20868036.639     1417642.565 8   1104656.589 9  20868057.714    20868056.065
  20644648.897     4283620.786 8   3741514.857 9  20644672.940    20644671.411
 92  8  6  1 25 55.0000000  0  6 21  3 26 28 17 23
  21747817.509    -3620557.080 7  -2821212.244 9  21747838.794    21747837.775
  21889871.827     4928080.723 7   3840061.371 8  21889892.753    21889892.693
  23703636.164     4588234.607 6   3575245.342 7  23703657.090    23703656.220
  22698803.645    -5536364.924 7  -4314048.045 8  22698825.740    22698824.031
  20868936.556     1422360.335 8   1108332.777 9  20868955.563    20868953.824
  20645186.275     4286420.105 8   3743696.147 9  20645205.761    20645204.233
 92  8  6  1 26  0.0000000  0  6 21  3 26 28 17 23
  21746189.846    -3629114.588 7  -2827880.428 9  21746209.992    21746209.602
  21892786.020     4943404.158 7   3852001.697 8  21892808.924    21892808.714
  23706268.312     4602067.300 6   3586024.058 7  23706289.597    23706288.248
  22696250.133    -5549789.505 7  -4324508.754 8  22696270.819    22696269.829
  20869833.055     1427082.857 8   1112012.660 9  20869854.101    20869852.812
  20645720.805     4289226.327 8   3745882.817 9  20645739.632    20645737.953
 92  8  6  1 26  5.0000000  0  6 21  3 26 28 17 23
  21744561.313    -3637665.642 7  -2834543.586 9  21744583.078    21744582.359
  21895702.640     4958738.963 7   3863950.895 8  21895726.714    21895726.564
  23708896.982     4615907.783 6   3596808.844 7  23708922.704    23708922.105
  22693700.278    -5563204.434 7  -4334961.946 8  22693718.356    22693716.497
  20870732.732     1431810.216 8   1115696.312 9  20870753.628    20870752.339
  20646254.885     4292039.567 8   3748074.951 9  20646274.851    20646273.532
 92  8  6  1 26 10.0000000  0  6 21  3 26 28 17 23
  21742936.438    -3646210.123 7  -2841201.619 9  21742956.914    21742956.285
  21898624.448     4974085.122 7   3875908.933 8  21898647.082    21898646.962
  23711533.477     4629756.152 6   3607599.772 7  23711558.390    23711557.191
  22691146.766    -5576609.880 7  -4345407.746 8  22691167.392    22691165.893
  20871634.838     1436542.509 8   1119383.812 9  20871654.324    20871652.885
  20646789.385     4294859.422 8   3750272.240 9  20646811.480    20646810.131
 92  8  6  1 26 15.0000000  0  6 21  3 26 28 17 23
  21741309.285    -3654748.046 7  -2847854.542 9  21741332.189    21741331.769
  21901548.144     4989442.599 7   3887875.789 8  21901569.399    21901569.549
  23714173.479     4643612.300 6   3618396.751 7  23714195.394    23714194.405
  22688598.650    -5590005.879 7  -4355846.181 8  22688617.927    22688616.787
  20872534.875     1441279.951 8   1123075.324 9  20872555.770    20872554.361
  20647326.793     4297685.935 8   3752474.720 9  20647349.517    20647347.749
 92  8  6  1 26 20.0000000  0  6 21  3 26 28 17 23
  21739687.438    -3663280.188 7  -2854502.970 9  21739708.633    21739707.973
  21904474.238     5004811.048 7   3899851.195 8  21904494.054    21904494.474
  23716813.811     4657475.548 6   3629199.280 7  23716833.478    23716831.859
  22686051.883    -5603393.087 7  -4366277.768 8  22686070.470    22686068.971
  20873436.261     1446021.908 8   1126770.358 9  20873457.936    20873456.317
  20647869.477     4300518.730 8   3754682.092 9  20647888.604    20647887.075
 92  8  6  1 26 25.0000000  0  6 21  3 26 28 17 23
  21738063.822    -3671806.243 7  -2861146.641 9  21738086.276    21738085.676
  21907399.913     5020190.671 7   3911835.314 8  21907420.838    21907420.508
  23719448.448     4671345.949 6   3640007.406 7  23719472.131    23719471.442
  22683505.506    -5616771.215 7  -4376702.284 8  22683524.932    22683523.404
  20874339.955     1450768.606 8   1130469.086 9  20874361.540    20874359.831
  20648406.975     4303357.829 8   3756894.379 9  20648428.980    20648427.241
 92  8  6  1 26 30.0000000  0  6 21  3 26 28 17 23
  21736443.593    -3680326.157 7  -2867785.530 9  21736464.729    21736464.039
  21910325.857     5035581.228 7   3923827.947 8  21910349.211    21910349.541
  23722093.636     4685223.392 6   3650820.972 7  23722113.483    23722112.223
  22680961.677    -5630140.393 7  -4387119.817 8  22680980.624    22680979.784
  20875245.478     1455520.117 8   1134171.555 9  20875265.564    20875264.185
  20648947.501     4306202.999 8   3759111.397 9  20648970.285    20648968.696
 92  8  6  1 26 35.0000000  0  6 21  3 26 28 17 23
  21734824.684    -3688839.572 7  -2874419.359 9  21734844.860    21734844.260
  21913259.326     5050983.099 7   3935829.392 8  21913279.952    21913280.372
  23724732.829     4699108.036 6   3661640.194 7  23724755.673    23724755.014
  22678417.578    -5643500.531 7  -4397530.314 8  22678438.504    22678436.915
  20876149.652     1460276.725 8   1137878.007 9  20876170.638    20876169.499
  20649491.504     4309054.429 8   3761333.289 9  20649512.610    20649511.231
 92  8  6  1 26 40.0000000  0  6 21  3 26 28 17 23
  21733206.614    -3697346.263 7  -2881047.951 9  21733226.041    21733225.621
  21916188.568     5066396.448 7   3947839.786 8  21916213.301    21916213.541
  23727379.397     4713000.278 6   3672465.311 7  23727399.483    23727398.254
  22675875.608    -5656851.470 7  -4407933.642 8  22675897.853    22675896.204
  20877055.235     1465038.567 8   1141588.533 9  20877076.761    20877075.292
  20650036.767     4311912.384 8   3763560.272 9  20650056.823    20650055.054
 92  8  6  1 26 45.0000000  0  6 21  3 26 28 17 23
  21731586.746    -3705846.640 7  -2887671.620 9  21731608.241    21731607.881
  21919127.584     5081820.880 7   3959858.817 8  21919147.970    21919148.599
  23730026.954     4726899.884 6   3683296.171 7  23730044.732    23730043.203
  22673341.073    -5670193.596 7  -4418330.106 8  22673359.150    22673357.501
  20877963.097     1469805.298 8   1145302.870 9  20877983.903    20877982.523
  20650582.839     4314776.492 8   3765792.042 9  20650601.666    20650600.047
 92  8  6  1 26 50.0000000  0  6 21  3 26 28 17 23
  21729970.894    -3714340.621 7  -2894290.303 9  21729992.060    21729991.910
  21922063.601     5097256.537 7   3971886.593 8  21922085.576    21922086.026
  23732671.483     4740806.793 6   3694132.727 7  23732690.940    23732689.861
  22670803.509    -5683526.796 7  -4428719.604 8  22670821.467    22670820.268
  20878873.237     1474577.143 8   1149021.184 9  20878891.974    20878890.745
  20651126.782     4317646.845 8   3768028.680 9  20651147.948    20651146.299
 92  8  6  1 26 55.0000000  0  6 21  3 26 28 17 23
  21728355.043    -3722828.304 7  -2900904.085 9  21728376.928    21728376.688
  21925004.775     5112703.299 7   3983923.021 8  21925025.041    21925025.191
  23735318.951     4754720.962 6   3704974.941 7  23735338.797    23735337.628
  22668265.616    -5696851.355 6  -4439102.367 8  22668286.122    22668284.533
  20879782.657     1479354.103 8   1152743.489 9  20879800.855    20879799.775
  20651674.683     4320523.265 8   3770270.050 9  20651695.309    20651693.750
 92  8  6  1 27  0.0000000  0  6 21  3 26 28 17 23
  21726741.140    -3731309.814 7  -2907513.046 9  21726762.905    21726762.935
  21927946.369     5128161.069 7   3995968.019 8  21927966.695    21927966.844
  23737967.167     4768642.391 6   3715822.804 7  23737987.433    23737986.324
  22665731.141    -5710167.514 6  -4449478.600 8  22665751.827    22665750.388
  20880692.138     1484136.105 8   1156469.728 9  20880710.875    20880709.556
  20652225.612     4323405.719 8   3772516.119 9  20652243.629    20652242.040
 92  8  6  1 27  5.0000000  0  6 21  3 26 28 17 23
  21725129.306    -3739784.590 7  -2914116.768 9  21725150.022    21725149.932
  21930890.271     5143630.355 7   4008022.008 8  21930910.057    21930910.626
  23740618.202     4782571.519 6   3726676.692 7  23740638.258    23740636.999
  22663196.995    -5723474.879 6  -4459847.969 8  22663219.480    22663218.101
  20881602.367     1488923.812 8   1160200.406 9  20881622.154    20881620.565
  20652773.872     4326294.724 8   3774767.293 9  20652793.389    20652792.100
 92  8  6  1 27 10.0000000  0  6 21  3 26 28 17 23
  21723520.320    -3748253.139 7  -2920715.642 9  21723538.667    21723538.397
  21933838.729     5159110.774 7   4020084.669 8  21933856.417    21933856.417
  23743268.787     4796507.673 6   3737536.024 7  23743290.552    23743289.443
  22660668.336    -5736773.842 6  -4470210.797 8  22660688.752    22660686.833
  20882517.244     1493716.955 8   1163935.317 9  20882534.092    20882532.893
  20653323.062     4329189.610 8   3777023.047 9  20653344.437    20653342.788
 92  8  6  1 27 15.0000000  0  6 21  3 26 28 17 23
  21721908.546    -3756715.337 7  -2927309.555 9  21721928.542    21721928.152
  21936783.771     5174602.480 7   4032156.122 8  21936803.977    21936804.246
  23745922.580     4810450.929 6   3748400.905 7  23745943.775    23745943.026
  22658140.126    -5750064.302 6  -4480567.001 8  22658159.642    22658158.323
  20883431.431     1498515.785 8   1167674.671 9  20883447.350    20883446.151
  20653875.190     4332090.338 8   3779283.353 9  20653896.355    20653894.916
 92  8  6  1 27 20.0000000  0  6 21  3 26 28 17 23
  21720301.058    -3765170.816 7  -2933898.238 9  21720319.436    21720319.196
  21939733.968     5190105.622 7   4044236.478 8  21939753.994    21939754.804
  23748576.613     4824401.534 6   3759271.510 7  23748598.078    23748597.418
  22655610.657    -5763345.997 6  -4490916.366 8  22655632.302    22655631.013
  20884341.991     1503320.741 8   1171418.793 9  20884361.867    20884360.368
  20654428.637     4334997.084 8   3781548.354 9  20654449.742    20654447.973
 92  8  6  1 27 25.0000000  0  6 21  3 26 28 17 23
  21718691.353    -3773620.092 7  -2940482.084 9  21718711.619    21718711.259
  21942685.185     5205619.931 6   4056325.536 8  21942706.291    21942706.410
  23751235.112     4838359.336 6   3770147.716 7  23751254.449    23751253.729
  22653088.233    -5776619.421 6  -4501259.295 8  22653106.281    22653105.112
  20885257.167     1508131.366 8   1175167.325 9  20885277.313    20885275.934
  20654986.640     4337909.259 8   3783817.587 9  20655003.609    20655002.110
 92  8  6  1 27 30.0000000  0  6 21  3 26 28 17 23
  21717085.245    -3782062.592 7  -2947060.654 9  21717105.001    21717104.401
  21945640.869     5221145.834 6   4068423.647 8  21945660.865    21945661.645
  23753889.085     4852325.077 6   3781030.115 7  23753912.019    23753910.790
  22650563.441    -5789884.227 6  -4511595.506 8  22650582.358    22650580.649
  20886175.312     1512948.308 8   1178920.786 9  20886193.779    20886192.400
  20655537.149     4340827.213 8   3786091.322 9  20655558.854    20655557.235
 92  8  6  1 27 35.0000000  0  6 21  3 26 28 17 23
  21715478.297    -3790498.376 7  -2953633.985 9  21715499.702    21715499.523
  21948597.842     5236683.210 7   4080530.683 7  21948617.658    21948618.408
  23756551.152     4866298.866 6   3791918.778 7  23756571.058    23756569.829
  22648039.968    -5803140.714 6  -4521925.230 8  22648059.425    22648058.286
  20887093.276     1517771.630 8   1182679.221 9  20887111.653    20887110.304
  20656092.874     4343750.678 8   3788369.344 9  20656115.479    20656113.920
 92  8  6  1 27 40.0000000  0  6 21  3 26 28 17 23
  21713875.727    -3798927.642 7  -2960202.246 9  21713895.903    21713895.213
  21951555.624     5252231.900 6   4092646.544 7  21951576.460    21951576.610
  23759207.613     4880280.332 6   3802813.433 7  23759231.236    23759230.307
  22645521.382    -5816389.147 6  -4532248.680 8  22645538.710    22645537.151
  20888012.560     1522601.174 8   1186442.498 9  20888030.937    20888029.258
  20656652.317     4346679.361 8   3790651.438 9  20656672.943    20656671.234
 92  8  6  1 27 45.0000000  0  6 21  3 26 28 17 23
  21712274.295    -3807350.067 7  -2966765.172 9  21712293.332    21712292.553
  21954517.844     5267792.235 6   4104771.468 7  21954537.660    21954537.780
  23761877.085     4894269.812 6   3813714.328 7  23761893.813    23761892.044
  22643001.716    -5829629.073 6  -4542565.512 8  22643019.134    22643017.635
  20888931.544     1527437.499 8   1190211.063 9  20888951.300    20888949.861
  20657212.419     4349613.944 8   3792938.126 9  20657231.156    20657229.508
 92  8  6  1 27 50.0000000  0  6 21  3 26 28 17 23
  21710671.215    -3815766.091 7  -2973323.112 9  21710691.781    21710690.702
  21957480.333     5283363.884 7   4116905.210 7  21957500.569    21957500.928
  23764542.120     4908266.821 6   3824621.084 7  23764556.780    23764555.760
  22640480.821    -5842861.267 6  -4552876.310 8  22640500.937    22640499.229
  20889853.405     1532280.090 8   1193984.508 9  20889872.682    20889870.913
  20657771.472     4352554.129 8   3795229.184 9  20657790.629    20657788.980
 92  8  6  1 27 55.0000000  0  6 21  3 26 28 17 23
  21709071.283    -3824175.796 7  -2979876.128 9  21709091.309    21709090.709
  21960448.248     5298946.724 6   4129047.691 7  21960465.786    21960465.906
  23767203.647     4922271.548 6   3835533.856 7  23767222.324    23767221.155
  22637963.314    -5856085.959 6  -4563181.262 8  22637984.569    22637982.681
  20890777.726     1537128.833 8   1197762.749 9  20890795.293    20890793.794
  20658330.915     4355500.023 8   3797524.682 9  20658351.151    20658349.772
 92  8  6  1 28  0.0000000  0  6 21  3 26 28 17 23
  21707472.879    -3832579.430 7  -2986424.411 9  21707492.186    21707491.346
  21963411.547     5314540.678 6   4141198.812 7  21963433.701    21963433.671
  23769865.984     4936283.901 6   3846452.569 7  23769888.708    23769887.809
  22635449.704    -5869303.372 6  -4573480.541 8  22635469.131    22635467.962
  20891700.906     1541983.636 8   1201545.709 9  20891719.134    20891717.935
  20658891.587     4358451.665 8   3799824.665 9  20658912.692    20658911.313
 92  8  6  1 28  5.0000000  0  6 21  3 26 28 17 23
  21705875.495    -3840976.516 7  -2992967.592 9  21705894.322    21705893.722
  21966381.950     5330146.091 6   4153358.856 8  21966403.086    21966403.565
  23772533.058     4950304.082 6   3857377.389 7  23772556.232    23772555.842
  22632936.514    -5882513.226 7  -4583773.933 8  22632955.551    22632954.202
  20892623.937     1546844.845 8   1205333.667 9  20892644.203    20892642.644
  20659457.415     4361409.440 8   3802129.424 9  20659475.523    20659474.144
 92  8  6  1 28 10.0000000  0  6 21  3 26 28 17 23
  21704277.002    -3849367.117 7  -2999505.714 9  21704297.627    21704296.878
  21969353.493     5345762.941 7   4165527.833 8  21969375.018    21969375.468
  23775209.875     4964332.094 6   3868308.308 7  23775226.034    23775224.115
  22630424.193    -5895715.391 7  -4594061.324 8  22630443.320    22630441.611
  20893549.517     1551712.447 8   1209126.606 9  20893570.832    20893568.913
  20660018.537     4364373.516 8   3804439.101 9  20660039.672    20660037.963
 92  8  6  1 28 15.0000000  0  6 21  3 26 28 17 23
  21702681.296    -3857751.808 7  -3006039.237 9  21702702.102    21702701.263
  21972328.633     5361390.874 6   4177705.439 7  21972348.720    21972348.570
  23777879.916     4978367.773 6   3879245.191 7  23777897.364    23777895.835
  22627912.082    -5908910.209 7  -4604342.999 8  22627932.318    22627930.700
  20894478.843     1556586.200 8   1212924.333 9  20894498.090    20894496.441
  20660583.885     4367343.700 8   3806753.527 9  20660604.871    20660603.792
 92  8  6  1 28 20.0000000  0  6 21  3 26 28 17 23
  21701086.071    -3866130.098 7  -3012567.769 9  21701107.896    21701107.026
  21975303.084     5377030.245 7   4189891.945 7  21975324.879    21975325.029
  23780548.489     4992411.350 6   3890188.243 7  23780569.774    23780567.736
  22625403.899    -5922097.195 7  -4614618.573 8  22625423.235    22625421.317
  20895407.420     1561466.684 8   1216727.305 9  20895426.817    20895425.078
  20661149.114     4370320.435 8   3809073.064 9  20661171.209    20661169.800
 92  8  6  1 28 25.0000000  0  6 21  3 26 28 17 23
  21699496.841    -3874501.917 7  -3019091.256 9  21699514.589    21699513.779
  21978281.642     5392680.929 7   4202087.275 7  21978303.227    21978303.437
  23783224.406     5006462.440 6   3901137.144 7  23783243.503    23783241.704
  22622896.165    -5935276.316 7  -4624888.014 8  22622915.292    22622913.313
  20896336.447     1566354.100 8   1220535.678 9  20896356.773    20896355.274
  20661719.679     4373303.695 8   3811397.678 9  20661739.166    20661737.607
 92  8  6  1 28 30.0000000  0  6 21  3 26 28 17 23
  21697903.354    -3882867.721 7  -3025610.059 9  21697922.721    21697921.821
  21981265.087     5408342.723 7   4214291.264 8  21981283.374    21981283.944
  23785899.724     5020520.575 6   3912091.524 7  23785918.371    23785917.292
  22620388.281    -5948447.515 7  -4635151.293 8  22620408.937    22620407.438
  20897266.374     1571248.242 8   1224349.302 9  20897288.049    20897286.250
  20662288.116     4376293.498 8   3813727.403 9  20662308.082    20662306.523
 92  8  6  1 28 35.0000000  0  6 21  3 26 28 17 23
  21696312.715    -3891227.431 7  -3032124.119 9  21696331.902    21696331.182
  21984245.444     5424015.813 6   4226504.051 7  21984266.129    21984266.429
  23788574.353     5034586.013 6   3923051.607 7  23788595.698    23788593.749
  22617885.913    -5961610.384 7  -4645408.069 8  22617903.991    22617902.702
  20898199.717     1576149.265 8   1228168.279 9  20898220.223    20898218.634
  20662858.141     4379290.405 8   3816062.660 9  20662878.167    20662876.788
 92  8  6  1 28 40.0000000  0  6 21  3 26 28 17 23
  21694724.625    -3899581.499 7  -3038633.775 9  21694742.402    21694741.203
  21987232.246     5439699.637 7   4238725.206 7  21987250.443    21987251.523
  23791252.009     5048658.454 6   3934017.132 7  23791273.504    23791272.365
  22615378.809    -5974765.320 7  -4655658.667 8  22615400.664    22615399.165
  20899135.879     1581056.568 8   1231992.150 9  20899154.227    20899152.668
  20663426.308     4382293.752 8   3818402.927 9  20663449.721    20663448.432
 92  8  6  1 28 45.0000000  0  6 21  3 26 28 17 23
  21693133.956    -3907929.285 7  -3045138.537 9  21693153.712    21693152.723
  21990217.339     5455394.714 7   4250955.126 7  21990237.096    21990237.665
  23793929.785     5062738.534 6   3944988.626 7  23793952.629    23793951.100
  22612878.240    -5987911.964 7  -4665902.804 8  22612898.836    22612897.007
  20900068.863     1585970.838 8   1235821.452 9  20900089.429    20900087.840
  20664001.579     4385303.913 8   3820748.513 9  20664022.595    20664021.156
 92  8  6  1 28 50.0000000  0  6 21  3 26 28 17 23
  21691546.615    -3916270.780 7  -3051638.394 9  21691566.251    21691565.442
  21993205.760     5471100.972 6   4263193.770 7  21993226.296    21993226.206
  23796612.208     5076826.275 6   3955966.092 7  23796633.463    23796631.845
  22610381.299    -6001050.427 7  -4676140.565 8  22610398.986    22610397.158
  20901005.475     1590892.107 8   1239656.204 9  20901025.801    20901024.332
  20664577.631     4388321.122 8   3823099.581 9  20664596.877    20664595.168
 92  8  6  1 28 55.0000000  0  6 21  3 26 28 17 23
  21689959.274    -3924605.896 7  -3058133.286 9  21689980.259    21689979.480
  21996195.591     5486818.658 7   4275441.308 7  21996217.386    21996217.565
  23799292.683     5090921.718 6   3966949.545 7  23799315.467    23799313.818
  22607879.711    -6014180.432 7  -4686371.734 8  22607900.606    22607898.657
  20901944.155     1595820.451 8   1243496.474 9  20901963.582    20901962.233
  20665152.033     4391345.730 8   3825456.424 9  20665172.359    20665170.800
 92  8  6  1 29  0.0000000  0  6 21  3 26 28 17 23
  21688374.541    -3932935.122 7  -3064623.585 9  21688395.226    21688394.297
  21999187.789     5502547.347 6   4287697.418 7  21999209.884    21999210.603
  23801978.943     5105024.511 6   3977938.734 7  23801998.789    23801998.010
  22605384.808    -6027302.327 7  -4696596.590 8  22605403.485    22605401.506
  20902883.405     1600755.457 8   1247341.933 9  20902902.802    20902901.243
  20665727.125     4394377.411 8   3827818.770 9  20665749.309    20665747.421
 92  8  6  1 29  5.0000000  0  6 21  3 26 28 17 23
  21686791.876    -3941257.768 7  -3071108.763 9  21686811.723    21686810.494
  22002183.555     5518287.543 7   4299962.505 7  22002205.440    22002206.160
  23804664.154     5119135.088 6   3988933.982 7  23804683.730    23804682.921
  22602887.537    -6040415.356 7  -4706814.526 8  22602908.342    22602905.614
  20903823.794     1605697.705 8   1251193.032 9  20903843.460    20903841.871
  20666305.994     4397416.680 8   3830187.037 9  20666327.699    20666326.350
 92  8  6  1 29 10.0000000  0  6 21  3 26 28 17 23
  21685207.114    -3949574.474 7  -3077589.308 9  21685228.699    21685227.919
  22005180.850     5534038.520 7   4312235.979 7  22005202.705    22005202.765
  23807350.294     5133252.560 6   3999934.613 6  23807370.410    23807368.762
  22600395.812    -6053520.226 7  -4717026.111 8  22600414.549    22600412.240
  20904762.954     1610646.407 8   1255049.164 9  20904785.438    20904783.879
  20666888.851     4400462.820 8   3832560.649 9  20666907.288    20666905.609
 92  8  6  1 29 15.0000000  0  6 21  3 26 28 17 23
  21683627.507    -3957884.766 7  -3084064.851 9  21683647.383    21683646.394
  22008179.135     5549800.868 6   4324518.321 7  22008202.159    22008202.608
  23810037.394     5147377.576 6   4010941.116 7  23810058.410    23810057.180
  22597902.468    -6066616.302 7  -4727230.832 8  22597922.254    22597919.886
  20905707.780     1615601.970 8   1258910.643 9  20905728.315    20905726.936
  20667468.739     4403516.201 8   3834939.911 9  20667488.226    20667486.877
 92  8  6  1 29 20.0000000  0  6 21  3 26 28 17 23
  21682048.110    -3966188.717 7  -3090535.464 9  21682067.357    21682066.698
  22011184.644     5565574.478 6   4336809.434 7  22011204.100    22011203.981
  23812725.873     5161510.177 6   4021953.519 7  23812747.788    23812746.529
  22595413.561    -6079703.556 7  -4737428.700 8  22595432.208    22595429.839
  20906654.614     1620564.308 8   1262777.396 9  20906672.662    20906670.983
  20668047.608     4406576.856 8   3837324.831 9  20668070.483    20668069.193
 92  8  6  1 29 25.0000000  0  6 21  3 26 28 17 23
  21680468.924    -3974486.365 7  -3097001.158 9  21680488.350    21680487.661
  22014187.725     5581359.287 6   4349109.283 7  22014207.751    22014207.811
  23815421.817     5175650.189 6   4032971.702 6  23815438.155    23815437.196
  22592920.157    -6092781.973 7  -4747619.673 8  22592943.061    22592940.902
  20907598.900     1625533.405 8   1266649.419 9  20907617.997    20907616.438
  20668635.681     4409644.724 8   3839715.382 9  20668654.478    20668653.009
 92  8  6  1 29 30.0000000  0  6 21  3 26 28 17 23
  21678892.015    -3982777.978 7  -3103462.157 9  21678910.123    21678909.523
  22017193.114     5597154.902 6   4361417.542 7  22017213.560    22017213.740
  23818113.293     5189797.474 6   4043995.562 6  23818130.501    23818129.782
  22590437.755    -6105851.593 7  -4757803.789 8  22590455.683    22590453.974
  20908544.326     1630509.013 8   1270526.515 9  20908564.772    20908563.633
  20669220.486     4412719.599 8   3842111.390 9  20669239.703    20669238.264
 92  8  6  1 29 35.0000000  0  6 21  3 26 28 17 23
  21677311.779    -3991062.910 7  -3109917.942 9  21677333.844    21677333.005
  22020201.861     5612962.101 7   4373734.838 7  22020221.498    22020221.648
  23820803.931     5203952.709 6   4055025.628 6  23820824.616    23820823.237
  22587954.035    -6118911.802 6  -4767980.567 8  22587970.314    22587968.185
  20909492.749     1635491.444 8   1274408.927 9  20909513.075    20909511.576
  20669808.319     4415802.278 8   3844513.482 9  20669826.247    20669824.748
 92  8  6  1 29 40.0000000  0  6 21  3 26 28 17 23
  21675739.488    -3999342.092 7  -3116369.249 9  21675758.405    21675757.295
  22023212.647     5628780.139 6   4386060.576 7  22023231.594    22023231.954
  23823502.692     5218115.224 6   4066061.336 6  23823519.241    23823517.862
  22585469.385    -6131963.212 6  -4778150.497 8  22585486.893    22585484.554
  20910441.593     1640479.633 8   1278295.827 9  20910462.098    20910460.809
  20670391.746     4418892.187 8   3846921.205 9  20670414.050    20670412.461
 92  8  6  1 29 45.0000000  0  6 21  3 26 28 17 23
  21674162.310    -4007615.810 7  -3122816.303 9  21674184.015    21674182.935
  22026226.221     5644608.744 6   4398394.541 7  22026243.519    22026243.909
  23826192.550     5232284.807 6   4077102.577 6  23826215.934    23826214.105
  22582987.883    -6145005.829 6  -4788313.567 8  22583004.911    22583003.142
  20911393.224     1645473.152 8   1282186.877 9  20911412.261    20911411.451
  20670980.718     4421989.266 8   3849334.508 9  20671003.742    20671002.033
 92  8  6  1 29 50.0000000  0  6 21  3 26 28 17 23
  21672590.648    -4015883.669 7  -3129258.783 9  21672610.764    21672609.864
  22029239.795     5660448.353 6   4410737.078 7  22029257.782    22029258.442
  23828895.389     5246461.478 6   4088149.308 6  23828913.436    23828911.578
  22580506.561    -6158039.157 6  -4798469.407 8  22580524.638    22580522.570
  20912343.236     1650472.141 8   1286082.183 9  20912363.682    20912362.273
  20671576.795     4425093.893 8   3851753.696 9  20671594.363    20671592.864
 92  8  6  1 29 55.0000000  0  6 21  3 26 28 17 23
  21671016.557    -4024145.587 7  -3135696.635 9  21671038.682    21671037.633
  22032253.638     5676299.010 6   4423088.241 7  22032273.874    22032274.264
  23831592.232     5260645.243 6   4099201.612 6  23831612.798    23831611.029
  22578028.416    -6171062.983 6  -4808617.832 8  22578046.044    22578044.455
  20913294.837     1655476.589 8   1289981.768 9  20913316.033    20913314.654
  20672164.029     4428206.221 8   3854178.892 9  20672186.573    20672185.044
 92  8  6  1 30  0.0000000  0  6 21  3 26 28 17 23
  21669448.043    -4032401.729 7  -3142129.990 9  21669467.320    21669466.151
  22035270.510     5692160.509 6   4435447.849 7  22035292.514    22035292.395
  23834294.531     5274836.014 6   4110259.346 6  23834313.418    23834311.290
  22575551.051    -6184077.384 6  -4818758.914 8  22575569.818    22575568.019
  20914249.227     1660486.362 8   1293885.482 9  20914269.223    20914267.964
  20672758.277     4431326.157 8   3856610.013 9  20672780.372    20672778.843
 92  8  6  1 30  5.0000000  0  6 21  3 26 28 17 23
  21667876.981    -4040652.062 7  -3148558.812 9  21667897.367    21667896.677
  22038292.717     5708032.919 6   4447815.945 7  22038312.923    22038312.863
  23836994.282     5289034.030 6   4121322.734 6  23837015.088    23837012.690
  22573077.434    -6197082.238 6  -4828892.562 8  22573095.061    22573093.293
  20915204.215     1665501.591 8   1297793.454 9  20915223.522    20915222.233
  20673354.534     4434453.765 8   3859047.112 9  20673375.370    20673374.081
 92  8  6  1 30 10.0000000  0  6 21  3 26 28 17 23
  21666309.756    -4048896.337 7  -3154982.924 9  21666328.373    21666327.534
  22041315.944     5723916.384 6   4460192.662 7  22041335.281    22041336.091
  23839694.543     5303239.482 6   4132391.919 6  23839718.346    23839716.608
  22570602.527    -6210077.340 6  -4839018.616 8  22570622.163    22570620.005
  20916158.305     1670522.310 8   1301705.704 9  20916178.811    20916177.612
  20673950.702     4437589.031 8   3861490.177 9  20673972.137    20673970.548
 92  8  6  1 30 15.0000000  0  6 21  3 26 28 17 23
  21664742.831    -4057134.945 7  -3161402.608 9  21664761.118    21664759.709
  22044340.041     5739810.540 6   4472577.714 7  22044360.037    22044360.517
  23842400.649     5317452.054 6   4143466.641 6  23842422.414    23842420.915
  22568132.147    -6223062.700 6  -4849137.069 8  22568151.334    22568149.235
  20917114.913     1675548.250 8   1305622.020 9  20917135.209    20917134.069
  20674550.916     4440731.724 8   3863939.030 9  20674570.163    20674568.784
 92  8  6  1 30 20.0000000  0  6 21  3 26 28 17 23
  21663176.745    -4065367.913 7  -3167817.902 9  21663194.013    21663192.994
  22047367.135     5755715.488 6   4484971.179 7  22047386.682    22047386.772
  23845112.632     5331671.590 6   4154546.805 6  23845128.791    23845127.502
  22565663.266    -6236038.076 7  -4859247.754 8  22565681.854    22565680.145
  20918072.600     1680579.511 8   1309542.481 9  20918092.626    20918091.517
  20675149.692     4443881.781 8   3866393.623 9  20675169.538    20675167.889
 92  8  6  1 30 25.0000000  0  6 21  3 26 28 17 23
  21661609.610    -4073594.877 7  -3174228.521 9  21661628.377    21661627.657
  22050395.219     5771631.492 6   4497373.246 7  22050415.275    22050416.085
  23847818.589     5345898.241 6   4165632.495 6  23847836.037    23847833.968
  22563199.272    -6249003.023 6  -4869350.295 8  22563215.191    22563213.302
  20919034.274     1685616.429 8   1313467.350 9  20919051.332    20919050.283
  20675749.906     4447039.293 8   3868854.024 9  20675770.202    20675768.973
 92  8  6  1 30 30.0000000  0  6 21  3 26 28 17 23
  21660043.524    -4081815.964 7  -3180634.552 9  21660063.850    21660062.980
  22053425.431     5787558.424 6   4509783.842 7  22053445.667    22053445.847
  23850523.016     5360132.040 6   4176723.775 6  23850544.242    23850543.882
  22560734.109    -6261957.650 6  -4879444.794 8  22560749.728    22560747.749
  20919992.561     1690659.038 8   1317396.657 9  20920010.908    20920009.499
  20676351.979     4450204.253 8   3871320.231 9  20676372.665    20676370.956
 92  8  6  1 30 35.0000000  0  6 21  3 26 28 17 23
  21658484.063    -4090030.996 7  -3187035.876 9  21658500.912    21658499.773
  22056458.282     5803496.473 6   4522203.092 7  22056478.847    22056479.117
  23853235.659     5374372.890 6   4187820.538 6  23853254.396    23853253.256
  22558268.825    -6274902.014 7  -4889531.320 8  22558286.064    22558284.505
  20920953.066     1695707.461 8   1321330.492 9  20920971.773    20920970.124
  20676956.631     4453376.622 8   3873792.204 9  20676976.237    20676974.828
 92  8  6  1 30 40.0000000  0  6 21  3 26 28 17 23
  21656919.806    -4098239.768 7  -3193432.313 9  21656938.543    21656937.494
  22059492.121     5819445.473 6   4534630.877 7  22059513.766    22059514.036
  23855944.913     5388620.653 6   4198922.684 6  23855965.479    23855963.500
  22555803.962    -6287836.160 7  -4899609.866 8  22555825.307    22555823.089
  20921912.401     1700761.698 8   1325268.853 9  20921933.297    20921931.918
  20677563.561     4456556.128 8   3876269.739 9  20677581.488    20677579.929
 92  8  6  1 30 45.0000000  0  6 21  3 26 28 17 23
  21655359.537    -4106442.411 7  -3199823.966 9  21655377.644    21655376.775
  22062530.368     5835405.595 6   4547067.321 7  22062551.024    22062551.054
  23858652.279     5402875.463 6   4210030.321 6  23858678.211    23858677.221
  22553346.443    -6300760.261 7  -4909680.588 8  22553365.840    22553363.262
  20922877.703     1705821.468 8   1329211.533 9  20922896.170    20922894.941
  20678166.773     4459742.627 8   3878752.727 9  20678187.758    20678186.170
 92  8  6  1 30 50.0000000  0  6 21  3 26 28 17 23
  21653797.618    -4114638.669 7  -3206210.661 9  21653818.094    21653816.984
  22065568.405     5851376.992 7   4559512.556 7  22065590.440    22065590.230
  23861371.636     5417137.825 6   4221143.860 6  23861392.082    23861390.793
  22550887.425    -6313674.176 7  -4919743.370 8  22550907.841    22550905.653
  20923842.495     1710886.998 8   1333158.701 9  20923860.213    20923858.864
  20678774.153     4462936.414 8   3881241.396 9  20678795.768    20678793.999
 92  8  6  1 30 55.0000000  0  6 21  3 26 28 17 23
  21652238.097    -4122828.747 7  -3212592.539 9  21652259.623    21652258.543
  22068614.116     5867359.480 7   4571966.439 7  22068632.164    22068632.074
  23864089.525     5431407.690 6   4232263.234 6  23864107.092    23864106.013
  22548432.245    -6326578.317 7  -4929798.548 8  22548452.361    22548450.742
  20924804.289     1715957.976 8   1337110.113 9  20924824.855    20924823.896
  20679384.050     4466136.987 8   3883735.346 9  20679404.556    20679402.877
 92  8  6  1 31  0.0000000  0  6 21  3 26 28 17 23
  21650681.395    -4131012.680 7  -3218969.624 9  21650702.321    21650701.271
  22071657.130     5883352.844 7   4584428.801 7  22071675.477    22071675.237
  23866801.147     5445684.715 6   4243388.181 6  23866824.591    23866822.523
  22545977.365    -6339472.915 7  -4939846.275 8  22545998.950    22545997.181
  20925770.401     1721034.387 8   1341065.752 9  20925791.206    20925789.917
  20679995.957     4469344.087 8   3886234.390 9  20680014.994    20680013.195
 92  8  6  1 31  5.0000000  0  6 21  3 26 28 17 23
  21649123.374    -4139190.314 7  -3225341.805 9  21649146.008    21649145.079
  22074702.422     5899357.380 7   4596899.857 7  22074720.829    22074721.248
  23869521.944     5459969.001 6   4254518.789 7  23869542.270    23869541.610
  22543525.812    -6352357.639 7  -4949886.309 8  22543547.097    22543545.538
  20926736.122     1726116.299 8   1345025.688 9  20926758.037    20926756.808
  20680606.694     4472558.072 8   3888738.797 9  20680626.540    20680625.041
 92  8  6  1 31 10.0000000  0  6 21  3 26 28 17 23
  21647569.340    -4147362.158 7  -3231709.470 9  21647590.805    21647589.875
  22077747.204     5915372.512 7   4609379.178 7  22077768.429    22077768.579
  23872239.113     5474260.051 6   4265654.663 7  23872262.287    23872261.657
  22541077.407    -6365232.498 7  -4959918.665 8  22541097.343    22541095.125
  20927706.520     1731203.133 8   1348989.451 9  20927726.307    20927724.928
  20681218.630     4475778.503 8   3891248.225 9  20681239.256    20681237.787
 92  8  6  1 31 15.0000000  0  6 21  3 26 28 17 23
  21646015.395    -4155527.922 7  -3238072.399 9  21646036.980    21646035.931
  22080794.594     5931398.491 7   4621866.948 7  22080817.948    22080818.158
  23874959.190     5488558.171 6   4276796.054 7  23874982.603    23874982.214
  22538629.272    -6378097.268 7  -4969943.152 8  22538648.788    22538647.079
  20928676.829     1736295.220 8   1352957.313 9  20928695.386    20928693.887
  20681831.406     4479005.582 8   3893762.831 9  20681853.531    20681851.732
 92  8  6  1 31 20.0000000  0  6 21  3 26 28 17 23
  21644463.160    -4163687.396 7  -3244430.428 9  21644484.535    21644483.156
  22083847.411     5947435.641 7   4634363.422 7  22083869.865    22083870.015
  23877680.316     5502863.734 6   4287943.237 7  23877705.648    23877704.509
  22536181.256    -6390951.866 7  -4979959.709 8  22536202.722    22536200.653
  20929643.000     1741392.756 8   1356929.419 9  20929665.304    20929664.015
  20682448.199     4482239.504 8   3896282.769 9  20682468.855    20682467.236
 92  8  6  1 31 25.0000000  0  6 21  3 26 28 17 23
  21642912.214    -4171840.828 7  -3250783.746 9  21642932.959    21642931.460
  22086901.726     5963483.663 7   4646868.367 7  22086923.851    22086923.941
  23880406.898     5517176.339 6   4299095.918 7  23880428.633    23880427.764
  22533734.500    -6403796.571 7  -4989968.573 8  22533758.544    22533756.685
  20930615.946     1746495.568 8   1360905.634 9  20930636.392    20930634.773
  20683067.300     4485479.961 8   3898807.804 9  20683085.348    20683083.759
 92  8  6  1 31 30.0000000  0  6 21  3 26 28 17 23
  21641362.976    -4179988.208 7  -3257132.350 9  21641382.463    21641381.743
  22089959.399     5979542.742 7   4659381.915 7  22089979.665    22089980.025
  23883131.682     5531496.283 5   4310254.300 7  23883154.076    23883153.237
  22531294.579    -6416631.435 7  -4999969.758 8  22531316.194    22531314.605
  20931588.803     1751603.991 8   1364886.225 9  20931608.409    20931606.730
  20683682.295     4488727.126 8   3901338.064 9  20683703.190    20683701.811
 92  8  6  1 31 35.0000000  0  6 21  3 26 28 17 23
  21639812.360    -4188129.903 7  -3263476.521 9  21639833.075    21639831.966
  22093016.233     5995612.508 7   4671903.813 7  22093037.668    22093037.368
  23885854.967     5545823.297 6   4321418.198 7  23885879.939    23885879.490
  22528855.468    -6429456.529 7  -5009963.323 8  22528875.884    22528873.755
  20932561.809     1756717.930 8   1368871.109 9  20932581.565    20932579.976
  20684301.426     4491980.776 8   3903873.376 9  20684322.531    20684321.122
 92  8  6  1 31 40.0000000  0  6 21  3 26 28 17 23
  21638264.381    -4196265.401 7  -3269815.865 9  21638284.977    21638283.898
  22096077.174     6011693.496 7   4684434.437 7  22096097.830    22096098.040
  23888584.967     5560157.598 5   4332587.772 7  23888607.331    23888606.972
  22526416.027    -6442271.390 7  -5019948.934 8  22526437.372    22526435.573
  20933536.404     1761837.741 8   1372860.575 9  20933555.951    20933554.272
  20684919.988     4495241.448 8   3906414.159 9  20684942.772    20684941.243
 92  8  6  1 31 45.0000000  0  6 21  3 26 28 17 23
  21636717.302    -4204395.155 7  -3276150.730 9  21636737.868    21636736.789
  22099138.205     6027785.140 7   4696973.385 7  22099160.000    22099159.910
  23891315.057     5574498.582 5   4343762.565 7  23891337.331    23891336.552
  22523978.594    -6455076.440 7  -5029926.886 8  22524000.599    22523998.590
  20934509.531     1766963.017 8   1376854.293 9  20934531.356    20934529.797
  20685545.565     4498508.724 8   3908960.093 9  20685564.572    20685563.313
 92  8  6  1 31 50.0000000  0  6 21  3 26 28 17 23
  21635170.763    -4212518.866 7  -3282480.885 9  21635191.898    21635191.209
  22102204.063     6043887.802 7   4709520.907 7  22102224.478    22102224.239
  23894048.055     5588846.481 6   4354942.736 7  23894067.092    23894066.612
  22521544.369    -6467871.395 7  -5039896.974 8  22521565.804    22521564.096
  20935484.785     1772093.881 8   1380852.366 9  20935507.240    20935506.041
  20686168.683     4501782.979 8   3911511.459 9  20686187.780    20686186.341
 92  8  6  1 31 55.0000000  0  6 21  3 26 28 17 23
  21633625.243    -4220636.352 7  -3288806.195 9  21633647.098    21633646.438
  22105269.980     6060001.548 7   4722077.065 7  22105290.786    22105290.966
  23896773.018     5603201.514 5   4366128.471 7  23896798.651    23896798.351
  22519112.843    -6480656.287 7  -5049859.220 8  22519132.989    22519131.160
  20936461.599     1777230.388 8   1384854.841 9  20936485.073    20936483.334
  20686791.292     4505064.288 8   3914068.322 9  20686812.278    20686811.049
 92  8  6  1 32  0.0000000  0  6 21  3 26 28 17 23
  21632083.740    -4228747.851 7  -3295126.836 9  21632103.586    21632102.507
  22108337.037     6076126.151 7   4734641.683 7  22108358.952    22108359.161
  23899510.183     5617563.520 5   4377319.641 7  23899532.098    23899531.439
  22516679.787    -6493431.529 7  -5059813.949 8  22516701.732    22516699.543
  20937444.769     1782372.431 8   1388861.630 9  20937463.356    20937462.097
  20687414.951     4508352.247 8   3916630.366 9  20687437.795    20687436.416
 92  8  6  1 32  5.0000000  0  6 21  3 26 28 17 23
  21630541.488    -4236853.271 7  -3301442.736 9  21630561.364    21630560.345
  22111407.061     6092261.374 7   4747214.577 7  22111429.546    22111429.426
  23902242.612     5631932.270 5   4388516.057 7  23902266.026    23902265.456
  22514251.588    -6506197.293 7  -5069761.291 8  22514272.783    22514270.535
  20938422.782     1787520.187 8   1392872.866 9  20938442.958    20938441.609
  20688041.187     4511646.539 8   3919197.354 9  20688064.601    20688063.282
 92  8  6  1 32 10.0000000  0  6 21  3 26 28 17 23
  21628998.426    -4244952.109 7  -3307753.510 9  21629020.311    21629019.142
  22114479.934     6108407.483 7   4759795.957 7  22114501.909    22114501.759
  23904984.154     5646308.205 5   4399718.084 7  23905001.542    23905001.272
  22511823.929    -6518953.367 7  -5079701.080 8  22511845.154    22511843.295
  20939402.174     1792674.316 8   1396889.070 9  20939423.849    20939422.140
  20688672.760     4514947.531 8   3921769.550 9  20688692.846    20688691.377
 92  8  6  1 32 15.0000000  0  6 21  3 26 28 17 23
  21627459.471    -4253044.321 7  -3314059.126 9  21627480.307    21627479.408
  22117554.216     6124564.547 7   4772385.870 7  22117576.550    22117576.700
  23907715.623     5660691.552 5   4410925.882 7  23907738.917    23907738.377
  22509397.378    -6531699.656 7  -5089633.245 8  22509419.863    22509417.704
  20940384.024     1797834.960 8   1400910.347 9  20940405.849    20940404.290
  20689302.204     4518255.194 8   3924346.951 9  20689322.170    20689320.701
 92  8  6  1 32 20.0000000  0  6 21  3 26 28 17 23
  21625919.168    -4261130.174 7  -3320359.789 9  21625941.652    21625940.603
  22120630.116     6140732.308 7   4784984.122 7  22120653.440    22120652.811
  23910456.805     5675081.969 5   4422139.170 7  23910477.431    23910476.262
  22506978.383    -6544436.311 7  -5099557.907 8  22506996.191    22506994.002
  20941368.572     1803001.718 8   1404936.396 9  20941389.198    20941387.339
  20689932.098     4521569.186 8   3926929.284 9  20689952.934    20689951.435
 92  8  6  1 32 25.0000000  0  6 21  3 26 28 17 23
  21624383.511    -4269209.529 7  -3326655.388 9  21624404.436    21624403.417
  22123710.454     6156910.849 7   4797590.769 7  22123731.619    22123731.949
  23913199.337     5689479.547 5   4433358.057 7  23913217.324    23913216.635
  22504555.790    -6557163.148 7  -5109474.918 8  22504574.167    22504572.069
  20942353.091     1808174.685 8   1408967.281 9  20942373.566    20942371.888
  20690562.142     4524889.825 8   3929516.794 9  20690584.866    20690583.157
 92  8  6  1 32 30.0000000  0  6 21  3 26 28 17 23
  21622844.736    -4277282.483 7  -3332945.984 9  21622867.970    21622867.161
  22126789.532     6173100.211 7   4810205.853 7  22126812.466    22126812.347
  23915932.425     5703884.287 6   4444582.528 7  23915957.787    23915957.817
  22502133.737    -6569880.293 7  -5119384.384 8  22502154.153    22502152.534
  20943340.787     1813353.758 8   1413002.921 9  20943359.164    20943357.485
  20691196.773     4528217.122 8   3932109.490 9  20691217.848    20691216.319
 92  8  6  1 32 35.0000000  0  6 21  3 26 28 17 23
  21621310.218    -4285349.166 7  -3339231.706 9  21621332.823    21621331.953
  22129873.228     6189300.331 7   4822829.315 7  22129895.082    22129895.232
  23918675.226     5718296.213 6   4455812.588 7  23918700.198    23918699.929
  22499713.722    -6582587.724 7  -5129286.264 8  22499735.937    22499733.928
  20944323.297     1818539.013 8   1417043.373 9  20944345.721    20944344.282
  20691831.433     4531550.893 8   3934707.238 9  20691852.329    20691850.740
 92  8  6  1 32 40.0000000  0  6 21  3 26 28 17 23
  21619779.418    -4293409.285 7  -3345512.317 9  21619799.085    21619798.245
  22132955.993     6205511.234 7   4835461.179 7  22132979.947    22132980.037
  23921421.714     5732715.527 5   4467048.423 7  23921444.499    23921443.959
  22497300.753    -6595285.291 7  -5139180.462 8  22497319.550    22497317.781
  20945312.672     1823730.687 8   1421088.839 9  20945333.897    20945332.218
  20692468.552     4534891.071 8   3937309.973 9  20692487.829    20692486.330
 92  8  6  1 32 45.0000000  0  6 21  3 26 28 17 23
  21618248.078    -4301462.845 7  -3351787.817 9  21618266.426    21618265.946
  22136042.417     6221732.932 7   4848101.452 7  22136066.910    22136067.150
  23924166.584     5747142.261 5   4478290.029 7  23924189.758    23924189.099
  22494886.134    -6607973.153 7  -5149067.106 8  22494905.141    22494903.522
  20946302.137     1828928.692 8   1425139.222 9  20946323.002    20946321.743
  20693102.913     4538237.613 8   3939917.660 9  20693124.918    20693123.539
 92  8  6  1 32 50.0000000  0  6 21  3 26 28 17 23
  21616714.970    -4309510.135 7  -3358058.421 9  21616735.236    21616734.486
  22139135.915     6237965.097 7   4860749.889 7  22139155.791    22139156.181
  23926913.373     5761576.251 5   4489537.285 7  23926936.037    23926935.377
  22492473.285    -6620651.719 7  -5158946.498 8  22492492.711    22492490.823
  20947294.360     1834132.588 8   1429194.211 9  20947313.307    20947311.568
  20693741.231     4541590.318 8   3942530.160 9  20693762.876    20693761.287
 92  8  6  1 32 55.0000000  0  6 21  3 26 28 17 23
  21615184.049    -4317550.871 7  -3364323.921 9  21615205.095    21615204.495
  22142228.035     6254208.143 7   4873406.803 7  22142246.891    22142246.742
  23929665.857     5776017.780 5   4500790.425 7  23929684.804    23929683.665
  22490060.945    -6633320.566 7  -5168818.321 8  22490081.571    22490079.712
  20948284.065     1839342.524 8   1433253.905 9  20948304.571    20948303.072
  20694380.119     4544949.507 8   3945147.709 9  20694402.124    20694400.535
 92  8  6  1 33  0.0000000  0  6 21  3 26 28 17 23
  21613656.217    -4325585.622 7  -3370584.764 9  21613676.423    21613675.584
  22145317.935     6270461.672 7   4886071.883 7  22145339.790    22145339.490
  23932412.046     5790466.577 5   4512049.228 7  23932434.021    23932432.971
  22487655.140    -6645979.938 7  -5178682.765 8  22487672.618    22487670.520
  20949275.598     1844558.069 8   1437317.970 9  20949297.063    20949295.445
  20695022.754     4548314.878 8   3947770.079 9  20695042.300    20695040.861
 92  8  6  1 33  5.0000000  0  6 21  3 26 28 17 23
  21612126.796    -4333613.931 7  -3376840.582 9  21612148.171    21612147.662
  22148414.222     6286726.166 7   4898745.502 7  22148434.668    22148435.117
  23935164.530     5804923.357 5   4523314.252 7  23935185.486    23935183.567
  22485244.329    -6658629.248 7  -5188539.357 8  22485265.405    22485263.786
  20950267.701     1849779.800 8   1441386.852 9  20950290.696    20950289.227
  20695662.391     4551687.193 8   3950397.851 9  20695684.156    20695682.567
 92  8  6  1 33 10.0000000  0  6 21  3 26 28 17 23
  21610601.122    -4341635.811 7  -3383091.373 9  21610622.018    21610621.148
  22151508.680     6303001.451 7   4911427.547 7  22151531.674    22151531.974
  23937911.499     5819387.928 5   4534585.315 7  23937937.731    23937937.431
  22482839.334    -6671268.362 7  -5198388.141 8  22482860.290    22482858.551
  20951266.250     1855008.040 8   1445460.588 9  20951285.407    20951284.088
  20696305.776     4555066.349 8   3953030.954 9  20696327.301    20696325.772
 92  8  6  1 33 15.0000000  0  6 21  3 26 28 17 23
  21609075.508    -4349652.018 7  -3389337.747 9  21609096.434    21609095.804
  22154608.144     6319286.851 7   4924117.465 7  22154630.898    22154630.868
  23940668.090     5833859.481 5   4545861.823 7  23940691.804    23940691.264
  22480440.185    -6683897.768 7  -5208230.482 8  22480456.914    22480455.415
  20952262.071     1860240.911 8   1449538.555 9  20952281.407    20952280.268
  20696947.272     4558451.554 8   3955668.769 9  20696971.435    20696969.696
 92  8  6  1 33 20.0000000  0  6 21  3 26 28 17 23
  21607551.513    -4357661.902 7  -3395579.197 9  21607572.139    21607571.659
  22157710.186     6335582.885 7   4936815.673 7  22157731.891    22157732.071
  23943423.573     5848338.502 5   4557144.156 7  23943446.957    23943445.967
  22478036.449    -6696516.666 7  -5218063.020 8  22478056.026    22478053.927
  20953258.281     1865479.509 8   1453621.275 9  20953278.457    20953276.868
  20697592.515     4561843.480 8   3958311.858 9  20697616.918    20697615.029
 92  8  6  1 33 25.0000000  0  6 21  3 26 28 17 23
  21606027.758    -4365665.781 7  -3401815.975 9  21606049.163    21606048.504
  22160814.088     6351889.514 7   4949522.134 7  22160834.863    22160834.773
  23946182.743     5862824.967 5   4568432.300 7  23946202.979    23946202.739
  22475635.202    -6709125.297 7  -5227887.149 8  22475656.697    22475654.628
  20954254.671     1870724.965 8   1457708.513 9  20954276.496    20954275.297
  20698243.634     4565241.998 8   3960960.022 9  20698263.690    20698261.712
 92  8  6  1 33 30.0000000  0  6 21  3 26 28 17 23
  21604507.421    -4373663.499 7  -3408047.883 9  21604527.237    21604526.368
  22163918.708     6368206.770 7   4962236.896 7  22163939.844    22163940.263
  23948940.953     5877319.053 5   4579726.116 7  23948961.039    23948960.590
  22473237.731    -6721723.777 7  -5237705.293 8  22473258.897    22473257.518
  20955254.269     1875976.890 8   1461800.221 9  20955275.794    20955274.475
  20698890.316     4568647.037 8   3963613.274 9  20698911.422    20698909.923
 92  8  6  1 33 35.0000000  0  6 21  3 26 28 17 23
  21602983.965    -4381654.471 8  -3414274.552 9  21603006.450    21603006.240
  22167024.438     6384535.012 7   4974960.201 7  22167047.133    22167047.312
  23951700.723     5891820.404 5   4591025.991 7  23951721.109    23951720.359
  22470844.278    -6734311.889 7  -5247514.169 8  22470863.705    22470862.026
  20956256.086     1881232.719 8   1465897.427 9  20956276.202    20956274.883
  20699538.678     4572058.877 8   3966271.863 9  20699560.952    20699559.123
 92  8  6  1 33 40.0000000  0  6 21  3 26 28 17 23
  21601465.367    -4389639.043 7  -3420496.163 9  21601487.102    21601486.412
  22170134.096     6400874.099 7   4987691.923 7  22170156.430    22170155.980
  23954462.051     5906329.438 5   4602331.849 7  23954482.167    23954481.268
  22468452.654    -6746889.813 7  -5257315.453 9  22468470.192    22468468.363
  20957257.423     1886496.394 8   1469998.670 9  20957277.928    20957276.579
  20700190.336     4575477.217 8   3968935.932 9  20700211.262    20700209.643
 92  8  6  1 33 45.0000000  0  6 21  3 26 28 17 23
  21599948.956    -4397617.255 7  -3426713.117 9  21599968.893    21599968.203
  22173246.541     6417223.764 7   5000431.959 7  22173267.526    22173267.646
  23957218.283     5920845.473 5   4613643.247 7  23957244.455    23957244.455
  22466057.342    -6759457.558 7  -5267110.163 9  22466078.448    22466077.098
  20958261.637     1891766.390 8   1474106.184 9  20958280.884    20958279.505
  20700841.396     4578902.003 8   3971604.158 9  20700862.861    20700861.482
 92  8  6  1 33 50.0000000  0  6 21  3 26 28 17 23
  21598429.339    -4405588.883 7  -3432924.913 9  21598452.123    21598451.253
  22176360.065     6433584.279 7   5013180.314 7  22176381.111    22176381.471
  23959984.258     5935369.885 5   4624960.865 7  23960008.991    23960008.092
  22463667.577    -6772014.718 7  -5276895.609 8  22463689.012    22463687.003
  20959263.094     1897042.611 8   1478217.568 9  20959284.709    20959283.780
  20701496.232     4582333.324 8   3974277.947 9  20701515.899    20701514.130
 92  8  6  1 33 55.0000000  0  6 21  3 26 28 17 23
  21596918.205    -4413553.846 8  -3439131.369 9  21596936.192    21596935.922
  22179474.549     6449955.527 7   5025937.133 7  22179496.194    22179496.734
  23962754.400     5949901.690 6   4636284.350 7  23962773.827    23962772.957
  22461281.289    -6784561.238 7  -5286672.119 8  22461301.375    22461299.816
  20960268.808     1902324.923 8   1482333.662 9  20960289.823    20960288.744
  20702148.761     4585771.457 8   3976957.010 9  20702170.076    20702168.337
 92  8  6  1 34  0.0000000  0  6 21  3 26 28 17 23
  21595402.394    -4421512.151 7  -3445332.513 9  21595421.881    21595421.491
  22182594.100     6466337.481 7   5038702.327 7  22182613.766    22182614.036
  23965518.277     5964441.289 5   4647613.753 7  23965540.372    23965539.292
  22458895.840    -6797097.330 7  -5296442.075 9  22458916.076    22458914.337
  20961276.350     1907611.242 8   1486454.354 9  20961296.436    20961295.087
  20702806.325     4589216.304 8   3979641.268 9  20702825.692    20702824.013
 92  8  6  1 34  5.0000000  0  6 21  3 26 28 17 23
  21593887.992    -4429463.728 7  -3451528.670 9  21593908.498    21593908.079
  22185712.061     6482730.228 7   5051475.838 7  22185733.466    22185733.646
  23968283.443     5978988.432 5   4658949.345 7  23968308.805    23968307.816
  22456511.351    -6809623.296 7  -5306202.980 9  22456532.336    22456530.627
  20962284.822     1912906.281 8   1490579.650 9  20962303.889    20962302.390
  20703461.372     4592667.495 8   3982330.547 9  20703482.267    20703480.948
 92  8  6  1 34 10.0000000  0  6 21  3 26 28 17 23
  21592374.520    -4437408.527 7  -3457719.345 9  21592396.825    21592396.045
  22188832.271     6499133.760 7   5064257.831 7  22188854.726    22188854.456
  23971054.394     5993542.544 6   4670290.808 7  23971079.007    23971077.688
  22454127.221    -6822139.170 7  -5315956.445 9  22454150.515    22454149.106
  20963292.515     1918205.828 8   1494709.187 9  20963312.391    20963310.742
  20704116.598     4596125.131 8   3985024.806 9  20704140.282    20704138.573
 92  8  6  1 34 15.0000000  0  6 21  3 26 28 17 23
  21590866.264    -4445346.769 7  -3463905.012 9  21590886.350    21590885.691
  22191956.318     6515547.946 7   5077048.082 7  22191978.503    22191978.173
  23973827.744     6008105.194 6   4681638.490 7  23973850.049    23973849.150
  22451749.058    -6834644.971 7  -5325701.921 8  22451770.882    22451769.234
  20964299.218     1923510.633 8   1498843.326 9  20964322.242    20964320.593
  20704779.080     4599588.862 8   3987723.808 9  20704799.795    20704797.907
 92  8  6  1 34 20.0000000  0  6 21  3 26 28 17 23
  21589359.597    -4453278.514 7  -3470085.596 9  21589376.985    21589376.476
  22195082.704     6531972.626 7   5089846.534 7  22195104.049    22195103.809
  23976599.775     6022674.786 6   4692992.031 7  23976622.919    23976622.110
  22449371.973    -6847140.556 7  -5335438.946 9  22449393.109    22449391.460
  20965309.848     1928823.120 8   1502982.615 9  20965332.962    20965331.523
  20705437.874     4603058.724 8   3990427.605 9  20705459.579    20705458.170
 92  8  6  1 34 25.0000000  0  6 21  3 26 28 17 23
  21587846.845    -4461203.979 7  -3476261.282 9  21587868.729    21587868.370
  22198211.908     6548407.796 7   5102653.144 7  22198231.394    22198231.604
  23979375.734     6037253.302 6   4704351.263 7  23979396.569    23979395.730
  22446996.598    -6859625.960 7  -5345167.645 9  22447016.774    22447015.574
  20966325.605     1934139.978 8   1507126.366 9  20966344.971    20966343.652
  20706099.815     4606534.632 8   3993136.098 9  20706120.981    20706119.542
 92  8  6  1 34 30.0000000  0  6 21  3 26 28 17 23
  21586341.767    -4469123.071 7  -3482432.027 9  21586361.523    21586361.073
  22201340.991     6564853.639 7   5115468.071 7  22201361.108    22201361.257
  23982144.767     6051838.623 6   4715716.477 7  23982172.408    23982171.718
  22444621.552    -6872100.929 7  -5354887.362 9  22444643.047    22444641.848
  20967340.402     1939464.279 8   1511274.793 9  20967358.030    20967356.561
  20706761.577     4610016.901 8   3995849.564 9  20706783.492    20706782.323
 92  8  6  1 34 35.0000000  0  6 21  3 26 28 17 23
  21584838.038    -4477036.152 7  -3488598.054 9  21584855.875    21584855.276
  22204472.803     6581309.978 7   5128291.188 7  22204492.470    22204492.290
  23984925.132     6066431.246 6   4727087.353 7  23984949.655    23984948.426
  22442247.585    -6884565.623 7  -5364600.559 8  22442271.059    22442269.470
  20968353.101     1944793.722 8   1515427.578 9  20968372.078    20968370.819
  20707425.558     4613505.280 8   3998567.779 9  20707447.532    20707445.854
 92  8  6  1 34 40.0000000  0  6 21  3 26 28 17 23
  21583327.443    -4484943.270 7  -3494759.439 9  21583351.097    21583350.647
  22207603.896     6597776.743 7   5141122.429 7  22207625.901    22207626.020
  23987705.527     6081030.980 6   4738463.770 7  23987727.022    23987726.602
  22439878.925    -6897020.230 7  -5374305.452 9  22439901.110    22439899.491
  20969365.560     1950128.898 8   1519584.859 9  20969387.205    20969386.066
  20708094.245     4616999.708 8   4001290.708 9  20708112.622    20708110.883
 92  8  6  1 34 45.0000000  0  6 21  3 26 28 17 23
  21581826.712    -4492844.022 7  -3500915.869 9  21581847.728    21581847.188
  22210740.384     6614254.258 7   5153962.042 7  22210761.340    22210761.850
  23990481.335     6095638.081 6   4749845.927 7  23990506.998    23990506.068
  22437511.974    -6909464.486 7  -5384002.255 9  22437532.989    22437531.520
  20970382.336     1955470.399 8   1523747.067 9  20970403.802    20970402.303
  20708757.326     4620500.555 8   4004018.647 9  20708778.941    20708777.232
 92  8  6  1 34 50.0000000  0  6 21  3 26 28 17 23
  21580325.561    -4500738.280 8  -3507067.234 9  21580345.588    21580345.078
  22213876.184     6630742.622 7   5166810.104 7  22213898.818    22213899.747
  23993266.737     6110252.616 6   4761233.871 7  23993288.502    23993287.183
  22435147.810    -6921898.173 7  -5393690.834 8  22435166.967    22435165.348
  20971401.181     1960818.235 8   1527914.214 9  20971421.597    20971420.098
  20709425.953     4624007.493 8   4006751.321 9  20709446.189    20709444.570
 92  8  6  1 34 55.0000000  0  6 21  3 26 28 17 23
  21578823.631    -4508625.941 7  -3513213.459 9  21578844.677    21578844.017
  22217017.379     6647241.590 6   5179666.433 7  22217038.364    22217038.994
  23996047.042     6124874.253 6   4772627.350 7  23996070.636    23996069.437
  22432782.448    -6934321.372 7  -5403371.243 8  22432802.744    22432801.335
  20972420.715     1966172.412 8   1532086.298 9  20972440.442    20972438.763
  20710091.402     4627520.333 8   4009488.596 9  20710114.576    20710113.197
 92  8  6  1 35  0.0000000  0  6 21  3 26 28 17 23
  21577323.170    -4516506.857 7  -3519354.430 9  21577344.935    21577343.916
  22220162.202     6663751.213 7   5192531.066 7  22220180.129    22220180.669
  23998833.373     6139502.323 6   4784026.180 7  23998854.359    23998852.800
  22430422.242    -6946734.207 7  -5413043.583 8  22430440.949    22430439.210
  20973443.097     1971532.825 8   1536263.245 9  20973460.366    20973458.927
  20710762.697     4631039.202 8   4012230.571 9  20710784.372    20710782.753
 92  8  6  1 35  5.0000000  0  6 21  3 26 28 17 23
  21575827.266    -4524381.224 7  -3525490.298 9  21575846.512    21575845.733
  22223302.558     6680271.485 7   5205404.001 7  22223323.753    22223324.143
  24001617.096     6154137.931 6   4795430.204 7  24001639.221    24001638.352
  22428060.657    -6959136.824 7  -5422707.953 9  22428080.773    22428079.124
  20974461.193     1976899.398 8   1540444.988 9  20974481.549    20974480.050
  20711434.802     4634564.132 8   4014977.269 9  20711455.188    20711453.599
 92  8  6  1 35 10.0000000  0  6 21  3 26 28 17 23
  21574329.832    -4532249.314 7  -3531621.269 9  21574349.409    21574348.449
  22226448.610     6696802.195 6   5218285.076 7  22226469.535    22226470.105
  24004404.147     6168779.562 6   4806839.254 7  24004425.672    24004424.683
  22425701.530    -6971529.339 7  -5432363.491 8  22425722.635    22425720.777
  20975482.436     1982271.968 8   1544631.418 9  20975504.141    20975502.672
  20712107.027     4638095.060 8   4017728.641 9  20712127.053    20712125.554
 92  8  6  1 35 15.0000000  0  6 21  3 26 28 17 23
  21572831.979    -4540110.893 7  -3537747.178 9  21572853.354    21572852.335
  22229597.600     6713343.563 6   5231174.433 7  22229617.236    22229617.356
  24007187.360     6183427.922 6   4818253.571 7  24007212.363    24007212.722
  22423346.210    -6983911.362 7  -5442011.780 8  22423366.446    22423364.678
  20976507.606     1987650.959 8   1548822.827 9  20976527.422    20976526.283
  20712781.859     4641632.206 8   4020484.862 9  20712800.177    20712798.558
 92  8  6  1 35 20.0000000  0  6 21  3 26 28 17 23
  21571337.634    -4547966.179 8  -3543868.174 9  21571358.499    21571357.390
  22232746.470     6729895.487 6   5244072.030 7  22232766.766    22232767.695
  24009978.997     6198082.755 6   4829672.916 7  24010001.242    24010000.762
  22420991.850    -6996283.105 7  -5451652.090 9  22421012.146    22421010.378
  20977532.027     1993036.279 8   1553019.183 9  20977552.263    20977550.794
  20713454.264     4645175.262 8   4023245.683 9  20713474.200    20713472.611
 92  8  6  1 35 25.0000000  0  6 21  3 26 28 17 23
  21569844.517    -4555814.993 8  -3549984.131 9  21569865.083    21569863.974
  22235900.376     6746457.811 6   5256977.729 7  22235918.604    22235919.233
  24012771.384     6212743.991 6   4841097.247 7  24012791.500    24012790.631
  22418639.829    -7008644.325 7  -5461284.209 8  22418659.825    22418658.176
  20978559.386     1998427.984 8   1557220.508 9  20978578.242    20978577.013
  20714128.707     4648724.170 8   4026011.063 9  20714149.633    20714148.104
 92  8  6  1 35 30.0000000  0  6 21  3 26 28 17 23
  21568348.403    -4563657.055 8  -3556094.822 9  21568372.536    21568371.397
  22239051.285     6763030.913 6   5269891.832 7  22239072.480    22239072.660
  24015561.763     6227411.748 6   4852526.672 7  24015582.838    24015582.208
  22416292.604    -7020994.812 7  -5470907.959 8  22416309.452    22416307.623
  20979584.706     2003826.282 8   1561426.971 9  20979605.301    20979604.132
  20714806.658     4652279.082 8   4028781.127 9  20714826.084    20714824.405
 92  8  6  1 35 35.0000000  0  6 21  3 26 28 17 23
  21566862.242    -4571492.240 7  -3562200.161 9  21566881.489    21566880.679
  22242207.500     6779614.893 6   5282814.407 7  22242228.456    22242228.546
  24018346.595     6242086.044 6   4863961.178 7  24018375.345    24018374.146
  22413940.642    -7033334.541 7  -5480523.327 9  22413961.567    22413959.709
  20980613.743     2009231.225 8   1565638.617 9  20980634.129    20980633.020
  20715485.598     4655840.007 8   4031555.876 9  20715503.645    20715502.146
 92  8  6  1 35 40.0000000  0  6 21  3 26 28 17 23
  21565371.764    -4579320.615 8  -3568300.197 9  21565392.060    21565391.010
  22245364.674     6796209.611 7   5295745.342 7  22245386.260    22245386.409
  24021147.646     6256766.861 6   4875400.775 7  24021169.021    24021167.312
  22411594.616    -7045663.775 7  -5490130.518 9  22411615.392    22411613.863
  20981643.470     2014642.805 8   1569855.433 9  20981663.856    20981662.747
  20716161.630     4659406.990 8   4034335.337 9  20716182.735    20716180.786
 92  8  6  1 35 45.0000000  0  6 21  3 26 28 17 23
  21563885.153    -4587141.999 7  -3574394.771 9  21563903.440    21563902.571
  22248525.087     6812815.202 7   5308684.758 7  22248546.552    22248546.042
  24023947.167     6271454.464 6   4886845.657 7  24023963.326    24023962.637
  22409251.318    -7057982.378 7  -5499729.425 8  22409271.164    22409269.306
  20982675.986     2020061.273 8   1574077.611 9  20982694.993    20982693.733
  20716843.088     4662980.163 8   4037119.630 9  20716862.395    20716860.986
 92  8  6  1 35 50.0000000  0  6 21  3 26 28 17 23
  21562395.784    -4594956.450 8  -3580483.947 9  21562416.440    21562415.330
  22251685.739     6829431.485 6   5321632.509 7  22251708.253    22251708.463
  24026738.235     6286148.516 6   4898295.562 7  24026759.580    24026758.801
  22406907.631    -7070290.478 7  -5509320.149 8  22406929.156    22406927.087
  20983708.621     2025486.478 8   1578305.043 9  20983727.118    20983725.949
  20717523.077     4666559.272 8   4039908.546 9  20717543.673    20717541.934
 92  8  6  1 35 55.0000000  0  6 21  3 26 28 17 23
  21560911.781    -4602763.862 8  -3586567.642 9  21560930.758    21560929.499
  22254854.425     6846058.654 7   5334588.722 7  22254872.173    22254872.293
  24029531.971     6300849.600 6   4909750.943 7  24029557.154    24029556.584
  22404568.590    -7082587.737 7  -5518902.427 8  22404588.976    22404587.237
  20984742.065     2030918.773 8   1582537.999 9  20984760.952    20984759.873
  20718207.024     4670144.592 8   4042702.300 9  20718225.701    20718224.172
 92  8  6  1 36  0.0000000  0  6 21  3 26 28 17 23
  21559424.451    -4610564.614 8  -3592646.146 9  21559446.216    21559445.616
  22258019.963     6862696.582 7   5347553.339 7  22258038.311    22258038.820
  24032332.872     6315557.482 6   4921211.622 7  24032356.076    24032354.757
  22402229.909    -7094874.255 7  -5528476.334 8  22402250.984    22402249.306
  20985773.921     2036357.927 8   1586776.303 9  20985796.046    20985794.757
  20718889.531     4673735.959 8   4045500.763 9  20718909.318    20718907.669
 92  8  6  1 36  5.0000000  0  6 21  3 26 28 17 23
  21557943.596    -4618358.796 8  -3598719.533 9  21557962.903    21557962.123
  22261186.611     6879345.063 6   5360526.179 7  22261206.847    22261207.117
  24035135.782     6330271.964 6   4932677.452 7  24035156.258    24035154.968
  22399897.853    -7107150.160 7  -5538041.970 8  22399914.642    22399912.933
  20986812.042     2041803.830 8   1591019.863 9  20986832.458    20986830.929
  20719575.396     4677333.268 8   4048303.867 9  20719593.954    20719592.095
 92  8  6  1 36 10.0000000  0  6 21  3 26 28 17 23
  21556461.093    -4626146.466 8  -3604787.847 9  21556481.119    21556480.039
  22264357.966     6896004.191 7   5373507.310 7  22264376.553    22264376.973
  24037936.443     6344993.152 6   4944148.502 7  24037957.938    24037956.499
  22397561.631    -7119415.520 7  -5547599.388 9  22397580.608    22397578.929
  20987850.643     2047256.370 8   1595268.591 9  20987870.070    20987868.541
  20720260.002     4680936.510 8   4051111.583 9  20720279.549    20720277.840
 92  8  6  1 36 15.0000000  0  6 21  3 26 28 17 23
  21554980.478    -4633927.773 7  -3610851.197 9  21555000.444    21554999.155
  22267525.303     6912673.785 6   5386496.605 7  22267548.687    22267549.107
  24040734.016     6359720.677 6   4955624.495 7  24040760.428    24040759.289
  22395228.046    -7131670.646 7  -5557148.836 8  22395248.372    22395247.233
  20988889.874     2052715.408 8   1599522.384 9  20988908.821    20988907.442
  20720944.968     4684545.432 8   4053923.729 9  20720966.254    20720964.605
 92  8  6  1 36 20.0000000  0  6 21  3 26 28 17 23
  21553502.111    -4641703.139 7  -3616909.915 9  21553520.938    21553519.679
  22270701.814     6929353.561 6   5399493.822 7  22270722.680    22270722.889
  24043540.193     6374454.394 6   4967105.312 7  24043564.207    24043561.809
  22392898.329    -7143915.667 7  -5566690.401 8  22392918.475    22392916.856
  20989929.974     2058180.852 8   1603781.170 9  20989949.161    20989947.482
  20721635.300     4688159.800 8   4056740.119 9  20721653.917    20721652.449
 92  8  6  1 36 25.0000000  0  6 21  3 26 28 17 23
  21552025.004    -4649471.906 7  -3622963.499 9  21552042.691    21552041.522
  22273876.706     6946044.185 6   5412499.498 7  22273898.981    22273899.640
  24046350.988     6389195.104 6   4978591.573 7  24046368.765    24046367.686
  22390569.152    -7156149.781 7  -5576223.479 9  22390590.197    22390588.278
  20990968.875     2063653.465 8   1608045.543 9  20990990.400    20990989.141
  20722324.703     4691780.302 8   4059561.293 9  20722342.960    20722341.312
 92  8  6  1 36 30.0000000  0  6 21  3 26 28 17 23
  21550544.479    -4657234.316 8  -3629012.127 9  21550565.344    21550564.205
  22277054.746     6962745.615 6   5425513.590 7  22277076.691    22277077.620
  24049153.867     6403942.711 6   4990083.213 7  24049174.943    24049174.313
  22388245.910    -7168372.831 7  -5585747.928 8  22388264.407    22388262.548
  20992011.073     2069133.086 8   1612315.380 9  20992033.138    20992031.579
  20723013.206     4695406.904 8   4062387.210 9  20723033.053    20723031.524
 92  8  6  1 36 35.0000000  0  6 21  3 26 28 17 23
  21549071.628    -4664990.215 7  -3635055.681 9  21549089.436    21549088.387
  22280236.563     6979458.037 6   5438536.243 7  22280257.459    22280257.818
  24051956.867     6418697.338 6   5001580.319 7  24051983.159    24051982.049
  22385921.469    -7180584.423 7  -5595263.447 9  22385940.686    22385938.617
  20993057.858     2074619.982 8   1616590.882 9  20993077.195    20993075.876
  20723704.138     4699039.964 8   4065218.166 9  20723724.464    20723722.875
 92  8  6  1 36 40.0000000  0  6 21  3 26 28 17 23
  21547596.140    -4672739.562 7  -3641094.124 9  21547614.697    21547613.617
  22283417.511     6996181.186 6   5451567.266 7  22283439.816    22283440.085
  24054770.779     6433458.833 6   5013082.787 7  24054792.034    24054790.805
  22383599.157    -7192784.739 7  -5604770.190 8  22383618.913    22383616.904
  20994101.436     2080114.046 8   1620871.971 9  20994122.571    20994121.312
  20724395.999     4702679.399 8   4068054.094 9  20724416.805    20724415.456
 92  8  6  1 36 45.0000000  0  6 21  3 26 28 17 23
  21546123.229    -4680482.524 8  -3647127.598 9  21546141.457    21546140.228
  22286604.335     7012915.038 6   5464606.620 7  22286624.421    22286624.901
  24057586.819     6448227.266 6   5024590.644 7  24057602.408    24057601.209
  22381278.313    -7204973.910 7  -5614268.236 9  22381299.509    22381297.740
  20995148.761     2085615.261 8   1625158.626 9  20995169.387    20995168.068
  20725092.807     4706325.154 8   4070894.936 9  20725110.884    20725109.265
 92  8  6  1 36 50.0000000  0  6 21  3 26 28 17 23
  21544650.859    -4688219.272 8  -3653156.226 9  21544668.966    21544667.917
  22289788.850     7029659.493 6   5477654.234 7  22289810.106    22289810.885
  24060391.138     6463002.300 6   5036103.644 7  24060414.132    24060413.233
  22378961.098    -7217152.269 7  -5623757.863 8  22378982.083    22378980.224
  20996195.306     2091123.397 8   1629450.681 9  20996217.641    20996216.382
  20725786.736     4709976.913 8   4073740.458 9  20725805.683    20725804.214
 92  8  6  1 36 55.0000000  0  6 21  3 26 28 17 23
  21543177.379    -4695949.345 8  -3659179.656 9  21543198.034    21543196.775
  22292976.244     7046414.809 6   5490710.320 7  22292998.908    22292999.328
  24063204.870     6477784.090 6   5047621.930 7  24063226.515    24063225.765
  22376645.381    -7229319.326 7  -5633238.684 9  22376666.966    22376665.197
  20997247.428     2096638.789 8   1633748.383 9  20997267.394    20997265.955
  20726481.505     4713634.913 8   4076590.848 9  20726501.951    20726500.033
 92  8  6  1 37  0.0000000  0  6 21  3 26 28 17 23
  21541708.605    -4703672.719 7  -3665197.865 9  21541728.122    21541727.103
  22296165.196     7063180.940 6   5503774.837 7  22296189.629    22296189.599
  24066022.409     6492572.668 6   5059145.497 7  24066041.056    24066040.397
  22374334.521    -7241475.027 7  -5642710.662 8  22374353.827    22374351.938
  20998300.449     2102161.439 8   1638051.750 9  20998318.197    20998316.788
  20727175.735     4717299.188 8   4079446.126 9  20727198.999    20727197.410
 92  8  6  1 37  5.0000000  0  6 21  3 26 28 17 23
  21540237.104    -4711389.772 7  -3671211.142 9  21540259.798    21540258.449
  22299360.114     7079957.630 6   5516847.572 7  22299381.819    22299382.689
  24068832.934     6507367.981 6   5070674.312 7  24068856.437    24068855.418
  22372021.981    -7253619.674 7  -5652174.020 9  22372042.517    22372040.509
  20999350.832     2107691.001 8   1642360.496 9  20999370.528    20999369.119
  20727875.001     4720969.446 8   4082306.067 9  20727897.605    20727896.016
 92  8  6  1 37 10.0000000  0  6 21  3 26 28 17 23
  21538772.168    -4719100.516 8  -3677219.513 9  21538792.224    21538791.685
  22302555.032     7096745.032 6   5529928.662 7  22302576.767    22302577.037
  24071651.732     6522170.286 6   5082208.572 7  24071673.048    24071672.208
  22369714.989    -7265753.182 7  -5661628.697 9  22369733.516    22369731.717
  21000402.654     2113227.550 8   1646674.693 9  21000423.999    21000422.650
  20728580.412     4724645.938 8   4085170.861 9  20728597.141    20728595.492
 92  8  6  1 37 15.0000000  0  6 21  3 26 28 17 23
  21537305.524    -4726805.067 8  -3683223.064 9  21537326.029    21537325.160
  22305753.488     7113543.126 6   5543018.074 7  22305773.304    22305773.125
  24074470.231     6536979.642 6   5093748.327 7  24074491.037    24074490.047
  22367407.636    -7277875.622 7  -5671074.743 8  22367426.613    22367425.144
  21001455.855     2118771.178 8   1650994.404 9  21001478.969    21001477.769
  20729279.438     4728329.023 8   4088040.796 9  20729298.086    20729296.467
 92  8  6  1 37 20.0000000  0  6 21  3 26 28 17 23
  21535840.078    -4734503.740 8  -3689222.019 9  21535861.363    21535860.194
  22308951.974     7130351.906 6   5556115.819 7  22308971.700    22308972.240
  24077291.668     6551796.270 5   5105293.740 7  24077310.825    24077309.386
  22365103.221    -7289986.935 7  -5680512.138 9  22365121.838    22365119.920
  21002514.782     2124321.778 8   1655319.544 9  21002535.377    21002534.028
  20729979.004     4732018.762 8   4090915.919 9  20730000.229    20729998.551
 92  8  6  1 37 25.0000000  0  6 21  3 26 28 17 23
  21534378.050    -4742196.570 7  -3695216.428 9  21534397.507    21534396.488
  22312152.588     7147171.476 6   5569221.963 7  22312172.614    22312172.524
  24080113.464     6566620.376 5   5116845.003 7  24080131.302    24080130.762
  22362798.687    -7302087.029 7  -5689940.776 9  22362819.372    22362817.244
  21003572.569     2129879.262 8   1659650.051 9  21003592.685    21003591.396
  20730682.677     4735715.272 8   4093796.314 9  20730703.603    20730702.134
 92  8  6  1 37 30.0000000  0  6 21  3 26 28 17 23
  21532915.903    -4749883.754 7  -3701206.443 9  21532934.580    21532933.470
  22315355.151     7164001.407 6   5582336.195 7  22315375.417    22315375.267
  24082929.265     6581451.873 5   5128402.001 7  24082953.998    24082953.128
  22360499.248    -7314176.049 7  -5699360.792 9  22360518.885    22360517.056
  21004633.055     2135443.287 8   1663985.650 9  21004651.672    21004650.353
  20731386.770     4739418.237 8   4096681.748 9  20731408.295    20731406.796
 92  8  6  1 37 35.0000000  0  6 21  3 26 28 17 23
  21531453.965    -4757564.927 7  -3707191.761 9  21531472.881    21531471.832
  22318559.603     7180842.060 6   5595458.768 7  22318580.228    22318580.138
  24085753.220     6596291.118 5   5139965.048 7  24085777.263    24085776.874
  22358204.007    -7326253.601 7  -5708771.863 9  22358220.166    22358218.757
  21005693.001     2141014.354 8   1668326.742 9  21005711.618    21005710.179
  20732095.539     4743127.775 8   4099572.289 9  20732114.396    20732112.747
 92  8  6  1 37 40.0000000  0  6 21  3 26 28 17 23
  21529993.975    -4765240.308 7  -3713172.572 9  21530012.203    21530010.944
  22321765.703     7197693.327 6   5608589.621 7  22321786.719    22321786.928
  24088580.862     6611137.817 5   5151533.890 7  24088602.627    24088602.238
  22355903.220    -7338320.104 7  -5718174.322 8  22355923.966    22355922.887
  21006752.438     2146592.200 8   1672673.117 9  21006773.214    21006771.954
  20732800.771     4746843.639 8   4102467.768 9  20732821.366    20732819.688
 92  8  6  1 37 45.0000000  0  6 21  3 26 28 17 23
  21528531.348    -4772910.037 7  -3719148.984 9  21528552.993    21528551.914
  22324976.480     7214555.027 6   5621728.596 7  22324995.127    22324995.547
  24091407.725     6625991.885 5   5163108.480 7  24091429.730    24091429.251
  22353609.478    -7350375.825 7  -5727568.396 9  22353629.744    22353628.275
  21007815.202     2152176.629 8   1677024.616 9  21007835.918    21007834.599
  20733509.120     4750565.724 8   4105368.096 9  20733529.626    20733527.977
 92  8  6  1 37 50.0000000  0  6 21  3 26 28 17 23
  21527076.905    -4780573.996 7  -3725120.899 9  21527094.083    21527093.513
  22328188.007     7231427.470 6   5634875.954 7  22328205.935    22328206.294
  24094241.304     6640853.759 5   5174689.157 7  24094257.163    24094256.833
  22351318.164    -7362420.516 7  -5736953.860 9  22351337.561    22351336.302
  21008884.352     2157768.028 8   1681381.552 9  21008899.851    21008898.622
  20734219.029     4754294.539 8   4108273.661 9  20734239.085    20734237.526
 92  8  6  1 37 55.0000000  0  6 21  3 26 28 17 23
  21525618.714    -4788232.435 7  -3731088.508 9  21525637.032    21525636.282
  22331400.223     7248310.476 6   5648031.527 7  22331418.541    22331418.810
  24097071.405     6655723.360 5   5186275.851 7  24097087.204    24097086.814
  22349025.472    -7374454.256 7  -5746330.795 9  22349048.076    22349046.187
  21009946.577     2163366.419 8   1685743.931 9  21009965.194    21009964.204
  20734930.137     4758030.107 8   4111184.495 9  20734950.163    20734948.574
 92  8  6  1 38  0.0000000  0  6 21  3 26 28 17 23
  21524160.074    -4795885.730 7  -3737052.107 9  21524180.700    21524179.830
  22334613.429     7265203.770 6   5661195.125 7  22334633.395    22334633.995
  24099896.949     6670600.490 5   5197868.406 7  24099918.114    24099918.114
  22346740.364    -7386477.401 7  -5755699.480 9  22346760.180    22346758.561
  21011009.940     2168971.468 8   1690111.503 9  21011031.765    21011030.506
  20735641.964     4761772.231 8   4114100.436 9  20735662.140    20735660.611
 92  8  6  1 38  5.0000000  0  6 21  3 26 28 17 23
  21522704.612    -4803533.681 8  -3743011.547 9  21522725.207    21522724.638
  22337828.763     7282107.643 6   5674366.964 7  22337849.988    22337849.718
  24102733.525     6685485.259 5   5209466.923 7  24102750.823    24102750.283
  22344454.446    -7398489.584 7  -5765059.619 9  22344474.292    22344472.434
  21012079.510     2174583.380 8   1694484.414 9  21012099.866    21012098.787
  20736353.641     4765521.123 8   4117021.647 9  20736375.616    20736373.997
 92  8  6  1 38 10.0000000  0  6 21  3 26 28 17 23
  21521249.419    -4811176.417 7  -3748966.922 9  21521270.974    21521269.895
  22341049.703     7299022.030 6   5687546.997 7  22341068.770    22341069.040
  24105564.045     6700377.603 5   5221071.340 7  24105584.641    24105584.251
  22342169.818    -7410490.895 7  -5774411.291 9  22342190.623    22342188.884
  21013150.998     2180201.982 8   1698862.550 9  21013168.926    21013167.877
  20737069.186     4769276.642 8   4119948.033 9  20737090.231    20737088.582
 92  8  6  1 38 15.0000000  0  6 21  3 26 28 17 23
  21519799.923    -4818813.524 8  -3754917.905 9  21519817.490    21519816.771
  22344267.466     7315947.270 6   5700735.487 7  22344289.620    22344289.860
  24108395.465     6715277.650 5   5232681.762 7  24108420.018    24108419.598
  22339890.586    -7422481.072 7  -5783754.281 8  22339909.083    22339907.164
  21014220.598     2185827.661 8   1703246.191 9  21014239.515    21014238.226
  20737784.580     4773039.314 8   4122879.983 9  20737806.435    20737804.397
 92  8  6  1 38 20.0000000  0  6 21  3 26 28 17 23
  21518347.158    -4826445.147 7  -3760864.619 9  21518365.326    21518364.246
  22347489.875     7332883.088 6   5713932.220 7  22347512.449    22347512.509
  24111239.326     6730184.895 5   5244297.792 7  24111256.744    24111255.905
  22337608.895    -7434460.308 7  -5793088.746 8  22337629.611    22337627.212
  21015290.707     2191459.908 8   1707634.960 9  21015311.183    21015310.014
  20738503.633     4776808.895 8   4125817.317 9  20738523.599    20738521.890
 92  8  6  1 38 25.0000000  0  6 21  3 26 28 17 23
  21516890.107    -4834071.515 7  -3766807.246 9  21516913.910    21516913.161
  22350715.072     7349829.201 6   5727136.980 7  22350737.137    22350737.287
  24114077.851     6745099.084 5   5255919.232 7  24114094.879    24114093.800
  22335332.241    -7446428.977 7  -5802414.976 9  22335351.788    22335350.019
  21016362.675     2197098.436 8   1712028.615 9  21016384.350    21016382.821
  20739223.704     4780585.213 8   4128759.904 9  20739242.201    20739240.403
 92  8  6  1 38 30.0000000  0  6 21  3 26 28 17 23
  21515444.748    -4841692.151 7  -3772745.405 9  21515464.024    21515462.975
  22353940.479     7366785.971 6   5740350.037 7  22353963.683    22353964.223
  24116911.130     6760020.562 5   5267546.355 7  24116934.304    24116934.214
  22333055.228    -7458386.816 7  -5811732.781 8  22333076.483    22333074.384
  21017436.082     2202743.637 8   1716427.471 9  21017458.356    21017457.007
  20739943.896     4784368.693 8   4131708.071 9  20739962.453    20739960.684
 92  8  6  1 38 35.0000000  0  6 21  3 26 28 17 23
  21513993.722    -4849307.043 8  -3778679.080 9  21514014.947    21514013.568
  22357173.681     7383753.322 6   5753571.339 7  22357192.718    22357192.628
  24119758.259     6774949.270 5   5279179.105 7  24119775.497    24119774.568
  22330781.961    -7470333.820 7  -5821042.127 8  22330803.157    22330800.758
  21018515.904     2208395.505 8   1720831.526 9  21018533.982    21018532.513
  20740662.828     4788159.354 8   4134661.831 9  20740683.544    20740681.955
 92  8  6  1 38 40.0000000  0  6 21  3 26 28 17 23
  21512546.414    -4856916.031 7  -3784608.160 9  21512567.160    21512566.050
  22360402.985     7400731.408 6   5766801.018 7  22360423.131    22360423.491
  24122595.854     6789885.192 5   5290817.485 7  24122617.260    24122616.660
  22328513.672    -7482269.794 7  -5830342.883 8  22328531.779    22328529.651
  21019591.829     2214054.101 8   1725240.815 9  21019610.596    21019609.067
  20741385.118     4791957.140 8   4137621.136 9  20741406.223    20741404.425
 92  8  6  1 38 45.0000000  0  6 21  3 26 28 17 23
  21511101.504    -4864519.031 7  -3790532.573 9  21511120.391    21511119.372
  22363635.227     7417720.019 6   5780038.884 6  22363656.213    22363656.153
  24125441.275     6804827.851 5   5302461.106 7  24125460.821    24125460.911
  22326242.534    -7494194.761 7  -5839635.065 8  22326262.350    22326260.312
  21020666.465     2219719.297 8   1729655.252 9  21020688.620    21020687.271
  20742109.087     4795761.656 8   4140585.697 9  20742130.012    20742128.393
 92  8  6  1 38 50.0000000  0  6 21  3 26 28 17 23
  21509655.905    -4872116.234 7  -3796452.470 9  21509674.672    21509673.743
  22366870.648     7434718.915 6   5793284.773 6  22366891.064    22366890.794
  24128289.063     6819776.838 5   5314109.662 7  24128306.391    24128305.102
  22323974.004    -7506108.950 7  -5848918.842 9  22323995.110    22323993.011
  21021745.448     2225390.881 8   1734074.664 9  21021767.933    21021766.254
  20742836.263     4799572.494 8   4143555.191 9  20742855.450    20742853.441
 92  8  6  1 38 55.0000000  0  6 21  3 26 28 17 23
  21508210.306    -4879707.285 8  -3802367.565 9  21508230.092    21508229.223
  22370105.049     7451728.463 6   5806538.953 7  22370127.683    22370128.222
  24131131.126     6834732.539 5   5325763.461 7  24131151.631    24131151.511
  22321706.854    -7518012.094 7  -5858194.018 9  22321730.208    22321728.109
  21022827.220     2231069.293 8   1738499.404 9  21022848.655    21022847.096
  20743561.851     4803389.961 8   4146529.838 9  20743581.667    20743580.048
 92  8  6  1 39  0.0000000  0  6 21  3 26 28 17 23
  21506764.077    -4887292.411 8  -3808278.055 9  21506786.651    21506785.452
  22373346.674     7468748.308 6   5819801.163 7  22373366.431    22373366.790
  24133978.225     6849694.787 5   5337422.344 7  24133998.880    24133998.011
  22319446.928    -7529904.695 7  -5867460.978 9  22319466.655    22319464.976
  21023913.607     2236754.104 8   1742929.129 9  21023930.456    21023928.567
  20744288.788     4807213.536 8   4149509.245 9  20744309.234    20744307.675
 92  8  6  1 39  5.0000000  0  6 21  3 26 28 17 23
  21505324.114    -4894871.408 7  -3814183.763 9  21505344.380    21505343.241
  22376589.200     7485778.613 6   5833071.522 7  22376607.547    22376607.517
  24136823.315     6864663.761 5   5349086.462 7  24136848.348    24136847.029
  22317188.442    -7541786.537 7  -5876719.560 9  22317206.130    22317203.641
  21024994.929     2242445.481 8   1747363.965 9  21025013.456    21025011.717
  20745018.303     4811043.364 8   4152493.524 9  20745037.969    20745036.410
 92  8  6  1 39 10.0000000  0  6 21  3 26 28 17 23
  21503885.830    -4902444.325 8  -3820084.734 9  21503903.188    21503902.228
  22379828.667     7502819.344 6   5846350.000 6  22379850.372    22379850.162
  24139674.911     6879639.426 5   5360755.810 7  24139697.455    24139696.856
  22314923.990    -7553657.542 7  -5885969.683 9  22314947.164    22314944.795
  21026076.760     2248143.229 8   1751803.769 9  21026097.745    21026096.127
  20745749.377     4814879.241 8   4155482.521 9  20745767.814    20745766.165
 92  8  6  1 39 15.0000000  0  6 21  3 26 28 17 23
  21502443.588    -4910011.173 7  -3825980.964 9  21502463.314    21502462.295
  22383075.389     7519870.486 6   5859636.604 7  22383095.326    22383095.086
  24142534.301     6894622.003 5   5372430.539 7  24142547.942    24142547.432
  22312670.779    -7565517.584 7  -5895211.275 9  22312690.026    22312688.018
  21027163.628     2253847.382 8   1756248.567 9  21027183.354    21027181.675
  20746482.369     4818721.433 8   4158476.435 9  20746499.038    20746497.419
 92  8  6  1 39 20.0000000  0  6 21  3 26 28 17 23
  21501007.073    -4917572.072 8  -3831872.576 9  21501024.760    21501023.471
  22386322.681     7536932.114 6   5872931.377 7  22386341.448    22386341.958
  24145380.561     6909611.590 5   5384110.714 7  24145400.797    24145399.927
  22310416.610    -7577366.817 7  -5904444.440 9  22310435.377    22310433.188
  21028249.236     2259557.775 8   1760698.221 9  21028269.862    21028268.213
  20747211.045     4822569.934 8   4161475.272 9  20747231.281    20747229.752
 92  8  6  1 39 25.0000000  0  6 21  3 26 28 17 23
  21499563.482    -4925126.919 8  -3837759.471 9  21499586.896    21499585.936
  22389567.125     7554004.298 6   5886234.370 7  22389590.389    22389590.809
  24148238.842     6924608.178 5   5395796.376 6  24148254.851    24148253.292
  22308166.428    -7589205.056 7  -5913669.043 9  22308182.647    22308180.848
  21029340.750     2265274.536 8   1765152.840 9  21029357.749    21029356.280
  20747944.937     4826424.734 8   4164479.011 9  20747964.873    20747963.194
 92  8  6  1 39 30.0000000  0  6 21  3 26 28 17 23
  21498131.763    -4932675.904 8  -3843641.790 9  21498150.500    21498149.301
  22392820.773     7571086.679 7   5899545.305 7  22392841.249    22392841.189
  24151089.209     6939611.228 5   5407487.056 7  24151109.655    24151108.815
  22305911.179    -7601032.658 7  -5922885.355 9  22305931.715    22305930.036
  21030427.558     2270997.127 8   1769612.001 9  21030446.955    21030445.096
  20748678.649     4830285.517 8   4167487.412 9  20748699.754    20748697.895
 92  8  6  1 39 35.0000000  0  6 21  3 26 28 17 23
  21496694.318    -4940218.712 8  -3849519.300 9  21496714.764    21496714.045
  22396076.339     7588179.394 6   5912864.304 7  22396093.607    22396093.667
  24153940.415     6954620.615 5   5419182.670 7  24153965.238    24153965.058
  22303663.545    -7612849.555 7  -5932093.321 9  22303683.241    22303681.593
  21031517.423     2276725.525 8   1774075.691 9  21031536.520    21031535.141
  20749417.667     4834152.302 8   4170500.487 9  20749435.115    20749433.766
 92  8  6  1 39 40.0000000  0  6 21  3 26 28 17 23
  21495260.681    -4947754.986 7  -3855391.718 9  21495280.947    21495279.598
  22399328.757     7605282.531 6   5926191.415 6  22399348.094    22399348.514
  24156803.103     6969636.353 5   5430883.247 7  24156822.260    24156822.080
  22301414.802    -7624655.569 7  -5941292.804 9  22301436.507    22301434.648
  21032606.599     2282459.817 8   1778543.969 9  21032627.735    21032626.386
  20750151.019     4838024.974 8   4173518.160 9  20750172.305    20750170.656
 92  8  6  1 39 45.0000000  0  6 21  3 26 28 17 23
  21493828.003    -4955284.293 7  -3861258.709 9  21493848.179    21493847.219
  22402584.893     7622396.209 6   5939526.742 7  22402604.739    22402604.799
  24159656.108     6984658.673 5   5442588.938 6  24159681.620    24159680.301
  22299174.093    -7636450.537 7  -5950483.684 9  22299191.931    22299190.042
  21033699.703     2288200.384 8   1783017.137 9  21033720.149    21033718.799
  20750889.708     4841903.809 8   4176540.626 9  20750910.394    20750908.895
 92  8  6  1 39 50.0000000  0  6 21  3 26 28 17 23
  21492394.155    -4962806.838 7  -3867120.427 9  21492416.460    21492415.051
  22405838.841     7639520.184 6   5952870.082 7  22405863.453    22405863.364
  24162520.865     6999686.990 5   5454299.304 6  24162541.700    24162540.621
  22296929.307    -7648234.633 7  -5959666.099 9  22296949.843    22296948.074
  21034794.695     2293947.268 8   1787495.225 9  21034813.851    21034812.352
  20751628.966     4845788.429 8   4179567.596 9  20751649.742    20751648.093
 92  8  6  1 39 55.0000000  0  6 21  3 26 28 17 23
  21490966.513    -4970322.627 7  -3872976.882 9  21490986.300    21490985.400
  22409103.101     7656654.464 6   5966221.464 7  22409123.846    22409124.386
  24165380.375     7014720.970 5   5466014.085 6  24165401.721    24165401.840
  22294688.119    -7660007.967 7  -5968840.115 9  22294709.014    22294707.605
  21035887.888     2299700.461 8   1791978.232 9  21035908.753    21035907.314
  20752370.083     4849678.868 8   4182599.114 9  20752390.109    20752388.430
 92  8  6  1 40  0.0000000  0  6 21  3 26 28 17 23
  21489538.752    -4977831.545 7  -3878827.982 9  21489557.609    21489556.230
  22412367.931     7673798.875 6   5979580.738 7  22412386.338    22412386.368
  24168241.984     7029760.541 5   5477733.233 6  24168263.929    24168263.749
  22292448.459    -7671770.435 7  -5978005.674 9  22292470.824    22292469.774
  21036983.629     2305459.794 8   1796466.026 9  21037004.765    21037003.416
  20753112.999     4853575.396 8   4185635.368 9  20753131.646    20753130.057
 92  8  6  1 40  5.0000000  0  6 21  3 26 28 17 23
  21488109.791    -4985333.451 7  -3884673.617 9  21488129.937    21488128.918
  22415628.204     7690953.339 6   5992947.854 6  22415650.868    22415650.868
  24171102.904     7044805.701 5   5489456.730 6  24171126.497    24171125.988
  22290218.213    -7683522.072 7  -5987162.785 9  22290234.462    22290233.173
  21038079.581     2311225.044 8   1800958.432 9  21038101.825    21038100.236
  20753853.936     4857477.939 8   4188676.308 9  20753874.112    20753872.673
 92  8  6  1 40 10.0000000  0  6 21  3 26 28 17 23
  21486683.529    -4992827.924 7  -3890513.459 9  21486703.765    21486702.595
  22418896.931     7708118.128 6   6006322.995 7  22418917.017    22418917.616
  24173978.513     7059856.656 5   5501184.745 6  24173990.864    24173990.774
  22287980.652    -7695262.587 7  -5996311.235 9  22288000.528    22287999.119
  21039181.318     2316996.475 8   1805455.652 9  21039199.935    21039198.706
  20754596.762     4861386.639 8   4191722.054 9  20754617.957    20754616.458
 92  8  6  1 40 15.0000000  0  6 21  3 26 28 17 23
  21485258.495    -5000314.803 7  -3896347.390 9  21485279.121    21485277.892
  22422164.159     7725293.113 6   6019706.107 7  22422185.474    22422185.504
  24176831.398     7074913.109 5   5512917.037 6  24176856.221    24176856.221
  22285746.719    -7706992.119 7  -6005451.124 9  22285768.274    22285766.595
  21040281.826     2322773.942 8   1809957.570 9  21040299.334    21040298.285
  20755341.626     4865301.180 8   4194772.338 9  20755362.821    20755361.412
 92  8  6  1 40 20.0000000  0  6 21  3 26 28 17 23
  21483837.149    -5007793.485 7  -3902174.925 9  21483855.766    21483854.657
  22425435.644     7742478.575 6   6033097.367 7  22425455.880    22425455.790
  24179696.904     7089975.247 5   5524653.762 6  24179722.387    24179721.967
  22283513.055    -7718710.428 7  -6014582.274 9  22283538.537    22283536.679
  21041381.974     2328557.555 8   1814464.289 9  21041399.842    21041398.553
  20756086.700     4869221.845 8   4197827.403 9  20756108.855    20756107.716
 92  8  6  1 40 25.0000000  0  6 21  3 26 28 17 23
  21482412.655    -5015264.264 7  -3907996.310 9  21482434.120    21482433.011
  22428709.977     7759674.121 6   6046496.480 6  22428727.785    22428728.205
  24182566.428     7105042.666 5   5536394.601 6  24182589.602    24182589.062
  22281289.494    -7730417.754 7  -6023704.854 8  22281310.540    22281308.981
  21042481.223     2334346.924 8   1818975.484 9  21042501.399    21042500.290
  20756837.351     4873148.237 8   4200886.933 9  20756855.998    20756854.738
 92  8  6  1 40 30.0000000  0  6 21  3 26 28 17 23
  21480991.789    -5022726.921 7  -3913811.362 9  21481013.973    21481012.984
  22431981.253     7776879.983 6   6059903.642 6  22432001.788    22432002.058
  24185432.713     7120115.567 5   5548139.715 6  24185458.046    24185456.757
  22279066.713    -7742113.829 7  -6032818.686 9  22279084.940    22279082.902
  21043584.999     2340142.209 8   1823491.290 9  21043604.696    21043603.047
  20757582.874     4877080.539 8   4203951.063 9  20757604.549    20757602.931
 92  8  6  1 40 35.0000000  0  6 21  3 26 28 17 23
  21479576.229    -5030181.621 7  -3919620.211 9  21479595.206    21479594.366
  22435258.194     7794095.906 6   6073318.635 7  22435278.370    22435278.310
  24188306.884     7135193.861 5   5559889.034 6  24188327.869    24188326.640
  22276843.392    -7753798.703 7  -6041923.772 9  22276861.350    22276859.551
  21044688.026     2345943.297 8   1828011.616 9  21044708.382    21044707.062
  20758333.165     4881018.649 8   4207019.719 9  20758353.701    20758352.502
 92  8  6  1 40 40.0000000  0  6 21  3 26 28 17 23
  21478159.829    -5037628.412 7  -3925422.907 9  21478178.327    21478177.457
  22438535.045     7811321.947 6   6086741.521 6  22438556.121    22438557.020
  24191179.465     7150277.974 5   5571642.884 6  24191197.333    24191197.363
  22274618.303    -7765472.174 7  -6051019.982 9  22274640.068    22274637.819
  21045793.960     2351750.291 8   1832536.552 9  21045813.267    21045812.008
  20759084.925     4884962.493 8   4210092.844 9  20759104.291    20759102.882
 92  8  6  1 40 45.0000000  0  6 21  3 26 28 17 23
  21476743.190    -5045067.148 8  -3931219.320 9  21476762.647    21476761.807
  22441814.865     7828558.309 6   6100172.445 7  22441836.270    22441836.630
  24194046.620     7165368.119 5   5583401.435 6  24194070.034    24194068.565
  22272401.397    -7777134.106 7  -6060107.196 9  22272420.884    22272418.995
  21046900.374     2357563.634 8   1837066.427 9  21046919.561    21046918.242
  20759835.935     4888912.132 8   4213170.486 9  20759855.691    20759854.432
 92  8  6  1 40 50.0000000  0  6 21  3 26 28 17 23
  21475327.600    -5052497.741 7  -3937009.393 9  21475348.765    21475347.746
  22445097.113     7845804.996 6   6113611.413 7  22445118.008    22445117.648
  24196919.081     7180464.096 5   5595164.534 6  24196942.076    24196941.836
  22270184.822    -7788784.281 7  -6069185.246 8  22270203.979    22270201.970
  21048004.929     2363383.326 8   1841601.252 9  21048026.934    21048025.345
  20760589.433     4892867.389 8   4216252.505 9  20760608.380    20760607.061
 92  8  6  1 40 55.0000000  0  6 21  3 26 28 17 23
  21473917.436    -5059920.445 7  -3942793.315 9  21473936.623    21473935.394
  22448377.741     7863061.971 6   6127058.407 7  22448402.085    22448402.145
  24199796.430     7195565.933 5   5606932.194 6  24199816.636    24199814.987
  22267967.977    -7800422.505 7  -6078253.992 9  22267989.142    22267987.283
  21049115.181     2369209.291 8   1846140.971 9  21049135.567    21049134.038
  20761344.550     4896828.329 8   4219338.950 9  20761362.658    20761361.129
